ftp/pub/palmer/observations_modified/2019/March/AR190309_BASE.txt

Download

Sample DateTime	Unit Id	WS Avg 2min	WD Avg 2min	WGS 10min	WGD 10min	Air Temp	Rel Humidity	Dew Point	Pyranometer	Quantum	Air Pressure	Snow Level	Rainfall	PW Current	Visibility	CBase 1	CBase 2	CBase 3	Vert Vis
2019/03/09  00:00:01  BASE  0.78204  5    0.9996   333  -0.4  100   -0.4  0     0     978.2    NA       0.0000   9999     4460  0     0    
2019/03/09  00:01:01  BASE  0.95256  360  1.18188  354  -0.4  100   -0.4  0     0     978.2    NA       0.0000   9999     4300  11390 0    
2019/03/09  00:02:01  BASE  1.11132  355  1.29948  351  -0.4  100   -0.4  0     0     978.2    NA       0.0000   9999     3150  4230  11420
2019/03/09  00:03:01  BASE  1.18776  351  1.29948  351  -0.4  100   -0.4  0     0     978.2    NA       0.0000   9999     3310  4100  0    
2019/03/09  00:04:01  BASE  1.12896  348  1.29948  351  -0.4  100   -0.4  0     0     978.2    NA       0.0000   9999     2920  0     0    
2019/03/09  00:05:01  BASE  0.95844  342  1.29948  351  -0.4  100   -0.4  0     0     978.2    NA       0.0000   9999     1870  0     0    
2019/03/09  00:06:01  BASE  0.6174   338  1.29948  351  -0.5  100   -0.5  0     0     978.2    NA       0.0000   9999     3280  4490  0    
2019/03/09  00:07:01  BASE  0.18228  345  1.29948  351  -0.5  100   -0.5  0     0     978.2    NA       0.0000   9999     3080  0     0    
2019/03/09  00:08:01  BASE  0        350  1.29948  351  -0.5  100   -0.5  0     0     978.2    NA       0.0000   9999     3220  4360  0    
2019/03/09  00:09:01  BASE  0.19404  336  1.29948  351  -0.5  100   -0.5  0     0     978.1    NA       0.0000   9999     3120  4490  0    
2019/03/09  00:10:01  BASE  0.54684  323  1.29948  351  -0.5  100   -0.5  0     0     978.1    NA       0.0000   9999     3220  4360  0    
2019/03/09  00:11:00  BASE  0.78792  320  1.29948  351  -0.5  100   -0.5  0     0     978.2    NA       0.0000   9999     3350  4330  0    
2019/03/09  00:12:00  BASE  1.02312  324  1.27008  329  -0.5  100   -0.5  0     0     978.1    NA       0.0000   9999     1800  3120  4360 
2019/03/09  00:13:00  BASE  1.24656  327  1.45236  328  -0.5  100   -0.5  0     0     978.1    NA       0.0000   9999     1310  4860  0    
2019/03/09  00:14:00  BASE  1.30536  326  1.45236  324  -0.4  100   -0.4  0     0     978.2    NA       0.0000   9999     1280  3350  4890 
2019/03/09  00:15:00  BASE  1.21128  325  1.45236  324  -0.4  100   -0.4  0     0     978.2    NA       0.0000   9999     1280  3380  9380 
2019/03/09  00:16:00  BASE  0.90552  322  1.45236  324  -0.4  100   -0.4  0     0     978.2    NA       0.0000   9999     3150  9380  10790
2019/03/09  00:17:00  BASE  0.68208  312  1.45236  324  -0.4  100   -0.4  0     0     978.2    NA       0.0000   9999     3150  9510  10760
2019/03/09  00:18:00  BASE  0.588    302  1.45236  324  -0.3  100   -0.3  0     0     978.2    NA       0.0000   9999     3180  9610  10860
2019/03/09  00:19:00  BASE  0.68208  297  1.45236  324  -0.3  100   -0.3  0     0     978.2    NA       0.0000   9999     2990  4490  9970 
2019/03/09  00:20:00  BASE  1.19952  291  1.84632  290  -0.4  100   -0.4  0     0     978.2    NA       0.0000   9999     2590  6170  12300
2019/03/09  00:21:00  BASE  1.764    291  2.21088  293  -0.4  100   -0.4  0     0     978.2    NA       0.0000   9999     2490  11320 0    
2019/03/09  00:22:01  BASE  1.98156  293  2.21088  293  -0.4  100   -0.4  0     0     978.2    NA       0.0000   9999     2260  5180  0    
2019/03/09  00:23:00  BASE  1.93452  295  2.21088  293  -0.4  100   -0.4  0     0     978.2    NA       0.0000   9999     2170  10990 0    
2019/03/09  00:24:00  BASE  1.79928  296  2.21088  293  -0.4  100   -0.4  0     0     978.2    NA       0.0000   9999     2530  9810  0    
2019/03/09  00:25:01  BASE  1.58172  296  2.21088  293  -0.5  100   -0.5  0     0     978.2    NA       0.0000   9999     2530  10700 0    
2019/03/09  00:26:01  BASE  1.38768  299  2.21088  293  -0.5  100   -0.5  0     0     978.2    NA       0.0000   9999     2590  0     0    
2019/03/09  00:27:00  BASE  1.37592  303  2.21088  293  -0.5  100   -0.5  0     0     978.2    NA       0.0000   9999     2530  4890  0    
2019/03/09  00:28:01  BASE  1.4112   303  2.21088  293  -0.5  100   -0.5  0     0     978.2    NA       0.0000   9999     4890  0     0    
2019/03/09  00:29:01  BASE  1.50528  304  2.21088  293  -0.5  100   -0.5  0     0     978.2    NA       0.0000   9999     4890  10730 0    
2019/03/09  00:30:00  BASE  1.60524  304  2.21088  293  -0.5  100   -0.5  0     0     978.2    NA       0.0000   9999     3670  0     0    
2019/03/09  00:31:00  BASE  1.5288   303  2.1462   292  -0.5  100   -0.5  0     0     978.2    NA       0.0000   9999     3050  0     0    
2019/03/09  00:32:00  BASE  1.47     305  2.058    294  -0.5  100   -0.5  0     0     978.2    NA       0.0000   9999     3020  10140 0    
2019/03/09  00:33:00  BASE  1.50528  308  1.84632  299  -0.5  100   -0.5  0     0     978.2    NA       0.0000   9999     2850  4990  0    
2019/03/09  00:34:00  BASE  1.63464  310  1.96392  306  -0.5  100   -0.5  0     0     978.2    NA       0.0000   9999     2890  0     0    
2019/03/09  00:35:01  BASE  1.81692  308  2.0874   308  -0.5  100   -0.5  0     0     978.2    NA       0.0000   9999     2720  0     0    
2019/03/09  00:36:01  BASE  1.9404   307  2.0874   308  -0.5  100   -0.5  0     0     978.2    NA       0.0000   9999     2590  0     0    
2019/03/09  00:37:00  BASE  1.87572  308  2.0874   308  -0.5  100   -0.5  0     0     978.2    NA       0.0000   9999     2660  5180  0    
2019/03/09  00:38:00  BASE  1.764    308  2.0874   308  -0.5  100   -0.5  0     0     978.2    NA       0.0000   9999     2620  5090  0    
2019/03/09  00:39:00  BASE  1.74636  309  2.0874   308  -0.6  100   -0.6  0     0     978.2    NA       0.0000   9999     2850  5050  0    
2019/03/09  00:40:00  BASE  1.78752  310  2.0874   308  -0.6  100   -0.6  0     0     978.2    NA       0.0000   9999     2950  0     0    
2019/03/09  00:41:00  BASE  1.80516  310  2.0874   308  -0.5  100   -0.5  0     0     978.1    NA       0.0000   9999     2790  0     0    
2019/03/09  00:42:01  BASE  1.7346   315  2.0874   308  -0.5  100   -0.5  0     0     978.1    NA       0.0000   9999     2760  3840  5220 
2019/03/09  00:43:00  BASE  1.62876  322  2.0874   308  -0.5  100   -0.5  0     0     978.1    NA       0.0000   9999     2720  0     0    
2019/03/09  00:44:00  BASE  1.5582   326  2.0874   308  -0.5  100   -0.5  0     0     978.1    NA       0.0000   9999     2690  0     0    
2019/03/09  00:45:00  BASE  1.48764  326  1.9992   309  -0.5  100   -0.5  0     0     978.1    NA       0.0000   9999     2660  0     0    
2019/03/09  00:46:00  BASE  1.4112   328  1.96392  307  -0.4  100   -0.4  0     0     978.1    NA       0.0000   9999     2660  0     0    
2019/03/09  00:47:00  BASE  1.54056  334  1.90512  312  -0.4  100   -0.4  0     0     978.1    NA       0.0000   9999     10470 0     0    
2019/03/09  00:48:00  BASE  1.7052   338  1.90512  312  -0.4  100   -0.4  0     0     978.1    NA       0.0000   9999     1800  12730 0    
2019/03/09  00:49:00  BASE  1.7934   340  2.0286   338  -0.5  100   -0.5  0     0     978.1    NA       0.0000   9999     12700 0     0    
2019/03/09  00:50:00  BASE  1.75812  345  2.0286   338  -0.5  100   -0.5  0     0     978.1    NA       0.0000   9999     2620  12730 0    
2019/03/09  00:51:00  BASE  1.63464  350  2.0286   338  -0.5  100   -0.5  0     0     978.1    NA       0.0000   9999     1840  12760 0    
2019/03/09  00:52:01  BASE  1.58172  352  2.0286   338  -0.5  100   -0.5  0     0     978.1    NA       0.0000   9999     1710  11980 0    
2019/03/09  00:53:00  BASE  1.49352  357  2.0286   338  -0.5  100   -0.5  0     0     978.1    NA       0.0000   9999     12010 0     0    
2019/03/09  00:54:00  BASE  1.49352  2    2.0286   338  -0.5  100   -0.5  0     0     978.0    NA       0.0000   9999     11980 0     0    
2019/03/09  00:55:01  BASE  1.52292  4    2.0286   338  -0.5  100   -0.5  0     0     978.1    NA       0.0000   9999     2590  11480 0    
2019/03/09  00:56:00  BASE  1.51116  8    2.0286   338  -0.5  100   -0.5  0     0     978.1    NA       0.0000   9999     2920  12010 0    
2019/03/09  00:57:00  BASE  1.5582   9    2.0286   338  -0.5  100   -0.5  0     0     978.1    NA       0.0000   9999     12040 0     0    
2019/03/09  00:58:00  BASE  1.5582   9    2.0286   338  -0.5  100   -0.5  0     0     978.1    NA       0.0000   9999     12070 0     0    
2019/03/09  00:59:00  BASE  1.51116  9    1.75224  343  -0.5  100   -0.5  0     0     978.0    NA       0.0000   9999     12070 0     0    
2019/03/09  01:00:00  BASE  1.58172  6    1.75224  4    -0.5  100   -0.5  0     0     978.0    NA       0.0000   9999     12040 0     0    
2019/03/09  01:01:00  BASE  1.62876  6    1.75224  4    -0.5  100   -0.5  0     0     977.9    NA       0.0000   9999     12140 0     0    
2019/03/09  01:02:00  BASE  1.56996  8    1.75224  4    -0.5  100   -0.5  0     0     977.9    NA       0.0000   9999     12210 0     0    
2019/03/09  01:03:01  BASE  1.50528  13   1.75224  4    -0.5  100   -0.5  0     0     977.9    NA       0.0000   9999     10400 12240 0    
2019/03/09  01:04:00  BASE  1.45236  18   1.75224  4    -0.5  100   -0.5  0     0     977.9    NA       0.0000   9999     6890  0     0    
2019/03/09  01:05:00  BASE  1.39944  16   1.75224  4    -0.5  100   -0.5  0     0     977.9    NA       0.0000   9999     1350  12210 0    
2019/03/09  01:06:00  BASE  1.29948  13   1.75224  4    -0.6  100   -0.6  0     0     977.9    NA       0.0000   9999     1210  12210 0    
2019/03/09  01:07:01  BASE  1.18188  15   1.75224  4    -0.6  100   -0.6  0     0     977.9    NA       0.0000   9999     1150  12240 0    
2019/03/09  01:08:00  BASE  1.17012  17   1.75224  4    -0.6  100   -0.6  0     0     977.9    NA       0.0000   9999     12240 0     0    
2019/03/09  01:09:00  BASE  1.2936   16   1.75224  4    -0.6  100   -0.6  0     0     977.9    NA       0.0000   9999     4760  0     0    
2019/03/09  01:10:00  BASE  1.41708  16   1.78752  11   -0.6  100   -0.6  0     0     977.9    NA       0.0000   9999     5150  0     0    
2019/03/09  01:11:00  BASE  1.5288   16   1.81692  16   -0.6  100   -0.6  0     0     977.9    NA       0.0000   9999     4590  0     0    
2019/03/09  01:12:00  BASE  1.65816  15   1.90512  1    -0.6  100   -0.6  0     0     977.9    NA       0.0000   9999     4590  0     0    
2019/03/09  01:13:00  BASE  1.72872  11   2.0874   6    -0.6  100   -0.6  0     0     977.9    NA       0.0000   9999     4720  12830 0    
2019/03/09  01:14:00  BASE  1.63464  10   2.0874   6    -0.6  100   -0.6  0     0     977.9    NA       0.0000   9999     4630  12830 0    
2019/03/09  01:15:00  BASE  1.5288   11   2.0874   6    -0.6  100   -0.6  0     0     977.9    NA       0.0000   9999     12800 0     0    
2019/03/09  01:16:00  BASE  1.42296  9    2.0874   6    -0.6  100   -0.6  0     0     977.9    NA       0.0000   9999     2200  0     0    
2019/03/09  01:17:00  BASE  1.37004  8    2.0874   6    -0.6  100   -0.6  0     0     977.9    NA       0.0000   9999     2130  0     0    
2019/03/09  01:18:00  BASE  1.34064  6    2.0874   6    -0.6  100   -0.6  0     0     977.9    NA       0.0000   9999     2030  0     0    
2019/03/09  01:19:00  BASE  1.17012  7    2.0874   6    -0.6  100   -0.6  0     0     977.9    NA       0.0000   9999     1940  0     0    
2019/03/09  01:20:00  BASE  1.13484  8    2.0874   6    -0.6  100   -0.6  0     0     977.9    NA       0.0000   9999     1770  0     0    
2019/03/09  01:21:00  BASE  1.08192  8    2.0874   6    -0.6  100   -0.6  0     0     977.9    NA       0.0000   9999     6630  0     0    
2019/03/09  01:22:00  BASE  0.882    8    2.0874   6    -0.6  100   -0.6  0     0     977.9    NA       0.0000   9999     6890  0     0    
2019/03/09  01:23:01  BASE  0.51744  4    1.75224  360  -0.6  100   -0.6  0     0     977.9    NA       0.0000   9999     6860  0     0    
2019/03/09  01:24:01  BASE  0.4116   2    1.69344  1    -0.6  100   -0.6  0     0     977.9    NA       0.0000   9999     6990  0     0    
2019/03/09  01:25:01  BASE  0.61152  8    1.69344  1    -0.6  100   -0.6  0     0     977.9    NA       0.0000   9999     7050  0     0    
2019/03/09  01:26:01  BASE  0.48216  9    1.63464  360  -0.6  100   -0.6  0     0     977.9    NA       0.0000   9999     7090  0     0    
2019/03/09  01:27:00  BASE  0.3528   6    1.42296  12   -0.6  100   -0.6  0     0     977.9    NA       0.0000   9999     7190  0     0    
2019/03/09  01:28:00  BASE  0.6174   3    1.42296  12   -0.6  100   -0.6  0     0     977.9    NA       0.0000   9999     1710  0     0    
2019/03/09  01:29:00  BASE  0.88788  359  1.42296  12   -0.6  100   -0.6  0     0     977.9    NA       0.0000   9999     1940  0     0    
2019/03/09  01:30:01  BASE  0.97608  360  1.21128  354  -0.6  100   -0.6  0     0     977.9    NA       0.0000   9999     2030  0     0    
2019/03/09  01:31:00  BASE  1.11132  356  1.24068  345  -0.6  100   -0.6  0     0     977.9    NA       0.0000   9999     2100  0     0    
2019/03/09  01:32:00  BASE  1.2054   349  1.29948  346  -0.6  100   -0.6  0     0     977.9    NA       0.0000   9999     5450  0     0    
2019/03/09  01:33:00  BASE  1.31712  346  1.48176  346  -0.6  100   -0.6  0     0     977.9    NA       0.0000   9999     7610  0     0    
2019/03/09  01:34:01  BASE  1.45236  348  1.60524  349  -0.6  100   -0.6  0     0     977.9    NA       0.0000   9999     5510  0     0    
2019/03/09  01:35:01  BASE  1.54056  353  1.69344  14   -0.6  100   -0.6  0     0     977.9    NA       0.0000   9999     5480  0     0    
2019/03/09  01:36:01  BASE  1.4994   357  1.69344  14   -0.6  100   -0.6  0     0     977.9    NA       0.0000   9999     7970  0     0    
2019/03/09  01:37:01  BASE  1.323    358  1.69344  14   -0.6  100   -0.6  0     0     977.9    NA       0.0000   9999     7780  0     0    
2019/03/09  01:38:01  BASE  1.21128  357  1.69344  14   -0.6  100   -0.6  0     0     977.9    NA       0.0000   9999     5450  0     0    
2019/03/09  01:39:00  BASE  0.92316  355  1.69344  14   -0.6  100   -0.6  0     0     977.9    NA       0.0000   9999     5380  0     0    
2019/03/09  01:40:01  BASE  0.32928  1    1.69344  14   -0.6  100   -0.6  0     0     977.9    NA       0.0000   9999     5410  0     0    
2019/03/09  01:41:00  BASE  0.147    5    1.69344  14   -0.6  100   -0.6  0     0     977.9    NA       0.0000   9999     6530  0     0    
2019/03/09  01:42:01  BASE  0.147    13   1.69344  14   -0.6  100   -0.6  0     0     977.9    NA       0.0000   9999     6560  0     0    
2019/03/09  01:43:00  BASE  0.02352  17   1.69344  14   -0.6  100   -0.6  0     0     977.9    NA       0.0000   9999     4560  9810  0    
2019/03/09  01:44:00  BASE  0.02352  13   1.69344  14   -0.6  100   -0.6  0     0     977.9    NA       0.0000   9999     4460  0     0    
2019/03/09  01:45:01  BASE  0        11   1.60524  352  -0.6  100   -0.6  0     0     977.9    NA       0.0000   9999     4460  0     0    
2019/03/09  01:46:00  BASE  0        6    1.60524  352  -0.6  100   -0.6  0     0     977.9    NA       0.0000   9999     4530  9840  0    
2019/03/09  01:47:00  BASE  0        17   1.29948  348  -0.6  100   -0.6  0     0     977.9    NA       0.0000   9999     4530  7120  0    
2019/03/09  01:48:00  BASE  0        20   1.1172   354  -0.6  100   -0.6  0     0     977.9    NA       0.0000   9999     4530  7120  0    
2019/03/09  01:49:01  BASE  0        358  0.81732  11   -0.6  100   -0.6  0     0     977.9    NA       0.0000   9999     4560  9780  0    
2019/03/09  01:50:01  BASE  0.25284  335  1.0584   331  -0.6  100   -0.6  0     0     977.9    NA       0.0000   9999     4530  0     0    
2019/03/09  01:51:00  BASE  0.68208  328  1.0584   331  -0.6  100   -0.6  0     0     977.9    NA       0.0000   9999     4360  0     0    
2019/03/09  01:52:00  BASE  0.95256  332  1.21128  335  -0.6  100   -0.6  0     0     977.9    NA       0.0000   9999     6560  0     0    
2019/03/09  01:53:01  BASE  1.1172   335  1.42296  332  -0.6  100   -0.6  0     0     977.9    NA       0.0000   9999     5910  9810  0    
2019/03/09  01:54:01  BASE  1.1466   332  1.45236  339  -0.6  100   -0.6  0     0     977.9    NA       0.0000   9999     4890  9910  0    
2019/03/09  01:55:00  BASE  1.14072  333  1.45236  339  -0.6  100   -0.6  0     0     977.9    NA       0.0000   9999     5870  0     0    
2019/03/09  01:56:01  BASE  1.1172   340  1.45236  339  -0.6  100   -0.6  0     0     977.9    NA       0.0000   9999     4460  9970  10790
2019/03/09  01:57:00  BASE  1.05252  345  1.45236  339  -0.6  100   -0.6  0     0     977.9    NA       0.0000   9999     4360  5840  0    
2019/03/09  01:58:00  BASE  1.01136  346  1.45236  339  -0.7  100   -0.7  0     0     977.9    NA       0.0000   9999     5740  0     0    
2019/03/09  01:59:00  BASE  0.9996   345  1.45236  339  -0.7  100   -0.7  0     0     977.9    NA       0.0000   9999     5770  0     0    
2019/03/09  02:00:00  BASE  1.03488  343  1.45236  339  -0.7  100   -0.7  0     0     977.8    NA       0.0000   9999     8010  0     0    
2019/03/09  02:01:00  BASE  1.01724  343  1.45236  339  -0.7  100   -0.7  0     0     977.8    NA       0.0000   9999     7970  0     0    
2019/03/09  02:02:00  BASE  0.98784  347  1.45236  339  -0.7  100   -0.7  0     0     977.8    NA       0.0000   9999     7810  0     0    
2019/03/09  02:03:00  BASE  0.92316  352  1.45236  339  -0.7  100   -0.7  0     0     977.8    NA       0.0000   9999     18830 0     0    
2019/03/09  02:04:01  BASE  0.81732  353  1.42296  347  -0.7  100   -0.7  0     0     977.8    NA       0.0000   9999     6890  0     0    
2019/03/09  02:05:01  BASE  0.52332  353  1.42296  347  -0.7  100   -0.7  0     0     977.8    NA       0.0000   9999     6760  0     0    
2019/03/09  02:06:00  BASE  0.13524  354  1.21128  349  -0.7  100   -0.7  0     0     977.8    NA       0.0000   9999     5840  0     0    
2019/03/09  02:07:00  BASE  0        354  1.18188  342  -0.7  100   -0.7  0     0     977.8    NA       0.0000   9999     5580  0     0    
2019/03/09  02:08:00  BASE  0        354  1.18188  342  -0.7  100   -0.7  0     0     977.8    NA       0.0000   9999     5410  0     0    
2019/03/09  02:09:01  BASE  0        357  1.0878   341  -0.7  100   -0.7  0     0     977.8    NA       0.0000   9999     4820  18770 0    
2019/03/09  02:10:01  BASE  0        2    1.029    351  -0.7  100   -0.7  0     0     977.8    NA       0.0000   9999     10930 18800 0    
2019/03/09  02:11:00  BASE  0        3    1.029    351  -0.7  100   -0.7  0     0     977.8    NA       0.0000   9999     4660  18770 0    
2019/03/09  02:12:00  BASE  0        3    0.9996   352  -0.7  100   -0.7  0     0     977.8    NA       0.0000   9999     18770 0     0    
2019/03/09  02:13:00  BASE  0        358  0.84672  355  -0.7  100   -0.7  0     0     977.8    NA       0.0000   9999     18730 0     0    
2019/03/09  02:14:00  BASE  0        353  0.69384  354  -0.7  100   -0.7  0     0     977.8    NA       0.0000   9999     4660  18540 0    
2019/03/09  02:15:00  BASE  0        348  0        M    -0.7  100   -0.7  0     0     977.8    NA       0.0000   9999     4660  11020 0    
2019/03/09  02:16:00  BASE  0.18228  343  0.81732  344  -0.7  100   -0.7  0     0     977.8    NA       0.0000   9999     4720  0     0    
2019/03/09  02:17:00  BASE  0.57624  346  0.84672  346  -0.7  100   -0.7  0     0     977.8    NA       0.0000   9999     4690  0     0    
2019/03/09  02:18:00  BASE  0.68796  358  0.84672  346  -0.7  100   -0.7  0     0     977.8    NA       0.0000   9999     4660  0     0    
2019/03/09  02:19:00  BASE  0.3234   15   0.84672  346  -0.7  100   -0.7  0     0     977.8    NA       0.0000   9999     4630  0     0    
2019/03/09  02:20:00  BASE  0.0294   29   0.84672  346  -0.7  100   -0.7  0     0     977.8    NA       0.0000   9999     4720  0     0    
2019/03/09  02:21:00  BASE  0        29   0.84672  346  -0.7  100   -0.7  0     0     977.8    NA       0.0000   9999     4760  0     0    
2019/03/09  02:22:00  BASE  0        7    0.84672  346  -0.7  100   -0.7  0     0     977.8    NA       0.0000   9999     4690  0     0    
2019/03/09  02:23:00  BASE  0        344  0.84672  346  -0.7  100   -0.7  0     0     977.8    NA       0.0000   9999     4660  0     0    
2019/03/09  02:24:00  BASE  0        339  0.84672  346  -0.7  100   -0.7  0     0     977.8    NA       0.0000   9999     4720  0     0    
2019/03/09  02:25:00  BASE  0.11172  339  0.84672  346  -0.7  100   -0.7  0     0     977.8    NA       0.0000   9999     4660  0     0    
2019/03/09  02:26:00  BASE  0.16464  342  0.84672  346  -0.7  100   -0.7  0     0     977.8    NA       0.0000   9999     4660  0     0    
2019/03/09  02:27:00  BASE  0.05292  347  0.78792  13   -0.7  100   -0.7  0     0     977.8    NA       0.0000   9999     4660  0     0    
2019/03/09  02:28:00  BASE  0        349  0.69384  343  -0.7  100   -0.7  0     0     977.8    NA       0.0000   9999     4630  0     0    
2019/03/09  02:29:00  BASE  0        343  0.69384  343  -0.7  100   -0.7  0     0     977.8    NA       0.0000   9999     4630  0     0    
2019/03/09  02:30:00  BASE  0.10584  338  0.69384  343  -0.7  100   -0.7  0     0     977.8    NA       0.0000   9999     4590  0     0    
2019/03/09  02:31:00  BASE  0.10584  334  0.69384  343  -0.7  100   -0.7  0     0     977.8    NA       0.0000   9999     4590  0     0    
2019/03/09  02:32:00  BASE  0        330  0.69384  343  -0.7  100   -0.7  0     0     977.8    NA       0.0000   9999     4590  0     0    
2019/03/09  02:33:00  BASE  0        329  0.69384  343  -0.7  100   -0.7  0     0     977.8    NA       0.0000   9999     4690  0     0    
2019/03/09  02:34:00  BASE  0        331  0.69384  343  -0.7  100   -0.7  0     0     977.8    NA       0.0000   9999     4490  0     0    
2019/03/09  02:35:00  BASE  0        331  0.66444  343  -0.7  100   -0.7  0     0     977.8    NA       0.0000   9999     4530  0     0    
2019/03/09  02:36:00  BASE  0        331  0.63504  336  -0.6  100   -0.6  0     0     977.8    NA       0.0000   9999     4590  0     0    
2019/03/09  02:37:00  BASE  0        333  0.63504  336  -0.6  100   -0.6  0     0     977.8    NA       0.0000   9999     4630  0     0    
2019/03/09  02:38:00  BASE  0        340  0.63504  336  -0.6  100   -0.6  0     0     977.8    NA       0.0000   9999     4630  0     0    
2019/03/09  02:39:00  BASE  0        16   0.63504  336  -0.6  100   -0.6  0     0     977.9    NA       0.0000   9999     4630  0     0    
2019/03/09  02:40:00  BASE  0        56   0        M    -0.6  100   -0.6  0     0     977.9    NA       0.0000   9999     4330  4720  0    
2019/03/09  02:41:00  BASE  0        61   0        M    -0.6  100   -0.6  0     0     977.9    NA       0.0000   9999     4660  0     0    
2019/03/09  02:42:00  BASE  0        61   0        M    -0.6  100   -0.6  0     0     977.9    NA       0.0000   9999     4690  0     0    
2019/03/09  02:43:00  BASE  0        61   0        M    -0.6  100   -0.6  0     0     977.8    NA       0.0000   9999     4720  0     0    
2019/03/09  02:44:00  BASE  0        61   0        M    -0.6  100   -0.6  0     0     977.8    NA       0.0000   9999     4720  0     0    
2019/03/09  02:45:00  BASE  0        61   0        M    -0.6  100   -0.6  0     0     977.8    NA       0.0000   9999     4720  0     0    
2019/03/09  02:46:00  BASE  0        61   0        M    -0.6  100   -0.6  0     0     977.8    NA       0.0000   9999     4660  0     0    
2019/03/09  02:47:00  BASE  0        61   0        M    -0.6  100   -0.6  0     0     977.8    NA       0.0000   9999     4760  0     0    
2019/03/09  02:48:00  BASE  0        61   0        M    -0.6  100   -0.6  0     0     977.8    NA       0.0000   9999     4660  0     0    
2019/03/09  02:49:00  BASE  0        61   0        M    -0.6  100   -0.6  0     0     977.8    NA       0.0000   9999     4560  0     0    
2019/03/09  02:50:00  BASE  0        61   0        M    -0.6  100   -0.6  0     0     977.8    NA       0.0000   9999     4630  0     0    
2019/03/09  02:51:00  BASE  0        61   0        M    -0.6  100   -0.6  0     0     977.8    NA       0.0000   9999     4630  0     0    
2019/03/09  02:52:00  BASE  0        61   0        M    -0.6  100   -0.6  0     0     977.8    NA       0.0000   9999     4560  0     0    
2019/03/09  02:53:00  BASE  0        61   0        M    -0.6  100   -0.6  0     0     977.8    NA       0.0000   9999     4590  0     0    
2019/03/09  02:54:00  BASE  0        31   0        M    -0.6  100   -0.6  0     0     977.8    NA       0.0000   9999     4660  0     0    
2019/03/09  02:55:00  BASE  0        343  0        M    -0.6  100   -0.6  0     0     977.8    NA       0.0000   9999     4560  0     0    
2019/03/09  02:56:00  BASE  0        334  0        M    -0.6  100   -0.6  0     0     977.8    NA       0.0000   9999     4630  0     0    
2019/03/09  02:57:00  BASE  0        334  0        M    -0.5  100   -0.5  0     0     977.8    NA       0.0000   9999     4530  0     0    
2019/03/09  02:58:00  BASE  0        334  0        M    -0.5  100   -0.5  0     0     977.8    NA       0.0000   9999     4490  0     0    
2019/03/09  02:59:00  BASE  0        334  0        M    -0.5  100   -0.5  0     0     977.8    NA       0.0000   9999     4330  0     0    
2019/03/09  03:00:00  BASE  0        334  0        M    -0.5  100   -0.5  0     0     977.8    NA       0.0000   9999     4200  0     0    
2019/03/09  03:01:01  BASE  0        333  0        M    -0.5  100   -0.5  0     0     977.8    NA       0.0000   9999     4230  0     0    
2019/03/09  03:02:00  BASE  0        337  0        M    -0.5  100   -0.5  0     0     977.9    NA       0.0000   9999     4100  0     0    
2019/03/09  03:03:00  BASE  0        346  0        M    -0.5  100   -0.5  0     0     977.9    NA       0.0000   9999     4200  0     0    
2019/03/09  03:04:00  BASE  0        350  0        M    -0.5  100   -0.5  0     0     977.9    NA       0.0000   9999     4040  0     0    
2019/03/09  03:05:00  BASE  0        356  0        M    -0.5  100   -0.5  0     0     977.9    NA       0.0000   9999     4270  0     0    
2019/03/09  03:06:00  BASE  0        8    0        M    -0.5  100   -0.5  0     0     977.9    NA       0.0000   9999     3970  0     0    
2019/03/09  03:07:00  BASE  0        22   0        M    -0.6  100   -0.6  0     0     977.9    NA       0.0000   9999     3900  0     0    
2019/03/09  03:08:00  BASE  0        30   0        M    -0.6  100   -0.6  0     0     977.9    NA       0.0000   9999     3870  0     0    
2019/03/09  03:09:00  BASE  0        31   0        M    -0.7  100   -0.7  0     0     977.9    NA       0.0000   9999     3840  0     0    
2019/03/09  03:10:00  BASE  0        32   0        M    -0.7  100   -0.7  0     0     977.9    NA       0.0000   9999     3770  0     0    
2019/03/09  03:11:00  BASE  0        41   0        M    -0.7  100   -0.7  0     0     977.9    NA       0.0000   9999     3670  0     0    
2019/03/09  03:12:00  BASE  0        50   0        M    -0.7  100   -0.7  0     0     977.9    NA       0.0000   9999     3670  0     0    
2019/03/09  03:13:00  BASE  0        51   0        M    -0.7  100   -0.7  0     0     977.9    NA       0.0000   9999     3670  0     0    
2019/03/09  03:14:00  BASE  0        52   0        M    -0.6  100   -0.6  0     0     977.9    NA       0.0000   9999     3640  0     0    
2019/03/09  03:15:00  BASE  0        51   0        M    -0.6  100   -0.6  0     0     977.9    NA       0.0000   9999     3640  0     0    
2019/03/09  03:16:00  BASE  0        51   0        M    -0.6  100   -0.6  0     0     977.9    NA       0.0000   9999     3670  0     0    
2019/03/09  03:17:00  BASE  0        55   0        M    -0.6  100   -0.6  0     0     977.9    NA       0.0000   9999     3670  0     0    
2019/03/09  03:18:00  BASE  0        55   0        M    -0.6  100   -0.6  0     0     977.9    NA       0.0000   9999     3670  0     0    
2019/03/09  03:19:00  BASE  0        49   0        M    -0.6  100   -0.6  0     0     977.9    NA       0.0000   9999     3670  0     0    
2019/03/09  03:20:00  BASE  0        38   0        M    -0.5  100   -0.5  0     0     977.9    NA       0.0000   9999     3740  0     0    
2019/03/09  03:21:00  BASE  0        27   0        M    -0.5  100   -0.5  0     0     977.9    NA       0.0000   9999     3710  0     0    
2019/03/09  03:22:00  BASE  0        23   0        M    -0.5  100   -0.5  0     0     977.9    NA       0.0000   9999     3670  0     0    
2019/03/09  03:23:00  BASE  0        29   0        M    -0.5  100   -0.5  0     0     977.9    NA       0.0000   9999     3770  0     0    
2019/03/09  03:24:00  BASE  0.02352  36   0.60564  37   -0.4  100   -0.4  0     0     977.9    NA       0.0000   9999     3670  0     0    
2019/03/09  03:25:00  BASE  0.294    35   0.69384  29   -0.4  100   -0.4  0     0     977.9    NA       0.0000   9999     3670  0     0    
2019/03/09  03:26:00  BASE  0.37632  29   0.69384  29   -0.4  100   -0.4  0     0     978.0    NA       0.0000   9999     3670  0     0    
2019/03/09  03:27:00  BASE  0.10584  22   0.69384  29   -0.4  100   -0.4  0     0     978.0    NA       0.0000   9999     3670  0     0    
2019/03/09  03:28:00  BASE  0        19   0.69384  29   -0.4  100   -0.4  0     0     978.1    NA       0.0000   9999     3710  0     0    
2019/03/09  03:29:00  BASE  0.09996  19   0.69384  29   -0.4  100   -0.4  0     0     978.0    NA       0.0000   9999     3710  0     0    
2019/03/09  03:30:00  BASE  0.33516  20   0.69384  29   -0.4  100   -0.4  0     0     978.1    NA       0.0000   9999     3710  0     0    
2019/03/09  03:31:00  BASE  0.2352   23   0.69384  29   -0.5  100   -0.5  0     0     978.1    NA       0.0000   9999     3710  0     0    
2019/03/09  03:32:00  BASE  0        25   0.69384  29   -0.5  100   -0.5  0     0     978.0    NA       0.0000   9999     3710  0     0    
2019/03/09  03:33:00  BASE  0.07644  27   0.69384  29   -0.5  100   -0.5  0     0     978.0    NA       0.0000   9999     3740  0     0    
2019/03/09  03:34:00  BASE  0.4116   28   0.75852  28   -0.5  100   -0.5  0     0     978.1    NA       0.0000   9999     3770  0     0    
2019/03/09  03:35:00  BASE  0.74676  28   0.87612  28   -0.5  100   -0.5  0     0     978.1    NA       0.0000   9999     3810  0     0    
2019/03/09  03:36:00  BASE  0.8526   29   0.90552  28   -0.5  100   -0.5  0     0     978.1    NA       0.0000   9999     3810  0     0    
2019/03/09  03:37:00  BASE  0.882    28   0.90552  25   -0.5  100   -0.5  0     0     978.1    NA       0.0000   9999     3810  0     0    
2019/03/09  03:38:00  BASE  0.84084  25   0.90552  25   -0.5  100   -0.5  0     0     978.1    NA       0.0000   9999     3770  0     0    
2019/03/09  03:39:00  BASE  0.74088  22   0.90552  25   -0.5  100   -0.5  0     0     978.1    NA       0.0000   9999     3810  0     0    
2019/03/09  03:40:00  BASE  0.588    15   0.90552  25   -0.5  100   -0.5  0     0     978.1    NA       0.0000   9999     3840  0     0    
2019/03/09  03:41:00  BASE  0.3528   8    0.90552  25   -0.5  100   -0.5  0     0     978.1    NA       0.0000   9999     3840  0     0    
2019/03/09  03:42:00  BASE  0.2058   1    0.90552  25   -0.5  100   -0.5  0     0     978.1    NA       0.0000   9999     3840  0     0    
2019/03/09  03:43:00  BASE  0.12936  351  0.90552  25   -0.5  100   -0.5  0     0     978.1    NA       0.0000   9999     3840  0     0    
2019/03/09  03:44:01  BASE  0.02352  345  0.90552  25   -0.5  100   -0.5  0     0     978.1    NA       0.0000   9999     3870  0     0    
2019/03/09  03:45:00  BASE  0        346  0.90552  25   -0.5  100   -0.5  0     0     978.1    NA       0.0000   9999     3940  0     0    
2019/03/09  03:46:00  BASE  0.07644  353  0.90552  25   -0.5  100   -0.5  0     0     978.1    NA       0.0000   9999     4170  0     0    
2019/03/09  03:47:00  BASE  0.07644  354  0.84672  25   -0.5  100   -0.5  0     0     978.1    NA       0.0000   9999     0     0     0    
2019/03/09  03:48:01  BASE  0        348  0.78792  24   -0.5  100   -0.5  0     0     978.1    NA       0.0000   9999     3900  0     0    
2019/03/09  03:49:00  BASE  0.05292  349  0.75852  12   -0.5  100   -0.5  0     0     978.1    NA       0.0000   9999     3740  0     0    
2019/03/09  03:50:00  BASE  0.18228  355  0.66444  354  -0.5  100   -0.5  0     0     978.1    NA       0.0000   9999     0     0     0    
2019/03/09  03:51:00  BASE  0.37632  1    0.69384  1    -0.5  100   -0.5  0     0     978.1    NA       0.0000   9999     0     0     0    
2019/03/09  03:52:00  BASE  0.48804  1    0.69384  1    -0.5  100   -0.5  0     0     978.2    NA       0.0000   9999     4430  0     0    
2019/03/09  03:53:00  BASE  0.3234   360  0.69384  1    -0.5  100   -0.5  0     0     978.1    NA       0.0000   9999     4490  0     0    
2019/03/09  03:54:00  BASE  0.07644  349  0.69384  1    -0.5  100   -0.5  0     0     978.1    NA       0.0000   9999     4130  0     0    
2019/03/09  03:55:00  BASE  0        345  0.69384  1    -0.5  100   -0.5  0     0     978.1    NA       0.0000   9999     0     0     0    
2019/03/09  03:56:00  BASE  0        344  0.69384  1    -0.5  100   -0.5  0     0     978.1    NA       0.0000   9999     0     0     0    
2019/03/09  03:57:00  BASE  0        346  0.69384  1    -0.5  100   -0.5  0     0     978.1    NA       0.0000   9999     0     0     0    
2019/03/09  03:58:00  BASE  0.07644  354  0.69384  1    -0.5  100   -0.5  0     0     978.1    NA       0.0000   9999     4230  0     0    
2019/03/09  03:59:00  BASE  0.07644  358  0.69384  1    -0.4  100   -0.4  0     0     978.1    NA       0.0000   9999     0     0     0    
2019/03/09  04:00:00  BASE  0.05292  1    0.69384  1    -0.4  100   -0.4  0     0     978.1    NA       0.0000   9999     0     0     0    
2019/03/09  04:01:00  BASE  0.28812  359  0.69384  2    -0.4  100   -0.4  0     0     978.2    NA       0.0000   UP       9999  0     0    
2019/03/09  04:02:00  BASE  0.53508  358  0.81732  360  -0.4  100   -0.4  0     0     978.2    NA       0.0000   UP       9999  0     0    
2019/03/09  04:03:00  BASE  0.65856  1    0.84672  11   -0.4  100   -0.4  0     0     978.2    NA       0.0000   UP       9999  0     0    
2019/03/09  04:04:00  BASE  0.81732  1    0.9996   352  -0.4  100   -0.4  0     0     978.2    NA       0.0000   UP       9999  4490  0    
2019/03/09  04:05:00  BASE  0.89376  357  0.9996   352  -0.4  100   -0.4  0     0     978.2    NA       0.0000   UP       9999  0     0    
2019/03/09  04:06:00  BASE  0.87024  358  0.9996   352  -0.4  100   -0.4  0     0     978.2    NA       0.0000   UP       9999  0     0    
2019/03/09  04:07:01  BASE  0.8232   1    0.9996   352  -0.4  100   -0.4  0     0     M        NA       0.0000   UP       M     0     0    
2019/03/09  04:08:01  BASE  0.67032  3    0.9996   352  -0.4  100   -0.4  0     0     978.2    NA       0.0000   UP       9999  0     0    
2019/03/09  04:09:01  BASE  0.72912  360  0.9996   352  -0.4  100   -0.4  0     0     978.2    NA       0.0000   UP       9999  0     0    
2019/03/09  04:10:01  BASE  0.84084  358  0.9996   352  -0.4  100   -0.4  0     0     978.2    NA       0.0000   UP       9999  0     0    
2019/03/09  04:11:00  BASE  0.80556  359  0.9996   352  -0.5  100   -0.5  0     0     978.2    NA       0.0000   UP       9999  0     0    
2019/03/09  04:12:00  BASE  0.7938   8    0.9996   352  -0.5  100   -0.5  0     0     978.2    NA       0.0000   UP       9999  0     0    
2019/03/09  04:13:00  BASE  0.81144  15   0.9996   352  -0.5  100   -0.5  0     0     978.2    NA       0.0000   UP       9999  0     0    
2019/03/09  04:14:00  BASE  0.82908  18   0.9996   352  -0.5  100   -0.5  0     0     978.2    NA       0.0000   UP       9999  0     0    
2019/03/09  04:15:00  BASE  0.7938   20   0.9702   20   -0.5  100   -0.5  0     0     978.2    NA       0.0000   UP       9999  0     0    
2019/03/09  04:16:00  BASE  0.7056   23   0.9702   20   -0.5  100   -0.5  0     0     978.3    NA       0.0000   UP       8000  0     0    
2019/03/09  04:17:00  BASE  0.62916  19   0.9702   20   -0.5  100   -0.5  0     0     978.3    NA       0.0000   UP       9999  0     0    
2019/03/09  04:18:00  BASE  0.37044  21   0.9702   20   -0.5  100   -0.5  0     0     978.3    NA       0.0000   UP       BR    7000  0    
2019/03/09  04:19:00  BASE  0.12936  24   0.9702   20   -0.5  100   -0.5  0     0     978.3    NA       0.0000   UP       BR    9000  0    
2019/03/09  04:20:01  BASE  0.18228  24   0.9702   20   -0.5  100   -0.5  0     0     978.3    NA       0.0000   UP       BR    9000  0    
2019/03/09  04:21:00  BASE  0.15288  34   0.9702   20   -0.6  100   -0.6  0     0     978.3    NA       0.0000   UP       BR    8000  0    
2019/03/09  04:22:00  BASE  0.24108  42   0.9702   20   -0.6  100   -0.6  0     0     978.3    NA       0.0000   UP       BR    6000  0    
2019/03/09  04:23:00  BASE  0.3528   42   0.9702   20   -0.6  100   -0.6  0     0     978.3    NA       0.0000   UP       BR    6000  0    
2019/03/09  04:24:00  BASE  0.29988  47   0.84672  31   -0.6  100   -0.6  0     0     978.3    NA       0.0000   -SN      BR    7000  0    
2019/03/09  04:25:01  BASE  0.43512  56   0.81732  31   -0.6  100   -0.6  0     0     978.3    NA       0.0000   -SN      BR    7000  0    
2019/03/09  04:26:00  BASE  0.56448  61   0.75852  58   -0.6  100   -0.6  0     0     978.3    NA       0.0000   -SN      BR    6000  0    
2019/03/09  04:27:00  BASE  0.27048  61   0.75852  58   -0.6  100   -0.6  0     0     978.3    NA       0.0000   -SN      BR    6000  0    
2019/03/09  04:28:00  BASE  0        58   0.75852  58   -0.6  100   -0.6  0     0     978.3    NA       0.0000   -SN      BR    6000  0    
2019/03/09  04:29:01  BASE  0        54   0.75852  58   -0.6  100   -0.6  0     0     978.3    NA       0.0000   -SN      BR    5000  0    
2019/03/09  04:30:01  BASE  0        43   0.75852  58   -0.6  100   -0.6  0     0     978.3    NA       0.0000   -SN      BR    7000  0    
2019/03/09  04:31:00  BASE  0.15876  32   0.75852  58   -0.6  100   -0.6  0     0     978.3    NA       0.0000   -SN      BR    8000  0    
2019/03/09  04:32:00  BASE  0.42336  31   0.75852  58   -0.6  100   -0.6  0     0     978.3    NA       0.0000   -SN      BR    7000  0    
2019/03/09  04:33:00  BASE  0.38808  37   0.75852  58   -0.6  100   -0.6  0     0     978.3    NA       0.0000   -SN      BR    7000  0    
2019/03/09  04:34:00  BASE  0.12936  44   0.69384  38   -0.6  100   -0.6  0     0     978.3    NA       0.0000   -SN      BR    9999  0    
2019/03/09  04:35:00  BASE  0        50   0.69384  38   -0.6  100   -0.6  0     0     978.3    NA       0.0000   -SN      BR    9000  0    
2019/03/09  04:36:01  BASE  0        53   0.69384  38   -0.6  100   -0.6  0     0     978.3    NA       0.0000   -SN      BR    9999  0    
2019/03/09  04:37:00  BASE  0        54   0.69384  38   -0.5  100   -0.5  0     0     978.3    NA       0.0000   -SN      BR    9999  0    
2019/03/09  04:38:01  BASE  0        44   0.69384  38   -0.5  100   -0.5  0     0     978.3    NA       0.0000   -SN      BR    9999  0    
2019/03/09  04:39:00  BASE  0        23   0.69384  38   -0.5  100   -0.5  0     0     978.3    NA       0.0000   -SN      BR    9999  0    
2019/03/09  04:40:00  BASE  0        4    0.69384  38   -0.5  100   -0.5  0     0     978.3    NA       0.0000   -SN      BR    9999  0    
2019/03/09  04:41:00  BASE  0        357  0.69384  38   -0.5  100   -0.5  0     0     978.3    NA       0.0000   -SN      9999  0     0    
2019/03/09  04:42:00  BASE  0        360  0.63504  41   -0.5  100   -0.5  0     0     978.3    NA       0.0000   -SN      9999  0     0    
2019/03/09  04:43:00  BASE  0        8    0        M    -0.5  100   -0.5  0     0     978.3    NA       0.0000   -SN      9999  0     0    
2019/03/09  04:44:00  BASE  0        27   0        M    -0.5  100   -0.5  0     0     978.3    NA       0.0000   -SN      9999  0     0    
2019/03/09  04:45:00  BASE  0        43   0        M    -0.5  100   -0.5  0     0     978.3    NA       0.0000   -SN      9999  0     0    
2019/03/09  04:46:00  BASE  0        48   0        M    -0.5  100   -0.5  0     0     978.4    NA       0.0000   -SN      9999  0     0    
2019/03/09  04:47:00  BASE  0        63   0        M    -0.5  100   -0.5  0     0     978.4    NA       0.0000   -SN      9999  7740  0    
2019/03/09  04:48:00  BASE  0        88   0        M    -0.5  100   -0.5  0     0     978.4    NA       0.0000   -SN      9999  0     0    
2019/03/09  04:49:00  BASE  0.11172  110  0.72324  126  -0.5  100   -0.5  0     0     978.4    NA       0.0000   -SN      9999  7710  0    
2019/03/09  04:50:00  BASE  0.11172  133  0.72324  126  -0.5  100   -0.5  0     0     978.4    NA       0.0000   -SN      9999  7680  0    
2019/03/09  04:51:00  BASE  0.08232  149  0.72324  152  -0.5  100   -0.5  0     0     978.4    NA       0.0000   -SN      9999  7640  0    
2019/03/09  04:52:00  BASE  0.42924  152  0.84672  150  -0.5  100   -0.5  0     0     978.4    NA       0.0000   -SN      9999  7550  0    
2019/03/09  04:53:00  BASE  0.37044  157  0.84672  150  -0.5  100   -0.5  0     0     978.4    NA       0.0000   -SN      9999  7610  0    
2019/03/09  04:54:00  BASE  0.02352  160  0.84672  150  -0.5  100   -0.5  0     0     978.4    NA       0.0000   -SN      9999  7610  0    
2019/03/09  04:55:00  BASE  0        156  0.84672  150  -0.5  100   -0.5  0     0     978.4    NA       0.0000   -SN      9000  7640  0    
2019/03/09  04:56:00  BASE  0.05292  152  0.84672  150  -0.5  100   -0.5  0     0     978.4    NA       0.0000   -SN      9999  0     0    
2019/03/09  04:57:00  BASE  0.05292  146  0.84672  150  -0.5  100   -0.5  0     0     978.4    NA       0.0000   -SN      9999  490   0    
2019/03/09  04:58:00  BASE  0        148  0.84672  150  -0.5  100   -0.5  0     0     978.4    NA       0.0000   -SN      9999  0     0    
2019/03/09  04:59:00  BASE  0        149  0.84672  150  -0.5  100   -0.5  0     0     978.4    NA       0.0000   -SN      9999  0     0    
2019/03/09  05:00:00  BASE  0        148  0.84672  150  -0.6  100   -0.6  0     0     978.4    NA       0.0000   -SN      9999  0     0    
2019/03/09  05:01:00  BASE  0        156  0.84672  150  -0.6  100   -0.6  0     0     978.4    NA       0.0000   -SN      9999  6230  0    
2019/03/09  05:02:00  BASE  0        161  0.66444  154  -0.6  100   -0.6  0     0     978.4    NA       0.0000   -SN      9999  0     0    
2019/03/09  05:03:00  BASE  0        160  0.66444  154  -0.6  100   -0.6  0     0     978.4    NA       0.0000   -SN      9999  0     0    
2019/03/09  05:04:00  BASE  0        159  0.66444  154  -0.6  100   -0.6  0     0     978.4    NA       0.0000   -SN      9999  0     0    
2019/03/09  05:05:00  BASE  0.11172  162  0.69384  167  -0.6  100   -0.6  0     0     978.4    NA       0.0000   -SN      9999  0     0    
2019/03/09  05:06:00  BASE  0.49392  164  0.81732  167  -0.6  100   -0.6  0     0     978.4    NA       0.0000   -SN      9999  0     0    
2019/03/09  05:07:00  BASE  0.77616  165  0.90552  167  -0.6  100   -0.6  0     0     978.4    NA       0.0000   -SN      9999  0     0    
2019/03/09  05:08:00  BASE  0.7056   164  0.90552  167  -0.6  100   -0.6  0     0     978.4    NA       0.0000   9999     0     0     0    
2019/03/09  05:09:00  BASE  0.441    161  0.90552  167  -0.6  100   -0.6  0     0     978.4    NA       0.0000   9999     2950  0     0    
2019/03/09  05:10:00  BASE  0.12936  163  0.90552  167  -0.7  100   -0.7  0     0     978.4    NA       0.0000   9999     0     0     0    
2019/03/09  05:11:00  BASE  0        162  0.90552  167  -0.7  100   -0.7  0     0     978.4    NA       0.0000   9999     0     0     0    
2019/03/09  05:12:00  BASE  0        156  0.90552  167  -0.7  100   -0.7  0     0     978.4    NA       0.0000   9999     0     0     0    
2019/03/09  05:13:00  BASE  0        148  0.90552  167  -0.7  100   -0.7  0     0     978.4    NA       0.0000   9999     0     0     0    
2019/03/09  05:14:00  BASE  0.08232  146  0.90552  167  -0.8  100   -0.8  0     0     978.4    NA       0.0000   9999     0     0     0    
2019/03/09  05:15:00  BASE  0.45276  147  0.90552  167  -0.8  100   -0.8  0     0     978.4    NA       0.0000   9999     3120  4950  0    
2019/03/09  05:16:00  BASE  0.8232   143  0.9702   140  -0.8  100   -0.8  0     0     978.4    NA       0.0000   9999     0     0     0    
2019/03/09  05:17:00  BASE  0.93492  140  1.029    142  -0.9  100   -0.9  0     0     978.3    NA       0.0000   9999     4890  6860  0    
2019/03/09  05:18:00  BASE  0.84084  143  1.029    139  -0.9  100   -0.9  0     0     978.3    NA       0.0000   9999     5350  0     0    
2019/03/09  05:19:00  BASE  0.42336  146  1.029    139  -0.9  100   -0.9  0     0     978.3    NA       0.0000   9999     5380  0     0    
2019/03/09  05:20:00  BASE  0.05292  136  1.029    139  -0.8  100   -0.8  0     0     978.3    NA       0.0000   9999     0     0     0    
2019/03/09  05:21:00  BASE  0        119  1.029    139  -0.8  100   -0.8  0     0     978.3    NA       0.0000   9999     0     0     0    
2019/03/09  05:22:00  BASE  0        104  1.029    139  -0.7  100   -0.7  0     0     978.3    NA       0.0000   9999     6460  0     0    
2019/03/09  05:23:00  BASE  0.24108  93   1.029    139  -0.7  100   -0.7  0     0     978.3    NA       0.0000   9999     6530  0     0    
2019/03/09  05:24:00  BASE  0.52332  93   1.029    139  -0.6  100   -0.6  0     0     978.3    NA       0.0000   9999     0     0     0    
2019/03/09  05:25:00  BASE  0.4116   99   1.029    139  -0.6  100   -0.6  0     0     978.3    NA       0.0000   9999     0     0     0    
2019/03/09  05:26:00  BASE  0.41748  102  1.029    139  -0.6  100   -0.6  0     0     978.3    NA       0.0000   9999     0     0     0    
2019/03/09  05:27:00  BASE  0.54684  99   1.029    139  -0.7  100   -0.7  0     0     978.3    NA       0.0000   9999     4300  0     0    
2019/03/09  05:28:00  BASE  0.49392  91   0.75852  95   -0.7  100   -0.7  0     0     978.3    NA       0.0000   9999     3350  0     0    
2019/03/09  05:29:00  BASE  0.51156  82   0.90552  70   -0.8  100   -0.8  0     0     978.3    NA       0.0000   9999     3280  0     0    
2019/03/09  05:30:00  BASE  0.7938   80   1.21128  100  -0.8  100   -0.8  0     0     978.3    NA       0.0000   9999     3220  0     0    
2019/03/09  05:31:00  BASE  0.83496  81   1.21128  100  -0.8  100   -0.8  0     0     978.3    NA       0.0000   9999     0     0     0    
2019/03/09  05:32:00  BASE  0.81732  85   1.32888  93   -0.7  100   -0.7  0     0     978.3    NA       0.0000   9999     3020  0     0    
2019/03/09  05:33:00  BASE  0.9996   89   1.32888  93   -0.7  100   -0.7  0     0     978.3    NA       0.0000   9999     2990  0     0    
2019/03/09  05:34:00  BASE  1.029    82   1.42296  54   -0.6  100   -0.6  0     0     978.3    NA       0.0000   9999     0     0     0    
2019/03/09  05:35:00  BASE  1.08192  76   1.42296  54   -0.5  100   -0.5  0     0     978.3    NA       0.0000   9999     0     0     0    
2019/03/09  05:36:01  BASE  0.97608  75   1.42296  54   -0.4  100   -0.4  0     0     978.3    NA       0.0000   9999     3150  0     0    
2019/03/09  05:37:00  BASE  0.93492  73   1.42296  54   -0.4  100   -0.4  0     0     978.3    NA       0.0000   9999     2990  0     0    
2019/03/09  05:38:00  BASE  0.9114   69   1.42296  54   -0.4  100   -0.4  0     0     978.3    NA       0.0000   9999     0     0     0    
2019/03/09  05:39:00  BASE  0.88788  62   1.42296  54   -0.3  100   -0.3  0     0     978.3    NA       0.0000   9999     2850  0     0    
2019/03/09  05:40:00  BASE  1.08192  63   1.42296  54   -0.3  100   -0.3  0     0     978.3    NA       0.0000   9999     1970  0     0    
2019/03/09  05:41:00  BASE  1.12308  70   1.42296  54   -0.3  100   -0.3  0     0     978.3    NA       0.0000   9999     0     0     0    
2019/03/09  05:42:00  BASE  1.13484  73   1.45236  82   -0.3  100   -0.3  0     0     978.3    NA       0.0000   9999     0     0     0    
2019/03/09  05:43:00  BASE  1.18188  79   1.45236  82   -0.4  100   -0.4  0     0     978.3    NA       0.0000   9999     0     0     0    
2019/03/09  05:44:00  BASE  1.14072  84   1.45236  82   -0.4  100   -0.4  0     0     978.3    NA       0.0000   9999     0     0     0    
2019/03/09  05:45:00  BASE  1.25832  85   1.48176  87   -0.3  100   -0.3  0     0     978.3    NA       0.0000   9999     0     0     0    
2019/03/09  05:46:00  BASE  1.323    92   1.48176  87   -0.3  100   -0.3  0     0     978.3    NA       0.0000   9999     0     0     0    
2019/03/09  05:47:00  BASE  1.09956  99   1.48176  87   -0.3  100   -0.3  0     0     978.3    NA       0.0000   9999     0     0     0    
2019/03/09  05:48:00  BASE  0.71736  108  1.48176  87   -0.2  100   -0.2  0     0     978.3    NA       0.0000   9999     0     0     0    
2019/03/09  05:49:00  BASE  0.45276  109  1.48176  87   -0.2  100   -0.2  0     0     978.3    NA       0.0000   9999     0     0     0    
2019/03/09  05:50:00  BASE  0.30576  67   1.48176  87   -0.2  100   -0.2  0     0     978.3    NA       0.0000   9999     0     0     0    
2019/03/09  05:51:00  BASE  0.28224  17   1.48176  87   -0.3  100   -0.3  0     0     978.3    NA       0.0000   9999     0     0     0    
2019/03/09  05:52:00  BASE  0.16464  30   1.48176  87   -0.3  100   -0.3  0     0     978.3    NA       0.0000   9999     0     0     0    
2019/03/09  05:53:00  BASE  0        45   1.48176  87   -0.4  100   -0.4  0     0     978.3    NA       0.0000   9999     0     0     0    
2019/03/09  05:54:00  BASE  0        36   1.48176  87   -0.5  100   -0.5  0     0     978.3    NA       0.0000   9999     0     0     0    
2019/03/09  05:55:00  BASE  0        36   1.39356  113  -0.6  100   -0.6  0     0     978.3    NA       0.0000   9999     0     0     0    
2019/03/09  05:56:00  BASE  0        36   1.32888  105  -0.6  100   -0.6  0     0     978.3    NA       0.0000   9999     0     0     0    
2019/03/09  05:57:00  BASE  0        28   0.84672  2    -0.6  100   -0.6  0     0     978.2    NA       0.0000   9999     0     0     0    
2019/03/09  05:58:00  BASE  0        24   0.84672  2    -0.7  100   -0.7  0     0     978.2    NA       0.0000   9999     0     0     0    
2019/03/09  05:59:00  BASE  0        25   0.84672  2    -0.7  100   -0.7  0     0     978.2    NA       0.0000   9999     0     0     0    
2019/03/09  06:00:00  BASE  0        27   0.84672  2    -0.6  100   -0.6  0     0     978.2    NA       0.0000   UP       9999  0     0    
2019/03/09  06:01:00  BASE  0        27   0        M    -0.6  100   -0.6  0     0     978.2    NA       0.0000   UP       9999  0     0    
2019/03/09  06:02:00  BASE  0        27   0        M    -0.6  100   -0.6  0     0     978.2    NA       0.0000   UP       9999  0     0    
2019/03/09  06:03:00  BASE  0.18816  27   0.69384  27   -0.6  100   -0.6  0     0     978.2    NA       0.0000   UP       9999  0     0    
2019/03/09  06:04:00  BASE  0.4998   26   0.69384  27   -0.6  100   -0.6  0     0     978.2    NA       0.0000   UP       9999  0     0    
2019/03/09  06:05:00  BASE  0.6174   24   0.72324  23   -0.6  100   -0.6  0     0     978.2    NA       0.0000   UP       9999  0     0    
2019/03/09  06:06:00  BASE  0.52332  20   0.72324  23   -0.7  100   -0.7  0     0     978.2    NA       0.0000   UP       9999  0     0    
2019/03/09  06:07:00  BASE  0.21756  19   0.72324  23   -0.7  100   -0.7  0     0     978.2    NA       0.0000   UP       9999  0     0    
2019/03/09  06:08:00  BASE  0        20   0.72324  23   -0.7  100   -0.7  0     0     978.2    NA       0.0000   UP       9999  0     0    
2019/03/09  06:09:00  BASE  0        26   0.72324  23   -0.7  100   -0.7  0     0     978.2    NA       0.0000   9999     0     0     0    
2019/03/09  06:10:00  BASE  0        53   0.72324  23   -0.7  100   -0.7  0     0     978.2    NA       0.0000   9999     0     0     0    
2019/03/09  06:11:00  BASE  0.05292  108  0.72324  23   -0.7  100   -0.7  0     0     978.2    NA       0.0000   9999     0     0     0    
2019/03/09  06:12:00  BASE  0.45276  149  0.90552  161  -0.7  100   -0.7  0     0     978.2    NA       0.0000   9999     0     0     0    
2019/03/09  06:13:00  BASE  0.86436  157  1.1172   151  -0.8  100   -0.8  0     0     978.2    NA       0.0000   9999     0     0     0    
2019/03/09  06:14:00  BASE  0.91728  150  1.1172   151  -0.8  100   -0.8  0     0     978.2    NA       0.0000   9999     0     0     0    
2019/03/09  06:15:00  BASE  0.82908  139  1.1172   151  -0.8  100   -0.8  0     0     978.2    NA       0.0000   9999     0     0     0    
2019/03/09  06:16:00  BASE  0.95256  136  1.24068  141  -0.9  100   -0.9  0     0     978.2    NA       0.0000   9999     0     0     0    
2019/03/09  06:17:00  BASE  1.19952  139  1.35828  134  -0.9  100   -0.9  0     0     978.2    NA       0.0000   9999     0     0     0    
2019/03/09  06:18:00  BASE  1.2642   145  1.42296  155  -0.9  100   -0.9  0     0     978.2    NA       0.0000   9999     0     0     0    
2019/03/09  06:19:00  BASE  1.3524   152  1.57584  157  -0.9  100   -0.9  0     0     978.2    NA       0.0000   9999     0     0     0    
2019/03/09  06:20:00  BASE  1.49352  157  1.66404  155  -0.9  100   -0.9  0     0     978.2    NA       0.0000   9999     0     0     0    
2019/03/09  06:21:00  BASE  1.43472  159  1.66404  155  -0.9  100   -0.9  0     0     978.2    NA       0.0000   9999     0     0     0    
2019/03/09  06:22:00  BASE  1.2054   161  1.66404  155  -0.8  100   -0.8  0     0     978.2    NA       0.0000   9999     0     0     0    
2019/03/09  06:23:00  BASE  0.60564  161  1.66404  155  -0.8  100   -0.8  0     0     978.2    NA       0.0000   9999     0     0     0    
2019/03/09  06:24:00  BASE  0.05292  160  1.66404  155  -0.8  100   -0.8  0     0     978.2    NA       0.0000   9999     0     0     0    
2019/03/09  06:25:00  BASE  0        160  1.66404  155  -0.8  100   -0.8  0     0     978.2    NA       0.0000   9999     0     0     0    
2019/03/09  06:26:00  BASE  0        167  1.66404  155  -0.7  100   -0.7  0     0     978.3    NA       0.0000   9999     0     0     0    
2019/03/09  06:27:00  BASE  0        197  1.66404  155  -0.7  100   -0.7  0     0     978.3    NA       0.0000   9999     0     0     0    
2019/03/09  06:28:00  BASE  0        242  1.66404  155  -0.7  100   -0.7  0     0     978.3    NA       0.0000   9999     0     0     0    
2019/03/09  06:29:00  BASE  0.0588   264  1.66404  155  -0.7  100   -0.7  0     0     978.3    NA       0.0000   9999     0     0     0    
2019/03/09  06:30:00  BASE  0.42924  273  1.51116  161  -0.8  100   -0.8  0     0     978.3    NA       0.0000   9999     0     0     0    
2019/03/09  06:31:00  BASE  0.7644   289  1.27008  162  -0.8  100   -0.8  0     0     978.3    NA       0.0000   9999     2920  0     0    
2019/03/09  06:32:00  BASE  0.882    297  1.29948  301  -0.8  100   -0.8  0     0     978.3    NA       0.0000   9999     0     0     0    
2019/03/09  06:33:00  BASE  1.09956  300  1.29948  304  -0.8  100   -0.8  0     0     978.3    NA       0.0000   9999     2790  0     0    
2019/03/09  06:34:00  BASE  1.15836  302  1.29948  304  -0.8  100   -0.8  0     0     978.3    NA       0.0000   9999     2850  0     0    
2019/03/09  06:35:00  BASE  0.96432  297  1.29948  304  -0.8  100   -0.8  0     0     978.3    NA       0.0000   9999     2720  0     0    
2019/03/09  06:36:00  BASE  0.84672  284  1.29948  304  -0.8  100   -0.8  0     0     978.3    NA       0.0000   9999     2820  0     0    
2019/03/09  06:37:00  BASE  0.99372  271  1.29948  304  -0.8  100   -0.8  0     0     978.3    NA       0.0000   9999     3220  0     0    
2019/03/09  06:38:00  BASE  1.10544  277  1.29948  292  -0.8  100   -0.8  0     0     978.3    NA       0.0000   9999     2790  3280  0    
2019/03/09  06:39:00  BASE  0.96432  289  1.29948  292  -0.8  100   -0.8  0     0     978.4    NA       0.0000   9999     3250  0     0    
2019/03/09  06:40:00  BASE  0.87024  287  1.29948  292  -0.8  100   -0.8  0     0     978.4    NA       0.0000   9999     3080  0     0    
2019/03/09  06:41:00  BASE  0.8526   266  1.29948  292  -0.8  100   -0.8  0     0     978.4    NA       0.0000   9999     3150  0     0    
2019/03/09  06:42:00  BASE  0.5586   239  1.29948  292  -0.8  100   -0.8  0     0     978.4    NA       0.0000   9999     3050  3480  3940 
2019/03/09  06:43:00  BASE  0.49392  242  1.29948  292  -0.8  100   -0.8  0     0     978.4    NA       0.0000   9999     2790  3870  0    
2019/03/09  06:44:00  BASE  0.7644   270  1.29948  292  -0.8  100   -0.8  0     0     978.4    NA       0.0000   9999     3020  3900  0    
2019/03/09  06:45:00  BASE  0.6762   290  1.29948  292  -0.8  100   -0.8  0     0     978.4    NA       0.0000   9999     2990  3900  0    
2019/03/09  06:46:00  BASE  0.41748  279  1.29948  292  -0.8  100   -0.8  0     0     978.4    NA       0.0000   9999     2990  0     0    
2019/03/09  06:47:00  BASE  0.15876  261  1.29948  292  -0.8  100   -0.8  0     0     978.4    NA       0.0000   9999     3050  0     0    
2019/03/09  06:48:00  BASE  0        253  1.18188  281  -0.8  100   -0.8  0     0     978.4    NA       0.0000   9999     2850  0     0    
2019/03/09  06:49:00  BASE  0.05292  241  1.18188  281  -0.8  100   -0.8  0     0     978.5    NA       0.0000   9999     2850  0     0    
2019/03/09  06:50:00  BASE  0.15288  247  1.0584   285  -0.8  100   -0.8  0     0     978.5    NA       0.0000   9999     3120  4070  0    
2019/03/09  06:51:00  BASE  0.24696  265  1.0584   285  -0.7  100   -0.7  0     0     978.5    NA       0.0000   9999     3050  4100  0    
2019/03/09  06:52:00  BASE  0.28224  275  1.0584   285  -0.7  100   -0.7  0     0     978.5    NA       0.0000   9999     3150  4130  0    
2019/03/09  06:53:00  BASE  0.16464  288  1.0584   285  -0.7  100   -0.7  0     0     978.5    NA       0.0000   9999     3020  4070  0    
2019/03/09  06:54:00  BASE  0.36456  294  0.84672  281  -0.7  100   -0.7  0     0     978.5    NA       0.0000   9999     3180  3970  0    
2019/03/09  06:55:00  BASE  0.7056   288  0.9702   262  -0.6  100   -0.6  0     0     978.5    NA       0.0000   9999     3220  4100  0    
2019/03/09  06:56:01  BASE  0.84084  276  1.0878   270  -0.6  100   -0.6  0     0     978.5    NA       0.0000   9999     4070  0     0    
2019/03/09  06:57:01  BASE  0.87612  273  1.0878   270  -0.6  100   -0.6  0     0     978.5    NA       0.0000   9999     4230  0     0    
2019/03/09  06:58:01  BASE  0.61152  282  1.0878   270  -0.6  100   -0.6  0     0     978.5    NA       0.0000   9999     3970  0     0    
2019/03/09  06:59:01  BASE  0.56448  283  1.0878   270  -0.6  100   -0.6  0     0     978.5    NA       0.0000   9999     2820  4130  0    
2019/03/09  07:00:01  BASE  0.35868  280  1.0878   270  -0.6  100   -0.6  0     0     978.5    NA       0.0000   9999     2850  0     0    
2019/03/09  07:01:01  BASE  0        281  1.0878   270  -0.6  100   -0.6  0     0     978.5    NA       0.0000   9999     2890  0     0    
2019/03/09  07:02:01  BASE  0        290  1.0878   270  -0.6  100   -0.6  0     0     978.5    NA       0.0000   9999     2850  0     0    
2019/03/09  07:03:01  BASE  0        312  1.0878   270  -0.6  100   -0.6  0     0     978.5    NA       0.0000   9999     2890  0     0    
2019/03/09  07:04:01  BASE  0        325  1.0878   270  -0.6  100   -0.6  0     0     978.5    NA       0.0000   9999     2820  0     0    
2019/03/09  07:05:00  BASE  0        326  1.0878   270  -0.5  100   -0.5  0     0     978.5    NA       0.0000   9999     2850  0     0    
2019/03/09  07:06:01  BASE  0.05292  336  0.9702   277  -0.5  100   -0.5  0     0     978.5    NA       0.0000   9999     2890  0     0    
2019/03/09  07:07:00  BASE  0.12936  345  0.81732  279  -0.5  100   -0.5  0     0     978.5    NA       0.0000   9999     2820  0     0    
2019/03/09  07:08:00  BASE  0.07644  346  0.81732  279  -0.6  100   -0.6  0     0     978.5    NA       0.0000   9999     2790  0     0    
2019/03/09  07:09:00  BASE  0        346  0.66444  346  -0.6  100   -0.6  0     0     978.5    NA       0.0000   9999     2850  0     0    
2019/03/09  07:10:00  BASE  0        354  0.66444  346  -0.6  100   -0.6  0     0     978.5    NA       0.0000   9999     2760  0     0    
2019/03/09  07:11:00  BASE  0        27   0.66444  346  -0.6  100   -0.6  0     0     978.5    NA       0.0000   9999     2760  0     0    
2019/03/09  07:12:01  BASE  0        54   0.66444  346  -0.6  100   -0.6  0     0     978.6    NA       0.0000   9999     2790  0     0    
2019/03/09  07:13:00  BASE  0        49   0.66444  346  -0.7  100   -0.7  0     0     978.6    NA       0.0000   9999     2790  0     0    
2019/03/09  07:14:00  BASE  0        41   0.66444  346  -0.7  100   -0.7  0     0     978.6    NA       0.0000   9999     2760  0     0    
2019/03/09  07:15:00  BASE  0        41   0.66444  346  -0.8  100   -0.8  0     0     978.6    NA       0.0000   9999     2790  0     0    
2019/03/09  07:16:00  BASE  0        44   0.66444  346  -0.8  100   -0.8  0     0     978.5    NA       0.0000   9999     2760  0     0    
2019/03/09  07:17:00  BASE  0        47   0        M    -0.8  100   -0.8  0     0     978.5    NA       0.0000   9999     2760  0     0    
2019/03/09  07:18:00  BASE  0        45   0        M    -0.8  100   -0.8  0     0     978.6    NA       0.0000   9999     2760  0     0    
2019/03/09  07:19:00  BASE  0        32   0        M    -0.8  100   -0.8  0     0     978.6    NA       0.0000   9999     2790  0     0    
2019/03/09  07:20:00  BASE  0.09996  22   0.63504  23   -0.8  100   -0.8  0     0     978.6    NA       0.0000   9999     2760  0     0    
2019/03/09  07:21:01  BASE  0.09996  22   0.63504  23   -0.8  100   -0.8  0     0     978.6    NA       0.0000   9999     3540  0     0    
2019/03/09  07:22:00  BASE  0        20   0.63504  23   -0.8  100   -0.8  0     0     978.6    NA       0.0000   9999     2720  3080  0    
2019/03/09  07:23:00  BASE  0        27   0.63504  23   -0.8  100   -0.8  0     0     978.5    NA       0.0000   9999     2720  0     0    
2019/03/09  07:24:00  BASE  0.0294   41   0.63504  48   -0.8  100   -0.8  0     0     978.5    NA       0.0000   9999     2720  3510  0    
2019/03/09  07:25:00  BASE  0.0294   48   0.63504  48   -0.8  100   -0.8  0     0     978.5    NA       0.0000   9999     2620  0     0    
2019/03/09  07:26:00  BASE  0.05292  52   0.63504  54   -0.8  100   -0.8  0     0     978.5    NA       0.0000   9999     2620  0     0    
2019/03/09  07:27:00  BASE  0.15288  57   0.63504  54   -0.8  100   -0.8  0     0     978.5    NA       0.0000   9999     2620  0     0    
2019/03/09  07:28:00  BASE  0.15288  58   0.63504  58   -0.8  100   -0.8  0     0     978.6    NA       0.0000   9999     2660  0     0    
2019/03/09  07:29:00  BASE  0.05292  58   0.63504  58   -0.8  100   -0.8  0     0     978.6    NA       0.0000   9999     2620  0     0    
2019/03/09  07:30:00  BASE  0        58   0.63504  58   -0.8  100   -0.8  0     0     978.6    NA       0.0000   9999     2620  0     0    
2019/03/09  07:31:00  BASE  0        59   0.63504  58   -0.8  100   -0.8  0     0     978.6    NA       0.0000   9999     2590  0     0    
2019/03/09  07:32:00  BASE  0        65   0.63504  58   -0.8  100   -0.8  0     0     978.6    NA       0.0000   9999     0     0     0    
2019/03/09  07:33:00  BASE  0        69   0.63504  58   -0.8  100   -0.8  0     0     978.6    NA       0.0000   9999     2690  0     0    
2019/03/09  07:34:00  BASE  0        69   0.63504  58   -0.7  100   -0.7  0     0     978.6    NA       0.0000   9999     2660  0     0    
2019/03/09  07:35:00  BASE  0        69   0.63504  58   -0.7  100   -0.7  0     0     978.6    NA       0.0000   9999     2690  0     0    
2019/03/09  07:36:00  BASE  0        68   0.63504  58   -0.7  100   -0.7  0     0     978.6    NA       0.0000   9999     0     0     0    
2019/03/09  07:37:00  BASE  0        59   0.63504  58   -0.6  100   -0.6  0     0     978.6    NA       0.0000   9999     0     0     0    
2019/03/09  07:38:00  BASE  0.08232  48   0.72324  42   -0.6  100   -0.6  0     0     978.6    NA       0.0000   9999     2760  0     0    
2019/03/09  07:39:00  BASE  0.43512  40   0.72324  34   -0.6  100   -0.6  0     0     978.6    NA       0.0000   9999     2720  0     0    
2019/03/09  07:40:01  BASE  0.7056   33   0.84672  28   -0.6  100   -0.6  0     0     978.6    NA       0.0000   9999     0     0     0    
2019/03/09  07:41:00  BASE  0.8232   30   1.029    28   -0.7  100   -0.7  0     0     978.6    NA       0.0000   9999     0     0     0    
2019/03/09  07:42:00  BASE  1.01724  30   1.1466   33   -0.7  100   -0.7  0     0     978.6    NA       0.0000   9999     0     0     0    
2019/03/09  07:43:00  BASE  1.12896  31   1.21128  31   -0.7  100   -0.7  0     0     978.6    NA       0.0000   9999     0     0     0    
2019/03/09  07:44:00  BASE  1.19364  32   1.27008  32   -0.8  100   -0.8  0     0     978.6    NA       0.0000   9999     3900  0     0    
2019/03/09  07:45:00  BASE  1.25244  33   1.29948  37   -0.8  100   -0.8  0     0     978.6    NA       0.0000   9999     0     0     0    
2019/03/09  07:46:01  BASE  1.30536  39   1.42296  50   -0.9  100   -0.9  0     0     978.6    NA       0.0000   9999     0     0     0    
2019/03/09  07:47:00  BASE  1.43472  50   1.72284  57   -0.9  100   -0.9  0     0     978.6    NA       0.0000   9999     0     0     0    
2019/03/09  07:48:00  BASE  1.53468  56   1.72284  57   -0.9  100   -0.9  0     0     978.6    NA       0.0000   9999     0     0     0    
2019/03/09  07:49:00  BASE  1.51116  54   1.72284  57   -0.9  100   -0.9  0     0     978.6    NA       0.0000   9999     0     0     0    
2019/03/09  07:50:00  BASE  1.49352  56   1.72284  57   -0.9  100   -0.9  0     0     978.6    NA       0.0000   9999     0     0     0    
2019/03/09  07:51:00  BASE  1.2054   58   1.72284  57   -0.9  100   -0.9  0     0     978.5    NA       0.0000   9999     0     0     0    
2019/03/09  07:52:00  BASE  0.86436  56   1.72284  57   -0.9  100   -0.9  0     0     978.5    NA       0.0000   9999     0     0     0    
2019/03/09  07:53:00  BASE  0.6468   52   1.72284  57   -0.8  100   -0.8  0     0     978.5    NA       0.0000   9999     13030 0     0    
2019/03/09  07:54:00  BASE  0.60564  47   1.72284  57   -0.7  100   -0.7  0     0     978.5    NA       0.0000   9999     3670  0     0    
2019/03/09  07:55:00  BASE  0.588    43   1.72284  57   -0.7  100   -0.7  0     0     978.5    NA       0.0000   9999     3740  0     0    
2019/03/09  07:56:00  BASE  0.51156  36   1.72284  57   -0.6  100   -0.6  0     0     978.5    NA       0.0000   9999     3770  0     0    
2019/03/09  07:57:00  BASE  0.47628  29   1.69344  55   -0.6  100   -0.6  0     0     978.5    NA       0.0000   9999     3740  13030 0    
2019/03/09  07:58:00  BASE  0.35868  26   1.69344  55   -0.6  100   -0.6  0     0     978.6    NA       0.0000   9999     3840  0     0    
2019/03/09  07:59:00  BASE  0.17052  24   1.63464  60   -0.7  100   -0.7  0     0     978.6    NA       0.0000   9999     0     0     0    
2019/03/09  08:00:00  BASE  0        20   1.18188  61   -0.7  100   -0.7  0     0     978.6    NA       0.0000   9999     12860 0     0    
2019/03/09  08:01:00  BASE  0        18   0.9996   45   -0.7  100   -0.7  0     0     978.6    NA       0.0000   9999     0     0     0    
2019/03/09  08:02:00  BASE  0        31   0.90552  43   -0.7  100   -0.7  0     0     978.6    NA       0.0000   9999     0     0     0    
2019/03/09  08:03:00  BASE  0        66   0.90552  43   -0.7  100   -0.7  0     0     978.6    NA       0.0000   9999     0     0     0    
2019/03/09  08:04:00  BASE  0        71   0.81732  49   -0.6  100   -0.6  0     0     978.6    NA       0.0000   9999     22440 0     0    
2019/03/09  08:05:00  BASE  0        64   0.75852  41   -0.6  100   -0.6  0     0     978.7    NA       0.0000   9999     22340 0     0    
2019/03/09  08:06:00  BASE  0        70   0.75852  41   -0.6  100   -0.6  0     0     978.7    NA       0.0000   9999     0     0     0    
2019/03/09  08:07:00  BASE  0        71   0.72324  26   -0.6  100   -0.6  0     0     978.7    NA       0.0000   9999     0     0     0    
2019/03/09  08:08:00  BASE  0        71   0        M    -0.6  100   -0.6  0     0     978.7    NA       0.0000   9999     0     0     0    
2019/03/09  08:09:00  BASE  0        71   0        M    -0.6  100   -0.6  0     0     978.6    NA       0.0000   9999     0     0     0    
2019/03/09  08:10:00  BASE  0        71   0        M    -0.5  100   -0.5  0     0     978.7    NA       0.0000   9999     0     0     0    
2019/03/09  08:11:00  BASE  0.0588   71   0.69384  71   -0.5  100   -0.5  0     0     978.7    NA       0.0000   9999     0     0     0    
2019/03/09  08:12:00  BASE  0.14112  74   0.69384  71   -0.4  100   -0.4  0     0     978.6    NA       0.0000   9999     0     0     0    
2019/03/09  08:13:00  BASE  0.08232  79   0.69384  71   -0.4  100   -0.4  0     0     978.6    NA       0.0000   9999     0     0     0    
2019/03/09  08:14:00  BASE  0        80   0.69384  71   -0.3  100   -0.3  0     0     978.6    NA       0.0000   9999     0     0     0    
2019/03/09  08:15:00  BASE  0        80   0.69384  71   -0.3  100   -0.3  0     0     978.7    NA       0.0000   9999     0     0     0    
2019/03/09  08:16:00  BASE  0        80   0.69384  71   -0.3  100   -0.3  0     0     978.7    NA       0.0000   9999     0     0     0    
2019/03/09  08:17:00  BASE  0        80   0.69384  71   -0.2  100   -0.2  0     0     978.6    NA       0.0000   9999     0     0     0    
2019/03/09  08:18:00  BASE  0        80   0.69384  71   -0.2  100   -0.2  0     0     978.6    NA       0.0000   9999     0     0     0    
2019/03/09  08:19:00  BASE  0        80   0.69384  71   -0.2  100   -0.2  0     0     978.6    NA       0.0000   9999     0     0     0    
2019/03/09  08:20:00  BASE  0        82   0.69384  71   -0.2  100   -0.2  0     0     978.7    NA       0.0000   9999     0     0     0    
2019/03/09  08:21:00  BASE  0.0294   90   0.69384  71   -0.2  100   -0.2  0     0     978.7    NA       0.0000   9999     0     0     0    
2019/03/09  08:22:00  BASE  0.2058   104  0.63504  112  -0.2  100   -0.2  0     0     978.7    NA       0.0000   9999     6860  0     0    
2019/03/09  08:23:00  BASE  0.64092  121  1.1466   129  -0.3  100   -0.3  0     0     978.8    NA       0.0000   9999     0     0     0    
2019/03/09  08:24:00  BASE  0.84672  146  1.1466   129  -0.4  100   -0.4  0     0     978.9    NA       0.0000   9999     6890  0     0    
2019/03/09  08:25:00  BASE  0.84084  180  1.1466   129  -0.6  100   -0.6  0     0     978.9    NA       0.0000   9999     6920  0     0    
2019/03/09  08:26:00  BASE  0.89376  189  1.1466   129  -0.7  100   -0.7  0     0     978.9    NA       0.0000   9999     6890  0     0    
2019/03/09  08:27:00  BASE  0.441    181  1.1466   129  -0.8  100   -0.8  0     0     978.9    NA       0.0000   9999     6890  0     0    
2019/03/09  08:28:00  BASE  0        183  1.1466   129  -0.8  100   -0.8  0     0     978.9    NA       0.0000   9999     6920  0     0    
2019/03/09  08:29:00  BASE  0        178  1.1466   129  -0.8  100   -0.8  0     0     978.9    NA       0.0000   9999     6990  0     0    
2019/03/09  08:30:00  BASE  0        169  1.1466   129  -0.8  100   -0.8  0     0     979.0    NA       0.0000   9999     7020  0     0    
2019/03/09  08:31:00  BASE  0        177  1.1466   129  -0.7  100   -0.7  0     0     979.0    NA       0.0000   9999     7120  0     0    
2019/03/09  08:32:00  BASE  0        210  1.1466   129  -0.7  100   -0.7  0     0     979.0    NA       0.0000   9999     7050  0     0    
2019/03/09  08:33:00  BASE  0.16464  234  1.0584   181  -0.6  100   -0.6  0     0     979.0    NA       0.0000   9999     3080  0     0    
2019/03/09  08:34:00  BASE  0.45864  240  1.0584   181  -0.6  100   -0.6  0     0     979.0    NA       0.0000   9999     0     0     0    
2019/03/09  08:35:00  BASE  0.34692  243  1.0584   181  -0.6  100   -0.6  0     0     978.9    NA       0.0000   9999     0     0     0    
2019/03/09  08:36:00  BASE  0.05292  237  0.69384  241  -0.6  100   -0.6  0     0     979.0    NA       0.0000   9999     0     0     0    
2019/03/09  08:37:00  BASE  0        221  0.69384  241  -0.5  100   -0.5  0     0     979.0    NA       0.0000   9999     0     0     0    
2019/03/09  08:38:00  BASE  0        195  0.69384  241  -0.5  100   -0.5  0     0     979.0    NA       0.0000   9999     0     0     0    
2019/03/09  08:39:00  BASE  0.0882   145  0.75852  101  -0.5  100   -0.5  0     0     979.0    NA       0.0000   9999     0     0     0    
2019/03/09  08:40:00  BASE  0.0882   108  0.75852  101  -0.6  100   -0.6  0     0     979.0    NA       0.0000   9999     0     0     0    
2019/03/09  08:41:00  BASE  0        107  0.75852  101  -0.6  100   -0.6  0     0     979.0    NA       0.0000   9999     0     0     0    
2019/03/09  08:42:00  BASE  0        107  0.75852  101  -0.5  100   -0.5  0     0     979.0    NA       0.0000   9999     0     0     0    
2019/03/09  08:43:00  BASE  0        107  0.75852  101  -0.5  100   -0.5  0     0     979.0    NA       0.0000   9999     0     0     0    
2019/03/09  08:44:00  BASE  0        107  0.75852  101  -0.5  100   -0.5  0     0     979.0    NA       0.0000   9999     0     0     0    
2019/03/09  08:45:00  BASE  0        107  0.75852  101  -0.4  100   -0.4  0     0     979.0    NA       0.0000   9999     0     0     0    
2019/03/09  08:46:00  BASE  0        107  0.75852  101  -0.3  100   -0.3  0     0     979.0    NA       0.0000   9999     0     0     0    
2019/03/09  08:47:00  BASE  0        89   0.75852  101  -0.3  100   -0.3  0     0     979.0    NA       0.0000   9999     0     0     0    
2019/03/09  08:48:00  BASE  0        52   0.75852  101  -0.2  100   -0.2  0     0     979.0    NA       0.0000   9999     0     0     0    
2019/03/09  08:49:00  BASE  0.2646   34   0.78792  29   -0.2  100   -0.2  0     0     979.0    NA       0.0000   9999     0     0     0    
2019/03/09  08:50:00  BASE  0.72912  36   1.29948  45   -0.2  100   -0.2  0     0     979.0    NA       0.0000   9999     0     0     0    
2019/03/09  08:51:00  BASE  0.89964  38   1.29948  45   -0.3  100   -0.3  0     0     979.0    NA       0.0000   9999     7250  0     0    
2019/03/09  08:52:00  BASE  0.84672  36   1.29948  45   -0.4  100   -0.4  0     0     979.0    NA       0.0000   9999     0     0     0    
2019/03/09  08:53:00  BASE  0.95256  41   1.29948  45   -0.5  100   -0.5  0     0     979.0    NA       0.0000   9999     7190  0     0    
2019/03/09  08:54:00  BASE  1.17012  48   1.39356  49   -0.6  100   -0.6  0     0     979.0    NA       0.0000   9999     7220  0     0    
2019/03/09  08:55:00  BASE  1.25832  47   1.60524  53   -0.6  100   -0.6  0     0     979.0    NA       0.0000   9999     7250  0     0    
2019/03/09  08:56:00  BASE  1.0878   34   1.60524  53   -0.6  100   -0.6  0     0     979.0    NA       0.0000   9999     0     0     0    
2019/03/09  08:57:00  BASE  0.94668  21   1.60524  53   -0.6  100   -0.6  0     0     978.9    NA       0.0000   9999     0     0     0    
2019/03/09  08:58:00  BASE  0.95844  18   1.60524  53   -0.6  100   -0.6  0     0     978.9    NA       0.0000   9999     0     0     0    
2019/03/09  08:59:00  BASE  0.97608  21   1.60524  53   -0.6  100   -0.6  0     0     979.0    NA       0.0000   9999     0     0     0    
2019/03/09  09:00:00  BASE  1.00548  23   1.60524  53   -0.6  100   -0.6  0     0     979.0    NA       0.0000   9999     0     0     0    
2019/03/09  09:01:00  BASE  1.10544  24   1.60524  53   -0.6  100   -0.6  0     0     979.0    NA       0.0000   9999     0     0     0    
2019/03/09  09:02:00  BASE  1.31712  32   1.60524  53   -0.6  100   -0.6  0     0     979.0    NA       0.0000   9999     4990  12370 0    
2019/03/09  09:03:00  BASE  1.4994   40   1.75224  39   -0.7  100   -0.7  0     0     979.0    NA       0.0000   9999     4990  12300 0    
2019/03/09  09:04:00  BASE  1.63464  39   1.81692  47   -0.7  100   -0.7  0     0     979.0    NA       0.0000   9999     5050  12270 0    
2019/03/09  09:05:00  BASE  1.64052  38   1.87572  49   -0.8  100   -0.8  0     0     979.0    NA       0.0000   9999     4890  0     0    
2019/03/09  09:06:00  BASE  1.47     39   1.87572  49   -0.9  100   -0.9  0     0     979.0    NA       0.0000   9999     4920  0     0    
2019/03/09  09:07:01  BASE  1.39944  48   1.87572  49   -0.9  100   -0.9  0     0     979.0    NA       0.0000   9999     0     0     0    
2019/03/09  09:08:00  BASE  1.60524  58   2.058    66   -0.9  100   -0.9  0     0     979.0    NA       0.0000   9999     4660  0     0    
2019/03/09  09:09:01  BASE  2.10504  64   2.75184  67   -0.9  100   -0.9  0     0     979.0    NA       0.0000   9999     4660  0     0    
2019/03/09  09:10:00  BASE  2.53428  67   2.75184  67   -0.9  100   -0.9  1     0     979.1    NA       0.0000   9999     4590  0     0    
2019/03/09  09:11:00  BASE  2.41668  70   2.75184  67   -0.9  100   -0.9  1     0     979.1    NA       0.0000   9999     4630  0     0    
2019/03/09  09:12:01  BASE  2.01096  72   2.75184  67   -0.8  100   -0.8  1     0     979.0    NA       0.0000   9999     7510  0     0    
2019/03/09  09:13:00  BASE  1.68168  71   2.75184  67   -0.8  100   -0.8  1     0     979.0    NA       0.0000   9999     0     0     0    
2019/03/09  09:14:00  BASE  1.3818   70   2.75184  67   -0.6  100   -0.6  1     0     979.1    NA       0.0000   9999     0     0     0    
2019/03/09  09:15:00  BASE  1.01724  70   2.75184  67   -0.5  100   -0.5  1     0     979.1    NA       0.0000   9999     0     0     0    
2019/03/09  09:16:00  BASE  0.7056   64   2.75184  67   -0.3  100   -0.3  1     0     979.1    NA       0.0000   9999     4490  0     0    
2019/03/09  09:17:00  BASE  0.45276  50   2.75184  67   -0.1  100   -0.1  1     0     979.1    NA       0.0000   9999     4490  0     0    
2019/03/09  09:18:00  BASE  0.28224  61   2.75184  67   -0.1  100   -0.1  1     0     979.1    NA       0.0000   9999     4530  0     0    
2019/03/09  09:19:00  BASE  0.54096  138  2.72244  71   -0.1  100   -0.1  1     0     979.1    NA       0.0000   9999     4560  0     0    
2019/03/09  09:20:00  BASE  0.80556  152  2.42256  70   -0.1  100   -0.1  2     0     979.1    NA       0.0000   9999     4560  0     0    
2019/03/09  09:21:00  BASE  1.1466   154  1.90512  72   -0.2  100   -0.2  2     0     979.2    NA       0.0000   9999     0     0     0    
2019/03/09  09:22:00  BASE  1.55232  167  1.75224  168  -0.4  100   -0.4  2     0     979.1    NA       0.0000   9999     4530  0     0    
2019/03/09  09:23:00  BASE  1.68756  169  1.87572  172  -0.5  100   -0.5  3     0     979.1    NA       0.0000   9999     4530  0     0    
2019/03/09  09:24:00  BASE  1.7934   170  1.87572  170  -0.5  100   -0.5  3     0     979.1    NA       0.0000   9999     4490  0     0    
2019/03/09  09:25:00  BASE  1.764    170  1.87572  170  -0.5  100   -0.5  3     0     979.1    NA       0.0000   9999     4490  0     0    
2019/03/09  09:26:00  BASE  1.62288  168  1.87572  170  -0.6  100   -0.6  3     0     979.2    NA       0.0000   9999     4530  0     0    
2019/03/09  09:27:00  BASE  1.4406   165  1.87572  170  -0.6  100   -0.6  4     0     979.2    NA       0.0000   9999     4530  0     0    
2019/03/09  09:28:00  BASE  1.323    164  1.87572  170  -0.6  100   -0.6  4     0     979.2    NA       0.0000   9999     4490  0     0    
2019/03/09  09:29:00  BASE  1.33476  166  1.87572  170  -0.6  100   -0.6  4     0     979.2    NA       0.0000   9999     4460  0     0    
2019/03/09  09:30:00  BASE  1.42884  170  1.87572  170  -0.6  100   -0.6  4     0     979.2    NA       0.0000   9999     4430  0     0    
2019/03/09  09:31:00  BASE  1.39944  171  1.87572  170  -0.6  100   -0.6  4     0     979.2    NA       0.0000   9999     4460  0     0    
2019/03/09  09:32:00  BASE  1.14072  169  1.87572  170  -0.6  100   -0.6  5     0     979.2    NA       0.0000   9999     4430  0     0    
2019/03/09  09:33:00  BASE  0.57624  160  1.87572  170  -0.6  100   -0.6  5     0     979.2    NA       0.0000   9999     4460  0     0    
2019/03/09  09:34:00  BASE  0.15288  148  1.78752  169  -0.6  100   -0.6  5     0     979.2    NA       0.0000   9999     4430  0     0    
2019/03/09  09:35:00  BASE  0.46452  144  1.75224  176  -0.6  100   -0.6  5     0     979.2    NA       0.0000   9999     4330  0     0    
2019/03/09  09:36:00  BASE  0.90552  142  1.75224  176  -0.6  100   -0.6  5     0     979.2    NA       0.0000   9999     4330  0     0    
2019/03/09  09:37:00  BASE  1.01724  137  1.75224  176  -0.5  100   -0.5  5     0     979.2    NA       0.0000   9999     4270  0     0    
2019/03/09  09:38:00  BASE  1.029    132  1.75224  176  -0.5  100   -0.5  6     0     979.2    NA       0.0000   9999     4230  0     0    
2019/03/09  09:39:00  BASE  0.93492  121  1.75224  176  -0.5  100   -0.5  6     0     979.2    NA       0.0000   9999     4230  0     0    
2019/03/09  09:40:00  BASE  0.75264  108  1.45236  173  -0.4  100   -0.4  7     0     979.2    NA       0.0000   9999     4330  0     0    
2019/03/09  09:41:00  BASE  0.7938   105  1.1466   106  -0.4  100   -0.4  8     0     979.2    NA       0.0000   9999     4360  0     0    
2019/03/09  09:42:00  BASE  1.1466   109  1.57584  105  -0.3  100   -0.3  9     0     979.2    NA       0.0000   9999     4330  0     0    
2019/03/09  09:43:00  BASE  1.18188  121  1.57584  105  -0.3  100   -0.3  9     0     979.2    NA       0.0000   9999     4330  0     0    
2019/03/09  09:44:00  BASE  0.9408   142  1.57584  105  -0.2  100   -0.2  9     0     979.2    NA       0.0000   9999     4330  0     0    
2019/03/09  09:45:00  BASE  0.57624  159  1.57584  105  -0.2  100   -0.2  9     0     979.2    NA       0.0000   9999     4330  0     0    
2019/03/09  09:46:00  BASE  0.43512  168  1.57584  105  -0.3  100   -0.3  9     0     979.3    NA       0.0000   9999     4270  0     0    
2019/03/09  09:47:00  BASE  0.44688  164  1.57584  105  -0.3  100   -0.3  10    0     979.3    NA       0.0000   9999     4270  0     0    
2019/03/09  09:48:00  BASE  0.15288  159  1.57584  105  -0.3  100   -0.3  10    0     979.3    NA       0.0000   9999     4230  0     0    
2019/03/09  09:49:00  BASE  0        159  1.57584  105  -0.3  100   -0.3  10    0     979.3    NA       0.0000   9999     4100  0     0    
2019/03/09  09:50:00  BASE  0        162  1.57584  105  -0.3  100   -0.3  11    0     979.3    NA       0.0000   9999     4170  0     0    
2019/03/09  09:51:00  BASE  0        167  1.57584  105  -0.2  100   -0.2  11    0     979.3    NA       0.0000   9999     4230  0     0    
2019/03/09  09:52:00  BASE  0.02352  173  1.24068  144  -0.1  100   -0.1  11    0     979.3    NA       0.0000   9999     4130  0     0    
2019/03/09  09:53:00  BASE  0.441    183  1.18188  144  -0.0  100   -0.0  12    0     979.3    NA       0.0000   9999     4170  0     0    
2019/03/09  09:54:00  BASE  0.9114   192  1.24068  200  0.0   100   0.0   12    0     979.3    NA       0.0000   9999     4170  0     0    
2019/03/09  09:55:00  BASE  1.0584   186  1.35828  176  -0.0  100   -0.0  13    0     979.3    NA       0.0000   9999     4070  0     0    
2019/03/09  09:56:00  BASE  1.1466   175  1.35828  176  -0.1  100   -0.1  13    0     979.3    NA       0.0000   9999     4170  0     0    
2019/03/09  09:57:00  BASE  1.21128  176  1.35828  181  -0.1  100   -0.1  14    0     979.3    NA       0.0000   9999     4170  0     0    
2019/03/09  09:58:00  BASE  1.34064  175  1.87572  168  -0.2  100   -0.2  14    0     979.3    NA       0.0000   9999     4170  0     0    
2019/03/09  09:59:00  BASE  1.65816  164  2.42256  160  -0.2  100   -0.2  15    0     979.3    NA       0.0000   9999     4130  0     0    
2019/03/09  10:00:00  BASE  2.21088  154  2.87532  148  -0.3  100   -0.3  16    0     979.3    NA       0.0000   9999     4100  0     0    
2019/03/09  10:01:00  BASE  2.71656  150  3.02232  150  -0.3  100   -0.3  16    0     979.3    NA       0.0000   9999     4170  0     0    
2019/03/09  10:02:00  BASE  2.84592  149  3.02232  151  -0.3  100   -0.3  16    0     979.3    NA       0.0000   9999     4170  0     0    
2019/03/09  10:03:00  BASE  2.59308  148  3.02232  151  -0.4  100   -0.4  16    0     979.3    NA       0.0000   9999     4100  0     0    
2019/03/09  10:04:00  BASE  2.47548  145  3.02232  151  -0.4  100   -0.4  16    0     979.3    NA       0.0000   9999     4000  0     0    
2019/03/09  10:05:00  BASE  2.54604  141  3.02232  151  -0.4  100   -0.4  16    0     979.3    NA       0.0000   9999     3940  0     0    
2019/03/09  10:06:00  BASE  2.35788  141  3.02232  151  -0.4  100   -0.4  15    0     979.4    NA       0.0000   9999     3970  0     0    
2019/03/09  10:07:00  BASE  2.46372  143  3.02232  140  -0.4  100   -0.4  15    0     979.4    NA       0.0000   9999     3970  0     0    
2019/03/09  10:08:00  BASE  2.69304  139  3.2046   137  -0.4  100   -0.4  14    0     979.4    NA       0.0000   9999     3940  0     0    
2019/03/09  10:09:00  BASE  2.86944  135  3.32808  139  -0.4  100   -0.4  14    0     979.5    NA       0.0000   9999     4000  0     0    
2019/03/09  10:10:00  BASE  2.93412  133  3.32808  139  -0.4  100   -0.4  14    0     979.5    NA       0.0000   9999     4000  0     0    
2019/03/09  10:11:00  BASE  2.5872   134  3.32808  139  -0.4  100   -0.4  14    0     979.5    NA       0.0000   9999     3970  0     0    
2019/03/09  10:12:00  BASE  2.35788  132  3.32808  139  -0.4  100   -0.4  14    0     979.5    NA       0.0000   9999     3970  0     0    
2019/03/09  10:13:00  BASE  2.21088  130  3.32808  139  -0.4  100   -0.4  14    0     979.5    NA       0.0000   9999     3970  0     0    
2019/03/09  10:14:00  BASE  2.07564  132  3.32808  139  -0.4  100   -0.4  14    0     979.6    NA       0.0000   9999     3940  0     0    
2019/03/09  10:15:00  BASE  2.05212  139  3.32808  139  -0.4  100   -0.4  14    0     979.6    NA       0.0000   9999     4000  0     0    
2019/03/09  10:16:00  BASE  1.91688  145  3.32808  139  -0.4  100   -0.4  14    0     979.6    NA       0.0000   9999     3970  0     0    
2019/03/09  10:17:00  BASE  1.72284  140  3.32808  139  -0.4  100   -0.4  14    0     979.6    NA       0.0000   9999     3970  0     0    
2019/03/09  10:18:00  BASE  1.8522   129  3.32808  139  -0.4  100   -0.4  14    0     979.7    NA       0.0000   9999     3900  0     0    
2019/03/09  10:19:00  BASE  1.87572  122  3.0576   128  -0.4  100   -0.4  14    0     979.7    NA       0.0000   9999     3870  0     0    
2019/03/09  10:20:00  BASE  1.75812  128  2.56956  125  -0.4  100   -0.4  15    0     979.7    NA       0.0000   9999     3870  0     0    
2019/03/09  10:21:00  BASE  1.84632  139  2.56956  125  -0.4  100   -0.4  15    0     979.7    NA       0.0000   9999     3840  0     0    
2019/03/09  10:22:00  BASE  1.80516  147  2.38728  120  -0.3  100   -0.3  15    0     979.7    NA       0.0000   9999     3810  0     0    
2019/03/09  10:23:00  BASE  1.47588  149  2.24028  147  -0.3  100   -0.3  16    0     979.7    NA       0.0000   9999     3840  0     0    
2019/03/09  10:24:00  BASE  0.87612  139  2.24028  147  -0.3  100   -0.3  15    0     979.8    NA       0.0000   9999     3870  0     0    
2019/03/09  10:25:00  BASE  0.69972  119  2.21088  123  -0.3  100   -0.3  15    0     979.8    NA       0.0000   9999     3870  0     0    
2019/03/09  10:26:00  BASE  1.08192  96   2.21088  123  -0.3  100   -0.3  15    0     979.8    NA       0.0000   9999     3900  0     0    
2019/03/09  10:27:00  BASE  0.8232   70   2.21088  123  -0.3  100   -0.3  14    0     979.8    NA       0.0000   9999     3900  0     0    
2019/03/09  10:28:00  BASE  0.31164  48   2.1462   119  -0.3  100   -0.3  14    0     979.8    NA       0.0000   9999     3940  0     0    
2019/03/09  10:29:00  BASE  0.1176   75   2.0874   141  -0.2  100   -0.2  15    0     979.8    NA       0.0000   9999     3940  0     0    
2019/03/09  10:30:00  BASE  0.3528   130  2.0874   141  -0.2  100   -0.2  15    0     979.8    NA       0.0000   9999     3970  0     0    
2019/03/09  10:31:00  BASE  0.91728  160  1.96392  146  -0.2  100   -0.2  16    0     979.8    NA       0.0000   9999     3870  0     0    
2019/03/09  10:32:00  BASE  1.17012  157  1.57584  96   -0.2  100   -0.2  17    0     979.8    NA       0.0000   9999     3900  0     0    
2019/03/09  10:33:00  BASE  1.15836  147  1.57584  96   -0.2  100   -0.2  17    0     979.8    NA       0.0000   9999     3900  0     0    
2019/03/09  10:34:00  BASE  1.27008  137  1.63464  129  -0.2  100   -0.2  16    0     979.8    NA       0.0000   9999     3900  0     0    
2019/03/09  10:35:00  BASE  1.51704  133  1.81692  134  -0.2  100   -0.2  15    0     979.8    NA       0.0000   9999     3900  0     0    
2019/03/09  10:36:00  BASE  1.54056  136  1.81692  134  -0.2  100   -0.2  15    0     979.8    NA       0.0000   9999     3940  0     0    
2019/03/09  10:37:00  BASE  1.54056  135  1.87572  130  -0.2  100   -0.2  15    0     979.8    NA       0.0000   9999     3940  0     0    
2019/03/09  10:38:00  BASE  1.51116  132  1.87572  130  -0.2  100   -0.2  15    0     979.8    NA       0.0000   9999     3940  0     0    
2019/03/09  10:39:00  BASE  1.31712  138  1.87572  130  -0.2  100   -0.2  16    0     979.8    NA       0.0000   9999     3940  0     0    
2019/03/09  10:40:00  BASE  1.2642   143  1.87572  130  -0.2  100   -0.2  16    0     979.8    NA       0.0000   9999     3900  0     0    
2019/03/09  10:41:00  BASE  1.24068  141  1.87572  130  -0.2  100   -0.2  17    0     979.8    NA       0.0000   9999     3900  0     0    
2019/03/09  10:42:00  BASE  1.51116  139  2.35788  146  -0.2  100   -0.2  17    0     979.8    NA       0.0000   9999     3900  0     0    
2019/03/09  10:43:00  BASE  1.98744  142  2.35788  146  -0.2  100   -0.2  18    0     979.8    NA       0.0000   9999     3940  0     0    
2019/03/09  10:44:00  BASE  2.25792  145  2.59896  145  -0.2  100   -0.2  18    0     979.8    NA       0.0000   9999     3940  0     0    
2019/03/09  10:45:00  BASE  2.21676  147  2.59896  145  -0.2  100   -0.2  18    0     979.8    NA       0.0000   9999     3940  0     0    
2019/03/09  10:46:00  BASE  2.16972  145  2.59896  145  -0.2  100   -0.2  18    0     979.8    NA       0.0000   9999     3940  0     0    
2019/03/09  10:47:00  BASE  2.04036  139  2.59896  145  -0.2  100   -0.2  18    0     979.9    NA       0.0000   9999     3970  0     0    
2019/03/09  10:48:00  BASE  1.764    131  2.59896  145  -0.2  100   -0.2  19    0     979.9    NA       0.0000   9999     3940  0     0    
2019/03/09  10:49:00  BASE  1.8522   124  2.59896  145  -0.2  100   -0.2  19    0     979.9    NA       0.0000   9999     3940  0     0    
2019/03/09  10:50:00  BASE  1.86984  120  2.59896  145  -0.2  100   -0.2  20    0     979.9    NA       0.0000   9999     3940  0     0    
2019/03/09  10:51:00  BASE  1.7346   120  2.59896  145  -0.2  100   -0.2  20    0     979.9    NA       0.0000   9999     3970  0     0    
2019/03/09  10:52:00  BASE  1.72284  121  2.59896  145  -0.2  100   -0.2  21    0     979.9    NA       0.0000   9999     3940  0     0    
2019/03/09  10:53:00  BASE  1.7346   119  2.59896  145  -0.1  100   -0.1  23    0     979.9    NA       0.0000   9999     3970  0     0    
2019/03/09  10:54:00  BASE  1.69932  111  2.48136  142  -0.1  100   -0.1  21    0     980.0    NA       0.0000   9999     3970  0     0    
2019/03/09  10:55:00  BASE  1.62288  106  2.48136  142  -0.1  100   -0.1  21    0     980.0    NA       0.0000   9999     3970  0     0    
2019/03/09  10:56:00  BASE  1.47588  106  2.38728  124  -0.1  100   -0.1  22    0     980.1    NA       0.0000   9999     3970  0     0    
2019/03/09  10:57:00  BASE  1.17012  107  2.38728  124  -0.1  100   -0.1  22    0     980.1    NA       0.0000   9999     3970  0     0    
2019/03/09  10:58:00  BASE  0.66444  91   2.38728  124  -0.1  100   -0.1  23    0     980.1    NA       0.0000   9999     3970  0     0    
2019/03/09  10:59:00  BASE  0.44688  61   1.9992   121  -0.1  100   -0.1  24    0     980.1    NA       0.0000   9999     3970  0     0    
2019/03/09  11:00:00  BASE  0.45276  52   1.9992   121  -0.1  100   -0.1  25    0     980.1    NA       0.0000   9999     3970  0     0    
2019/03/09  11:01:00  BASE  0.9702   69   1.9992   94   -0.1  100   -0.1  25    0     980.1    NA       0.0000   9999     3940  0     0    
2019/03/09  11:02:00  BASE  1.80516  90   2.21088  97   -0.1  100   -0.1  25    0     980.1    NA       0.0000   9999     3940  0     0    
2019/03/09  11:03:00  BASE  1.95804  97   2.21088  97   -0.1  100   -0.1  27    0     980.0    NA       0.0000   9999     3970  0     0    
2019/03/09  11:04:00  BASE  1.764    99   2.21088  97   -0.1  100   -0.1  27    0     979.9    NA       0.0000   9999     3970  0     0    
2019/03/09  11:05:00  BASE  1.68168  98   2.21088  97   -0.1  100   -0.1  27    0     979.9    NA       0.0000   9999     3970  0     0    
2019/03/09  11:06:00  BASE  1.5288   97   2.21088  97   -0.0  100   -0.0  28    0     980.0    NA       0.0000   9999     3970  0     0    
2019/03/09  11:07:00  BASE  1.45236  96   2.21088  97   -0.0  100   -0.0  28    0     980.1    NA       0.0000   9999     3940  0     0    
2019/03/09  11:08:00  BASE  1.68168  92   2.21088  97   0.0   100   0.0   29    0     980.1    NA       0.0000   9999     3940  0     0    
2019/03/09  11:09:00  BASE  1.7346   91   2.21088  97   0.1   100   0.1   29    0     980.0    NA       0.0000   9999     3900  0     0    
2019/03/09  11:10:00  BASE  1.65228  93   2.21088  97   0.1   100   0.1   30    0     980.1    NA       0.0000   9999     3900  0     0    
2019/03/09  11:11:00  BASE  1.5876   99   2.21088  97   0.2   99    0.1   31    0     980.1    NA       0.0000   9999     3840  0     0    
2019/03/09  11:12:00  BASE  1.5288   103  2.0874   95   0.3   99    0.1   32    0     980.1    NA       0.0000   9999     3840  0     0    
2019/03/09  11:13:00  BASE  1.47     102  1.9992   87   0.3   98    0.0   32    0     980.1    NA       0.0000   9999     3810  0     0    
2019/03/09  11:14:00  BASE  1.19952  96   1.9992   87   0.4   97    -0.1  34    0     980.1    NA       0.0000   9999     3870  0     0    
2019/03/09  11:15:00  BASE  0.74676  89   1.9992   87   0.5   95    -0.2  34    0     980.1    NA       0.0000   9999     3870  0     0    
2019/03/09  11:16:00  BASE  0.49392  86   1.9992   87   0.6   94    -0.3  34    0     980.1    NA       0.0000   9999     3870  4690  0    
2019/03/09  11:17:00  BASE  0.38808  92   1.9992   87   0.7   92    -0.5  35    0     980.1    NA       0.0000   9999     3870  0     0    
2019/03/09  11:18:00  BASE  0.3234   103  1.75224  97   0.7   91    -0.6  36    0     980.2    NA       0.0000   9999     3870  4920  0    
2019/03/09  11:19:00  BASE  0.1764   105  1.75224  97   0.7   90    -0.7  37    0     980.1    NA       0.0000   9999     3900  4820  0    
2019/03/09  11:20:00  BASE  0        138  1.72284  103  0.6   91    -0.7  37    0     980.2    NA       0.0000   9999     3900  4820  0    
2019/03/09  11:21:00  BASE  0        185  1.72284  103  0.5   93    -0.5  37    0     980.2    NA       0.0000   9999     3870  4690  0    
2019/03/09  11:22:00  BASE  0        191  1.72284  103  0.4   95    -0.4  37    0     980.2    NA       0.0000   9999     3900  4530  0    
2019/03/09  11:23:00  BASE  0.08232  173  1.21128  98   0.3   96    -0.2  38    0     980.2    NA       0.0000   9999     3940  4630  0    
2019/03/09  11:24:00  BASE  0.08232  160  0.81732  78   0.3   97    -0.1  38    0     980.2    NA       0.0000   9999     3900  4690  0    
2019/03/09  11:25:00  BASE  0.08232  160  0.78792  107  0.3   98    0.0   39    0     980.3    NA       0.0000   9999     3940  4660  0    
2019/03/09  11:26:00  BASE  0.19992  150  0.78792  107  0.3   99    0.1   39    0     980.3    NA       0.0000   9999     3940  4400  5020 
2019/03/09  11:27:00  BASE  0.37632  145  0.78792  107  0.3   99    0.1   39    0     980.3    NA       0.0000   9999     3940  4490  0    
2019/03/09  11:28:00  BASE  0.65856  135  0.93492  124  0.4   98    0.2   40    0     980.3    NA       0.0000   9999     3970  4400  0    
2019/03/09  11:29:00  BASE  0.53508  126  0.93492  124  0.5   98    0.2   40    0     980.3    NA       0.0000   9999     4490  4920  0    
2019/03/09  11:30:00  BASE  0.27636  126  0.93492  124  0.6   96    0.1   40    0     980.4    NA       0.0000   9999     4530  4920  0    
2019/03/09  11:31:00  BASE  0.19992  136  0.93492  124  0.8   95    0.0   39    0     980.4    NA       0.0000   9999     3900  5050  0    
2019/03/09  11:32:00  BASE  0.0588   135  0.93492  124  0.9   93    -0.1  39    0     980.4    NA       0.0000   9999     3970  0     0    
2019/03/09  11:33:00  BASE  0        93   0.93492  124  0.9   92    -0.2  39    0     980.4    NA       0.0000   9999     3510  3970  0    
2019/03/09  11:34:00  BASE  0.06468  66   0.93492  124  1.0   91    -0.3  39    0     980.4    NA       0.0000   9999     3970  0     0    
2019/03/09  11:35:00  BASE  0.4116   76   1.0584   75   0.9   91    -0.3  39    0     980.4    NA       0.0000   9999     3970  0     0    
2019/03/09  11:36:00  BASE  0.8526   79   1.24068  81   0.9   92    -0.2  39    0     980.4    NA       0.0000   9999     3940  0     0    
2019/03/09  11:37:00  BASE  0.95844  76   1.24068  81   0.9   93    -0.1  39    0     980.4    NA       0.0000   9999     3900  0     0    
2019/03/09  11:38:00  BASE  0.8232   73   1.24068  81   0.9   93    0.0   40    0     980.4    NA       0.0000   9999     3940  0     0    
2019/03/09  11:39:00  BASE  0.37044  69   1.24068  81   1.0   94    0.1   41    0     980.4    NA       0.0000   9999     3940  0     0    
2019/03/09  11:40:00  BASE  0        73   1.24068  81   1.1   93    0.1   43    0     980.4    NA       0.0000   9999     3900  0     0    
2019/03/09  11:41:00  BASE  0        120  1.24068  81   1.1   93    0.1   44    0     980.4    NA       0.0000   9999     3870  0     0    
2019/03/09  11:42:00  BASE  0        160  1.24068  81   1.1   93    0.1   46    0     980.4    NA       0.0000   9999     3870  0     0    
2019/03/09  11:43:00  BASE  0.57036  176  2.21088  167  1.0   93    0.0   47    0     980.4    NA       0.0000   9999     4040  0     0    
2019/03/09  11:44:00  BASE  2.03448  175  3.26928  162  0.9   93    -0.0  48    0     980.4    NA       0.0000   9999     3900  0     0    
2019/03/09  11:45:00  BASE  2.89296  162  3.26928  162  0.8   94    -0.0  49    0     980.4    NA       0.0000   9999     3940  0     0    
2019/03/09  11:46:00  BASE  2.90472  161  3.56916  160  0.7   95    0.0   49    0     980.4    NA       0.0000   9999     3970  0     0    
2019/03/09  11:47:00  BASE  3.09876  161  3.56916  160  0.6   97    0.1   50    0     980.4    NA       0.0000   9999     3940  0     0    
2019/03/09  11:48:00  BASE  3.4398   155  3.83964  155  0.4   98    0.2   50    0     980.4    NA       0.0000   9999     3970  0     0    
2019/03/09  11:49:00  BASE  3.56328  151  3.83964  155  0.3   99    0.2   50    0     980.5    NA       0.0000   9999     3940  0     0    
2019/03/09  11:50:00  BASE  3.48684  149  3.83964  155  0.3   100   0.2   49    0     980.6    NA       0.0000   9999     3940  0     0    
2019/03/09  11:51:00  BASE  3.59268  147  3.86904  148  0.2   100   0.2   49    0     980.6    NA       0.0000   9999     3900  0     0    
2019/03/09  11:52:00  BASE  3.47508  145  3.86904  148  0.2   100   0.2   49    0     980.6    NA       0.0000   9999     3970  0     0    
2019/03/09  11:53:00  BASE  3.087    143  3.86904  148  0.1   100   0.1   50    0     980.7    NA       0.0000   9999     3970  0     0    
2019/03/09  11:54:00  BASE  3.1164   138  3.86904  148  0.1   100   0.1   50    0     980.7    NA       0.0000   9999     4000  0     0    
2019/03/09  11:55:00  BASE  3.35748  133  3.86904  148  0.0   100   0.0   50    0     980.7    NA       0.0000   9999     3970  0     0    
2019/03/09  11:56:00  BASE  3.40452  134  3.86904  148  0.0   100   0.0   50    0     980.6    NA       0.0000   9999     3940  0     0    
2019/03/09  11:57:00  BASE  3.31044  137  3.86904  148  -0.0  100   -0.0  51    0     980.6    NA       0.0000   9999     3900  0     0    
2019/03/09  11:58:00  BASE  3.19284  139  3.86904  148  -0.1  100   -0.1  50    0     980.6    NA       0.0000   9999     3970  0     0    
2019/03/09  11:59:00  BASE  2.9988   139  3.86904  148  -0.1  100   -0.1  50    0     980.6    NA       0.0000   9999     3940  0     0    
2019/03/09  12:00:00  BASE  2.75772  136  3.86904  148  -0.1  100   -0.1  50    0     980.7    NA       0.0000   9999     4000  0     0    
2019/03/09  12:01:00  BASE  2.71068  136  3.62796  133  -0.1  100   -0.1  51    0     980.7    NA       0.0000   9999     3940  0     0    
2019/03/09  12:02:00  BASE  2.66952  140  3.62796  133  -0.1  100   -0.1  51    0     980.7    NA       0.0000   9999     3870  0     0    
2019/03/09  12:03:00  BASE  2.66364  143  3.62796  133  -0.0  100   -0.0  51    0     980.7    NA       0.0000   9999     3900  0     0    
2019/03/09  12:04:00  BASE  2.55192  145  3.62796  133  0.0   100   0.0   52    0     980.7    NA       0.0000   9999     3870  0     0    
2019/03/09  12:05:00  BASE  2.46372  148  3.59856  142  0.1   100   0.1   52    0     980.7    NA       0.0000   9999     3870  4790  0    
2019/03/09  12:06:00  BASE  2.63424  150  3.59856  142  0.1   100   0.1   52    0     980.7    NA       0.0000   9999     3840  4760  0    
2019/03/09  12:07:00  BASE  2.45196  147  3.44568  141  0.2   100   0.1   53    0     980.7    NA       0.0000   9999     4070  4660  0    
2019/03/09  12:08:00  BASE  2.21088  140  3.1458   140  0.2   99    0.1   53    0     980.7    NA       0.0000   9999     3840  4760  0    
2019/03/09  12:09:00  BASE  2.1756   135  2.99292  144  0.2   99    0.0   54    0     980.7    NA       0.0000   9999     3900  4720  0    
2019/03/09  12:10:00  BASE  2.1462   137  2.99292  144  0.2   98    -0.0  54    0     980.8    NA       0.0000   9999     3840  0     0    
2019/03/09  12:11:00  BASE  2.08152  143  2.96352  150  0.2   98    -0.0  55    0     980.8    NA       0.0000   9999     3770  0     0    
2019/03/09  12:12:00  BASE  1.87572  146  2.96352  150  0.3   98    -0.1  55    0     980.8    NA       0.0000   9999     3710  4760  0    
2019/03/09  12:13:00  BASE  1.71696  144  2.93412  150  0.3   97    -0.1  56    0     980.8    NA       0.0000   9999     3770  0     0    
2019/03/09  12:14:00  BASE  1.65816  140  2.93412  150  0.3   97    -0.1  57    0     980.8    NA       0.0000   9999     3810  0     0    
2019/03/09  12:15:00  BASE  1.60524  139  2.93412  150  0.4   96    -0.2  58    0     980.8    NA       0.0000   9999     3810  0     0    
2019/03/09  12:16:00  BASE  1.30536  147  2.63424  148  0.4   96    -0.2  58    0     980.8    NA       0.0000   9999     3580  0     0    
2019/03/09  12:17:00  BASE  1.04664  156  2.45196  138  0.4   95    -0.3  58    0     980.8    NA       0.0000   9999     3670  0     0    
2019/03/09  12:18:00  BASE  1.19364  158  2.45196  138  0.4   95    -0.3  59    0     980.8    NA       0.0000   9999     3810  0     0    
2019/03/09  12:19:00  BASE  1.45236  162  2.45196  138  0.4   95    -0.3  59    0     980.8    NA       0.0000   9999     3840  0     0    
2019/03/09  12:20:00  BASE  1.51704  163  2.35788  150  0.4   95    -0.3  59    0     980.8    NA       0.0000   9999     3810  0     0    
2019/03/09  12:21:00  BASE  1.40532  163  2.058    146  0.4   95    -0.3  60    0     980.9    NA       0.0000   9999     3840  0     0    
2019/03/09  12:22:00  BASE  1.37004  161  2.058    146  0.4   95    -0.3  60    0     980.9    NA       0.0000   9999     3940  0     0    
2019/03/09  12:23:00  BASE  1.3524   158  1.87572  134  0.4   95    -0.3  61    0     980.9    NA       0.0000   9999     3840  0     0    
2019/03/09  12:24:00  BASE  1.21128  155  1.84632  165  0.4   95    -0.3  62    0     980.9    NA       0.0000   9999     3870  0     0    
2019/03/09  12:25:00  BASE  1.09956  154  1.84632  165  0.3   96    -0.3  62    0     980.9    NA       0.0000   9999     3870  0     0    
2019/03/09  12:26:00  BASE  1.029    152  1.84632  165  0.3   96    -0.3  62    0     980.9    NA       0.0000   9999     3870  0     0    
2019/03/09  12:27:00  BASE  0.8232   148  1.84632  165  0.3   96    -0.2  62    0     980.9    NA       0.0000   9999     3870  0     0    
2019/03/09  12:28:00  BASE  0.34692  146  1.84632  165  0.3   97    -0.2  62    0     981.0    NA       0.0000   9999     3840  0     0    
2019/03/09  12:29:00  BASE  0        142  1.57584  159  0.3   97    -0.2  62    0     981.0    NA       0.0000   9999     3810  0     0    
2019/03/09  12:30:00  BASE  0        139  1.48176  158  0.3   96    -0.2  62    0     981.0    NA       0.0000   9999     3840  0     0    
2019/03/09  12:31:00  BASE  0        139  1.48176  158  0.3   96    -0.2  63    0     981.0    NA       0.0000   9999     3840  0     0    
2019/03/09  12:32:00  BASE  0        135  1.42296  159  0.4   96    -0.3  63    0     981.0    NA       0.0000   9999     3810  0     0    
2019/03/09  12:33:00  BASE  0.07644  82   1.21128  153  0.4   95    -0.3  64    0     981.0    NA       0.0000   9999     3740  0     0    
2019/03/09  12:34:00  BASE  0.33516  33   1.1466   153  0.4   95    -0.3  64    0     981.0    NA       0.0000   9999     3770  0     0    
2019/03/09  12:35:00  BASE  0.588    26   1.0584   152  0.4   95    -0.3  65    0     981.0    NA       0.0000   9999     3710  0     0    
2019/03/09  12:36:00  BASE  0.48804  24   0.84672  145  0.4   95    -0.3  66    0     981.0    NA       0.0000   9999     3770  0     0    
2019/03/09  12:37:00  BASE  0.15876  23   0.81732  22   0.4   95    -0.3  67    0     981.0    NA       0.0000   9999     3810  0     0    
2019/03/09  12:38:00  BASE  0.02352  22   0.81732  22   0.4   95    -0.3  68    0     981.0    NA       0.0000   9999     3770  0     0    
2019/03/09  12:39:00  BASE  0.40572  28   0.93492  38   0.4   95    -0.3  69    0     981.0    NA       0.0000   9999     3810  0     0    
2019/03/09  12:40:00  BASE  0.85848  37   0.9702   41   0.4   95    -0.3  69    0     981.0    NA       0.0000   9999     3710  0     0    
2019/03/09  12:41:00  BASE  0.96432  39   1.0878   38   0.4   95    -0.3  70    0     981.0    NA       0.0000   9999     3670  0     0    
2019/03/09  12:42:00  BASE  0.93492  35   1.0878   38   0.4   95    -0.3  70    0     981.0    NA       0.0000   9999     3740  0     0    
2019/03/09  12:43:00  BASE  0.87612  35   1.0878   38   0.4   95    -0.3  71    0     981.0    NA       0.0000   9999     3770  0     0    
2019/03/09  12:44:00  BASE  0.85848  43   1.0878   38   0.4   95    -0.3  72    0     981.1    NA       0.0000   9999     3770  0     0    
2019/03/09  12:45:00  BASE  0.79968  54   1.0878   38   0.4   95    -0.2  72    0     981.2    NA       0.0000   9999     3840  21000 0    
2019/03/09  12:46:00  BASE  0.7056   58   1.0878   38   0.4   96    -0.2  73    0     981.2    NA       0.0000   9999     3810  0     0    
2019/03/09  12:47:00  BASE  0.69972  51   1.0878   38   0.4   96    -0.2  73    0     981.2    NA       0.0000   9999     3810  0     0    
2019/03/09  12:48:00  BASE  0.92904  49   1.27008  57   0.4   96    -0.2  74    0     981.2    NA       0.0000   9999     3810  0     0    
2019/03/09  12:49:00  BASE  1.11132  45   1.27008  57   0.5   96    -0.2  74    0     981.2    NA       0.0000   9999     3840  0     0    
2019/03/09  12:50:00  BASE  0.97608  41   1.27008  57   0.5   96    -0.1  74    0     981.2    NA       0.0000   9999     3770  0     0    
2019/03/09  12:51:00  BASE  0.82908  47   1.27008  57   0.5   96    -0.1  74    0     981.2    NA       0.0000   9999     4130  0     0    
2019/03/09  12:52:00  BASE  0.77616  57   1.27008  57   0.5   96    -0.0  74    0     981.2    NA       0.0000   9999     3670  0     0    
2019/03/09  12:53:00  BASE  0.62328  67   1.27008  57   0.5   97    0.1   74    0     981.2    NA       0.0000   9999     3640  0     0    
2019/03/09  12:54:00  BASE  0.45864  73   1.27008  57   0.5   98    0.2   75    0     981.2    NA       0.0000   9999     3640  0     0    
2019/03/09  12:55:00  BASE  0.68208  73   1.27008  57   0.5   98    0.3   76    0     981.2    NA       0.0000   9999     2790  0     0    
2019/03/09  12:56:00  BASE  0.92904  69   1.27008  57   0.5   99    0.3   76    0     981.2    NA       0.0000   9999     3740  0     0    
2019/03/09  12:57:00  BASE  1.00548  65   1.27008  57   0.5   99    0.4   77    0     981.2    NA       0.0000   9999     3770  0     0    
2019/03/09  12:58:00  BASE  1.07604  63   1.24068  67   0.6   99    0.4   77    0     981.2    NA       0.0000   9999     3770  0     0    
2019/03/09  12:59:00  BASE  1.13484  62   1.27008  63   0.6   98    0.4   77    0     981.2    NA       0.0000   9999     1380  0     0    
2019/03/09  13:00:00  BASE  1.22304  62   1.35828  61   0.6   98    0.4   78    0     981.2    NA       0.0000   9999     3640  0     0    
2019/03/09  13:01:00  BASE  1.10544  65   1.35828  61   0.6   98    0.4   78    0     981.3    NA       0.0000   9999     3610  0     0    
2019/03/09  13:02:00  BASE  0.89964  73   1.35828  61   0.7   98    0.4   78    0     981.4    NA       0.0000   9999     3610  0     0    
2019/03/09  13:03:00  BASE  0.59388  78   1.35828  61   0.7   98    0.4   78    0     981.4    NA       0.0000   9999     3610  4130  0    
2019/03/09  13:04:00  BASE  0.39984  103  1.35828  61   0.7   98    0.4   78    0     981.4    NA       0.0000   9999     3640  0     0    
2019/03/09  13:05:00  BASE  0.21756  150  1.35828  61   0.7   98    0.4   79    0     981.4    NA       0.0000   9999     3580  0     0    
2019/03/09  13:06:00  BASE  0        165  1.35828  61   0.7   98    0.4   81    0     981.4    NA       0.0000   9999     3580  0     0    
2019/03/09  13:07:00  BASE  0.08232  167  1.35828  61   0.7   98    0.4   83    0     981.4    NA       0.0000   9999     3610  0     0    
2019/03/09  13:08:00  BASE  0.08232  168  1.35828  61   0.7   97    0.3   86    0     981.4    NA       0.0000   9999     3580  0     0    
2019/03/09  13:09:00  BASE  0        168  1.35828  61   0.7   97    0.3   89    0     981.4    NA       0.0000   9999     3540  4300  0    
2019/03/09  13:10:00  BASE  0        168  1.0878   68   0.6   97    0.2   93    0     981.4    NA       0.0000   9999     3580  4130  0    
2019/03/09  13:11:00  BASE  0        168  0.90552  79   0.6   97    0.2   97    0     981.4    NA       0.0000   9999     2360  4230  0    
2019/03/09  13:12:00  BASE  0        168  0.84672  90   0.6   97    0.2   99    0     981.4    NA       0.0000   9999     2230  0     0    
2019/03/09  13:13:00  BASE  0        168  0.69384  169  0.6   97    0.2   102   0     981.4    NA       0.0000   9999     2070  4070  0    
2019/03/09  13:14:00  BASE  0        167  0.69384  169  0.7   97    0.2   103   0     981.4    NA       0.0000   9999     4100  0     0    
2019/03/09  13:15:00  BASE  0        167  0.69384  169  0.7   96    0.1   104   0     981.4    NA       0.0000   9999     4100  0     0    
2019/03/09  13:16:00  BASE  0        163  0.69384  169  0.7   96    0.1   104   0     981.4    NA       0.0000   9999     4100  0     0    
2019/03/09  13:17:00  BASE  0        158  0        M    0.7   96    0.1   105   0     981.5    NA       0.0000   9999     4200  0     0    
2019/03/09  13:18:00  BASE  0.05292  164  0.63504  184  0.7   95    0.1   105   0     981.5    NA       0.0000   9999     4130  0     0    
2019/03/09  13:19:00  BASE  0.21168  181  0.69384  191  0.7   95    -0.0  106   0     981.5    NA       0.0000   9999     4070  0     0    
2019/03/09  13:20:00  BASE  0.4704   194  0.75852  193  0.7   94    -0.1  108   0     981.5    NA       0.0000   9999     4040  0     0    
2019/03/09  13:21:00  BASE  0.77028  192  1.029    181  0.7   94    -0.1  110   0     981.5    NA       0.0000   9999     4070  0     0    
2019/03/09  13:22:00  BASE  1.1466   180  1.54056  172  0.7   94    -0.1  112   0     981.5    NA       0.0000   9999     4100  0     0    
2019/03/09  13:23:00  BASE  1.5582   173  2.21088  173  0.7   95    -0.0  113   0     981.6    NA       0.0000   9999     3970  0     0    
2019/03/09  13:24:00  BASE  2.0286   172  2.69304  168  0.7   96    0.1   115   0     981.5    NA       0.0000   9999     4170  0     0    
2019/03/09  13:25:00  BASE  2.48136  169  2.78124  166  0.6   97    0.2   117   0     981.6    NA       0.0000   9999     4100  0     0    
2019/03/09  13:26:00  BASE  2.40492  165  2.78124  166  0.6   98    0.4   120   0     981.6    NA       0.0000   9999     4070  0     0    
2019/03/09  13:27:00  BASE  1.96392  166  2.78124  166  0.5   99    0.4   122   0     981.6    NA       0.0000   9999     4000  0     0    
2019/03/09  13:28:00  BASE  1.54644  169  2.78124  166  0.5   100   0.5   124   0     981.6    NA       0.0000   9999     4100  0     0    
2019/03/09  13:29:00  BASE  1.22304  169  2.78124  166  0.5   100   0.5   126   0     981.6    NA       0.0000   9999     4100  0     0    
2019/03/09  13:30:00  BASE  1.13484  168  2.78124  166  0.5   100   0.5   129   0     981.6    NA       0.0000   9999     4100  0     0    
2019/03/09  13:31:00  BASE  1.2348   170  2.78124  166  0.5   100   0.5   132   0     981.6    NA       0.0000   9999     4070  0     0    
2019/03/09  13:32:00  BASE  1.58172  175  2.78124  166  0.5   100   0.5   136   0     981.6    NA       0.0000   9999     4040  4820  21560
2019/03/09  13:33:00  BASE  1.68756  174  2.78124  166  0.5   100   0.5   139   0     981.6    NA       0.0000   9999     4040  0     0    
2019/03/09  13:34:00  BASE  1.2054   161  2.78124  166  0.5   100   0.5   143   0     981.7    NA       0.0000   9999     4040  0     0    
2019/03/09  13:35:00  BASE  0.92904  147  2.51076  164  0.5   100   0.5   148   0     981.7    NA       0.0000   9999     4000  0     0    
2019/03/09  13:36:00  BASE  1.0584   143  2.0286   174  0.5   100   0.5   153   0     981.7    NA       0.0000   9999     4040  4820  0    
2019/03/09  13:37:00  BASE  1.2054   150  2.0286   174  0.5   100   0.5   158   0     981.7    NA       0.0000   9999     4070  4690  0    
2019/03/09  13:38:00  BASE  1.35828  159  2.0286   174  0.5   100   0.5   161   0     981.7    NA       0.0000   9999     4130  4590  0    
2019/03/09  13:39:00  BASE  1.44648  161  2.0286   174  0.5   100   0.5   164   0     981.7    NA       0.0000   9999     4490  0     0    
2019/03/09  13:40:00  BASE  1.33476  154  2.0286   174  0.5   100   0.5   165   0     981.7    NA       0.0000   9999     4100  0     0    
2019/03/09  13:41:00  BASE  1.31712  143  2.0286   174  0.5   100   0.5   166   0     981.8    NA       0.0000   9999     4130  0     0    
2019/03/09  13:42:00  BASE  1.54644  139  2.0286   174  0.5   100   0.5   167   0     981.8    NA       0.0000   9999     4130  0     0    
2019/03/09  13:43:00  BASE  1.7346   140  1.90512  139  0.5   100   0.5   169   0     981.8    NA       0.0000   9999     4230  0     0    
2019/03/09  13:44:00  BASE  1.59348  147  1.90512  139  0.6   100   0.5   171   0     981.8    NA       0.0000   9999     4270  0     0    
2019/03/09  13:45:00  BASE  1.18776  146  1.90512  139  0.6   99    0.5   175   0     981.8    NA       0.0000   9999     4300  0     0    
2019/03/09  13:46:00  BASE  0.7938   141  1.90512  139  0.6   99    0.5   179   0     981.8    NA       0.0000   9999     4300  0     0    
2019/03/09  13:47:00  BASE  0.49392  139  1.90512  139  0.7   98    0.4   182   0     981.8    NA       0.0000   9999     4300  0     0    
2019/03/09  13:48:00  BASE  0.18816  116  1.90512  139  0.8   97    0.4   184   0     981.9    NA       0.0000   9999     4270  0     0    
2019/03/09  13:49:00  BASE  0        69   1.90512  139  0.8   97    0.4   185   0     981.9    NA       0.0000   9999     4270  0     0    
2019/03/09  13:50:00  BASE  0        43   1.90512  139  0.8   97    0.4   183   0     981.9    NA       0.0000   9999     4100  0     0    
2019/03/09  13:51:00  BASE  0        50   1.90512  139  0.9   97    0.5   175   0     982.0    NA       0.0000   9999     3670  0     0    
2019/03/09  13:52:00  BASE  0        76   1.87572  146  0.9   98    0.6   167   0     982.0    NA       0.0000   9999     3610  0     0    
2019/03/09  13:53:00  BASE  0        96   1.63464  150  0.9   98    0.6   163   0     982.0    NA       0.0000   9999     3640  0     0    
2019/03/09  13:54:00  BASE  0        104  1.0584   141  0.9   98    0.7   159   0     982.1    NA       0.0000   9999     3710  0     0    
2019/03/09  13:55:00  BASE  0.25284  100  1.27008  88   0.9   98    0.7   155   0     982.1    NA       0.0000   9999     3670  0     0    
2019/03/09  13:56:00  BASE  0.97608  82   1.87572  75   0.9   98    0.6   151   0     982.0    NA       0.0000   9999     3740  0     0    
2019/03/09  13:57:00  BASE  1.69932  77   2.1756   75   0.9   98    0.6   148   0     982.1    NA       0.0000   9999     3770  0     0    
2019/03/09  13:58:00  BASE  1.79928  75   2.1756   75   0.9   98    0.6   147   0     982.1    NA       0.0000   9999     3740  0     0    
2019/03/09  13:59:00  BASE  1.35828  68   2.1756   75   0.8   98    0.6   146   0     982.1    NA       0.0000   9999     3810  0     0    
2019/03/09  14:00:00  BASE  0.96432  52   2.1756   75   0.7   99    0.6   145   0     982.1    NA       0.0000   9999     3810  0     0    
2019/03/09  14:01:00  BASE  0.89376  26   2.1756   75   0.7   99    0.6   145   0     982.1    NA       0.0000   9999     3810  0     0    
2019/03/09  14:02:00  BASE  0.58212  11   2.1756   75   0.7   99    0.6   143   0     982.1    NA       0.0000   9999     3670  0     0    
2019/03/09  14:03:00  BASE  0.39396  18   2.1756   75   0.7   100   0.7   141   0     982.2    NA       0.0000   9999     3740  0     0    
2019/03/09  14:04:00  BASE  0.72324  33   2.1756   75   0.7   100   0.7   139   0     982.2    NA       0.0000   9999     3810  0     0    
2019/03/09  14:05:00  BASE  0.88788  42   2.1756   75   0.7   100   0.7   138   0     982.2    NA       0.0000   9999     3770  0     0    
2019/03/09  14:06:00  BASE  0.72324  46   2.1756   75   0.6   100   0.6   137   0     982.2    NA       0.0000   9999     3740  19230 0    
2019/03/09  14:07:00  BASE  0.31752  51   2.058    76   0.6   100   0.6   136   0     982.3    NA       0.0000   9999     3740  0     0    
2019/03/09  14:08:00  BASE  0.0588   48   1.42296  64   0.6   100   0.6   135   0     982.3    NA       0.0000   9999     3670  0     0    
2019/03/09  14:09:00  BASE  0.25872  33   1.1172   46   0.5   100   0.5   135   0     982.3    NA       0.0000   9999     3610  0     0    
2019/03/09  14:10:00  BASE  0.48216  19   1.1172   46   0.5   100   0.5   135   0     982.3    NA       0.0000   9999     3710  0     0    
2019/03/09  14:11:00  BASE  0.30576  13   1.1172   46   0.5   100   0.5   135   0     982.3    NA       0.0000   9999     3870  0     0    
2019/03/09  14:12:00  BASE  0.147    26   1.1172   46   0.5   100   0.5   135   0     982.3    NA       0.0000   9999     3840  0     0    
2019/03/09  14:13:00  BASE  0.17052  52   1.1172   46   0.5   100   0.5   135   0     982.3    NA       0.0000   9999     3870  0     0    
2019/03/09  14:14:00  BASE  0.07644  72   1.029    50   0.5   100   0.5   134   0     982.3    NA       0.0000   9999     3870  0     0    
2019/03/09  14:15:00  BASE  0        91   0.84672  17   0.6   100   0.6   134   0     982.3    NA       0.0000   9999     3870  0     0    
2019/03/09  14:16:00  BASE  0        104  0.84672  17   0.6   100   0.6   134   0     982.4    NA       0.0000   9999     3900  0     0    
2019/03/09  14:17:00  BASE  0        103  0.84672  17   0.6   100   0.6   134   0     982.4    NA       0.0000   9999     3740  0     0    
2019/03/09  14:18:00  BASE  0        87   0.84672  17   0.6   100   0.6   134   0     982.4    NA       0.0000   9999     3810  0     0    
2019/03/09  14:19:00  BASE  0        67   0.78792  54   0.7   100   0.7   134   0     982.4    NA       0.0000   9999     3740  0     0    
2019/03/09  14:20:00  BASE  0.3234   45   0.87612  25   0.8   100   0.7   134   0     982.4    NA       0.0000   9999     3770  0     0    
2019/03/09  14:21:00  BASE  0.78204  28   1.029    26   0.8   99    0.7   133   0     982.5    NA       0.0000   9999     3840  0     0    
2019/03/09  14:22:00  BASE  0.9702   28   1.1466   32   0.8   99    0.7   133   0     982.6    NA       0.0000   9999     3670  0     0    
2019/03/09  14:23:00  BASE  1.08192  35   1.21128  39   0.9   99    0.7   133   0     982.6    NA       0.0000   9999     3670  0     0    
2019/03/09  14:24:00  BASE  1.0878   41   1.21128  39   0.9   98    0.6   132   0     982.6    NA       0.0000   9999     3770  0     0    
2019/03/09  14:25:00  BASE  0.98784  39   1.21128  39   0.9   98    0.6   131   0     982.7    NA       0.0000   9999     3770  0     0    
2019/03/09  14:26:00  BASE  0.87024  35   1.21128  39   0.8   98    0.5   130   0     982.7    NA       0.0000   9999     3710  0     0    
2019/03/09  14:27:00  BASE  0.51156  34   1.21128  39   0.8   98    0.5   128   0     982.7    NA       0.0000   9999     3770  0     0    
2019/03/09  14:28:00  BASE  0.27048  20   1.21128  39   0.8   98    0.5   127   0     982.7    NA       0.0000   9999     3870  0     0    
2019/03/09  14:29:00  BASE  0.2352   3    1.21128  39   0.7   98    0.4   126   0     982.7    NA       0.0000   9999     3740  0     0    
2019/03/09  14:30:00  BASE  0.12936  353  1.21128  39   0.7   98    0.4   124   0     982.8    NA       0.0000   9999     3670  0     0    
2019/03/09  14:31:00  BASE  0.05292  358  1.21128  39   0.7   98    0.4   123   0     982.8    NA       0.0000   9999     3770  0     0    
2019/03/09  14:32:00  BASE  0        21   1.21128  39   0.7   98    0.4   122   0     982.8    NA       0.0000   9999     3770  0     0    
2019/03/09  14:33:00  BASE  0        40   1.18188  42   0.7   98    0.4   122   0     982.8    NA       0.0000   9999     3900  0     0    
2019/03/09  14:34:00  BASE  0        43   1.0584   36   0.7   98    0.4   122   0     982.9    NA       0.0000   9999     3480  0     0    
2019/03/09  14:35:00  BASE  0        33   0.90552  41   0.8   97    0.4   121   0     982.9    NA       0.0000   9999     3540  0     0    
2019/03/09  14:36:00  BASE  0        21   0.72324  31   0.8   97    0.4   122   0     982.9    NA       0.0000   9999     3450  0     0    
2019/03/09  14:37:00  BASE  0.15876  18   0.66444  23   0.8   97    0.3   122   0     982.9    NA       0.0000   9999     3480  0     0    
2019/03/09  14:38:00  BASE  0.5292   23   0.84672  29   0.8   96    0.3   122   0     982.9    NA       0.0000   9999     3540  4100  0    
2019/03/09  14:39:00  BASE  0.77616  28   0.90552  30   0.8   96    0.3   123   0     982.9    NA       0.0000   9999     3580  4070  22900
2019/03/09  14:40:00  BASE  0.83496  35   0.90552  45   0.8   96    0.2   125   0     982.9    NA       0.0000   9999     3450  4000  0    
2019/03/09  14:41:00  BASE  0.85848  44   0.9702   45   0.8   96    0.2   126   0     982.9    NA       0.0000   9999     3480  4100  0    
2019/03/09  14:42:00  BASE  0.82908  48   0.9702   45   0.8   96    0.3   128   0     982.9    NA       0.0000   9999     3540  0     0    
2019/03/09  14:43:00  BASE  0.59388  48   0.9702   45   0.8   96    0.3   130   0     982.9    NA       0.0000   9999     3480  4100  0    
2019/03/09  14:44:00  BASE  0.45864  44   0.9702   45   0.9   96    0.2   132   0     982.9    NA       0.0000   9999     3540  4130  0    
2019/03/09  14:45:00  BASE  0.60564  35   0.9702   45   0.9   95    0.3   135   0     982.9    NA       0.0000   9999     3510  3970  0    
2019/03/09  14:46:00  BASE  0.66444  26   0.9702   45   0.9   95    0.2   137   0     982.9    NA       0.0000   9999     4130  0     0    
2019/03/09  14:47:00  BASE  0.65268  16   0.9702   45   1.0   95    0.2   139   0     982.9    NA       0.0000   9999     4130  0     0    
2019/03/09  14:48:00  BASE  0.62328  13   0.9702   45   1.0   94    0.2   140   0     982.9    NA       0.0000   9999     4130  0     0    
2019/03/09  14:49:00  BASE  0.60564  13   0.9702   45   1.0   94    0.2   140   0     982.9    NA       0.0000   9999     4170  0     0    
2019/03/09  14:50:00  BASE  0.66444  17   0.9702   45   1.0   94    0.1   141   0     982.9    NA       0.0000   9999     4100  0     0    
2019/03/09  14:51:00  BASE  0.72912  27   0.93492  46   0.9   94    0.1   141   0     982.9    NA       0.0000   9999     4230  0     0    
2019/03/09  14:52:00  BASE  0.81144  36   1.0878   45   0.9   95    0.2   141   0     982.9    NA       0.0000   9999     4170  21330 23890
2019/03/09  14:53:00  BASE  0.8526   41   1.0878   45   0.9   95    0.2   140   0     982.9    NA       0.0000   9999     4230  0     0    
2019/03/09  14:54:00  BASE  0.88788  48   1.0878   45   0.9   96    0.3   140   0     982.9    NA       0.0000   9999     4230  0     0    
2019/03/09  14:55:00  BASE  0.92904  57   1.0878   50   0.9   96    0.3   140   0     983.0    NA       0.0000   9999     4000  0     0    
2019/03/09  14:56:00  BASE  0.92904  60   1.0878   63   1.0   96    0.4   140   0     983.0    NA       0.0000   9999     4100  24080 0    
2019/03/09  14:57:00  BASE  0.99372  57   1.1466   49   1.0   95    0.4   141   0     983.0    NA       0.0000   9999     4040  0     0    
2019/03/09  14:58:00  BASE  1.12308  52   1.29948  47   1.1   95    0.4   142   0     983.0    NA       0.0000   9999     4070  0     0    
2019/03/09  14:59:00  BASE  1.11132  51   1.29948  47   1.2   94    0.4   143   0     983.0    NA       0.0000   9999     4070  0     0    
2019/03/09  15:00:00  BASE  0.9996   54   1.29948  47   1.3   94    0.4   145   0     983.0    NA       0.0000   9999     4040  0     0    
2019/03/09  15:01:00  BASE  0.93492  59   1.29948  47   1.4   93    0.4   147   0     983.1    NA       0.0000   9999     3840  0     0    
2019/03/09  15:02:00  BASE  0.92316  65   1.29948  47   1.5   92    0.3   149   0     983.1    NA       0.0000   9999     3580  4000  0    
2019/03/09  15:03:00  BASE  0.81732  68   1.29948  47   1.5   92    0.3   151   0     983.1    NA       0.0000   9999     3580  4230  0    
2019/03/09  15:04:00  BASE  0.75264  73   1.29948  47   1.6   91    0.3   152   0     983.0    NA       0.0000   9999     3450  0     0    
2019/03/09  15:05:00  BASE  0.79968  82   1.29948  47   1.7   91    0.4   154   0     983.1    NA       0.0000   9999     3450  0     0    
2019/03/09  15:06:00  BASE  0.69972  82   1.29948  47   1.7   91    0.4   154   0     983.1    NA       0.0000   9999     3450  0     0    
2019/03/09  15:07:00  BASE  0.41748  75   1.29948  47   1.7   90    0.3   155   0     983.1    NA       0.0000   9999     3480  0     0    
2019/03/09  15:08:00  BASE  0.11172  68   1.18188  78   1.8   90    0.3   156   0     983.1    NA       0.0000   9999     3410  18570 19820
2019/03/09  15:09:00  BASE  0        67   1.18188  78   1.8   89    0.2   156   0     983.2    NA       0.0000   9999     3450  0     0    
2019/03/09  15:10:00  BASE  0        65   1.18188  78   1.9   88    0.1   156   0     983.2    NA       0.0000   9999     3840  0     0    
2019/03/09  15:11:00  BASE  0        62   1.18188  78   1.9   87    -0.0  156   0     983.2    NA       0.0000   9999     4230  0     0    
2019/03/09  15:12:00  BASE  0        89   0.9702   88   2.0   86    -0.1  156   0     983.2    NA       0.0000   9999     4200  0     0    
2019/03/09  15:13:00  BASE  0.22932  122  0.9702   88   2.0   86    -0.1  156   0     983.2    NA       0.0000   9999     4130  0     0    
2019/03/09  15:14:00  BASE  0.30576  133  0.84672  90   2.0   86    -0.1  156   0     983.3    NA       0.0000   9999     4230  0     0    
2019/03/09  15:15:00  BASE  0.07644  136  0.75852  134  2.0   86    -0.1  155   0     983.3    NA       0.0000   9999     4230  0     0    
2019/03/09  15:16:00  BASE  0        137  0.75852  134  1.9   86    -0.1  154   0     983.3    NA       0.0000   9999     4170  0     0    
2019/03/09  15:17:00  BASE  0        138  0.75852  134  1.9   87    -0.1  153   0     983.3    NA       0.0000   9999     4130  0     0    
2019/03/09  15:18:00  BASE  0        135  0.75852  134  1.8   87    -0.1  152   0     983.3    NA       0.0000   9999     4230  0     0    
2019/03/09  15:19:00  BASE  0        134  0.75852  134  1.8   87    -0.1  152   0     983.3    NA       0.0000   9999     4200  0     0    
2019/03/09  15:20:00  BASE  0        134  0.75852  134  1.8   87    -0.2  151   0     983.4    NA       0.0000   9999     3580  4200  0    
2019/03/09  15:21:00  BASE  0        132  0.75852  134  1.8   86    -0.2  151   0     983.4    NA       0.0000   9999     4200  0     0    
2019/03/09  15:22:00  BASE  0        108  0.75852  134  1.8   85    -0.3  151   0     983.4    NA       0.0000   9999     3840  0     0    
2019/03/09  15:23:00  BASE  0        28   0.63504  136  1.9   85    -0.4  150   0     983.4    NA       0.0000   9999     3480  4300  21390
2019/03/09  15:24:00  BASE  0        4    0        M    1.9   84    -0.4  149   0     983.4    NA       0.0000   9999     3510  4000  0    
2019/03/09  15:25:00  BASE  0        2    0        M    1.9   84    -0.4  148   0     983.4    NA       0.0000   9999     4000  0     0    
2019/03/09  15:26:01  BASE  0        353  0        M    2.0   85    -0.3  148   0     983.5    NA       0.0000   9999     4130  0     0    
2019/03/09  15:27:00  BASE  0        349  0        M    2.0   85    -0.2  147   0     983.5    NA       0.0000   9999     4100  0     0    
2019/03/09  15:28:00  BASE  0        355  0        M    2.0   86    -0.2  147   0     983.5    NA       0.0000   9999     4070  0     0    
2019/03/09  15:29:00  BASE  0        5    0        M    2.0   86    -0.1  146   0     983.5    NA       0.0000   9999     3580  0     0    
2019/03/09  15:30:00  BASE  0        12   0        M    2.0   86    -0.1  146   0     983.5    NA       0.0000   9999     3480  0     0    
2019/03/09  15:31:00  BASE  0        26   0        M    2.0   86    -0.0  145   0     983.5    NA       0.0000   9999     3580  0     0    
2019/03/09  15:32:00  BASE  0        52   0        M    2.0   87    -0.0  144   0     983.5    NA       0.0000   9999     3580  0     0    
2019/03/09  15:33:00  BASE  0        68   0        M    2.0   87    0.0   143   0     983.5    NA       0.0000   9999     3450  0     0    
2019/03/09  15:34:00  BASE  0        73   0        M    2.0   88    0.1   142   0     983.5    NA       0.0000   9999     3510  0     0    
2019/03/09  15:35:00  BASE  0        124  0        M    1.9   88    0.2   142   0     983.5    NA       0.0000   9999     3580  0     0    
2019/03/09  15:36:00  BASE  0        165  0        M    1.8   89    0.2   142   0     983.5    NA       0.0000   9999     3310  0     0    
2019/03/09  15:37:00  BASE  0        128  0        M    1.8   90    0.3   143   0     983.5    NA       0.0000   9999     3410  0     0    
2019/03/09  15:38:00  BASE  0        106  0        M    1.8   90    0.4   143   0     983.5    NA       0.0000   9999     3510  0     0    
2019/03/09  15:39:00  BASE  0        109  0        M    1.8   91    0.4   144   0     983.5    NA       0.0000   9999     3510  0     0    
2019/03/09  15:40:00  BASE  0        112  0        M    1.8   90    0.4   145   0     983.5    NA       0.0000   9999     3310  0     0    
2019/03/09  15:41:00  BASE  0.0294   110  0.63504  107  1.8   90    0.3   145   0     983.5    NA       0.0000   9999     3380  0     0    
2019/03/09  15:42:00  BASE  0.28224  105  0.78792  103  1.8   89    0.2   144   0     983.5    NA       0.0000   9999     3480  0     0    
2019/03/09  15:43:00  BASE  0.62328  102  0.81732  97   1.8   89    0.2   143   0     983.5    NA       0.0000   9999     3510  0     0    
2019/03/09  15:44:00  BASE  0.77028  97   0.84672  94   1.8   89    0.2   142   0     983.6    NA       0.0000   9999     3480  0     0    
2019/03/09  15:45:00  BASE  0.57624  94   0.84672  94   1.9   89    0.2   140   0     983.7    NA       0.0000   9999     3580  0     0    
2019/03/09  15:46:00  BASE  0.29988  96   0.84672  94   1.9   89    0.2   139   0     983.7    NA       0.0000   9999     3640  0     0    
2019/03/09  15:47:00  BASE  0.12936  100  0.84672  94   2.0   88    0.2   138   0     983.7    NA       0.0000   9999     3310  0     0    
2019/03/09  15:48:00  BASE  0.08232  134  0.84672  94   2.1   88    0.3   138   0     983.7    NA       0.0000   9999     3350  0     0    
2019/03/09  15:49:00  BASE  0.53508  190  1.29948  217  2.1   87    0.2   138   0     983.7    NA       0.0000   9999     3350  0     0    
2019/03/09  15:50:00  BASE  1.16424  212  1.57584  219  2.0   88    0.2   139   0     983.7    NA       0.0000   9999     3250  0     0    
2019/03/09  15:51:00  BASE  1.27596  219  1.57584  219  1.9   89    0.2   140   0     983.7    NA       0.0000   9999     3250  0     0    
2019/03/09  15:52:00  BASE  0.94668  223  1.57584  219  1.7   91    0.3   140   0     983.7    NA       0.0000   9999     3250  0     0    
2019/03/09  15:53:00  BASE  0.59976  225  1.57584  219  1.5   92    0.4   140   0     983.7    NA       0.0000   9999     3180  0     0    
2019/03/09  15:54:00  BASE  0.62328  225  1.57584  219  1.4   94    0.5   140   0     983.7    NA       0.0000   9999     3180  0     0    
2019/03/09  15:55:00  BASE  0.78792  223  1.57584  219  1.3   95    0.6   140   0     983.8    NA       0.0000   9999     3150  0     0    
2019/03/09  15:56:00  BASE  0.4116   224  1.57584  219  1.3   95    0.6   139   0     983.9    NA       0.0000   9999     3180  0     0    
2019/03/09  15:57:00  BASE  0.02352  227  1.57584  219  1.3   95    0.6   138   0     983.9    NA       0.0000   9999     3180  0     0    
2019/03/09  15:58:00  BASE  0        232  1.57584  219  1.3   94    0.5   138   0     983.9    NA       0.0000   9999     3220  0     0    
2019/03/09  15:59:00  BASE  0        238  1.57584  219  1.3   93    0.3   138   0     983.9    NA       0.0000   9999     3220  0     0    
2019/03/09  16:00:00  BASE  0        237  1.29948  218  1.4   92    0.2   138   0     984.0    NA       0.0000   9999     3080  0     0    
2019/03/09  16:01:00  BASE  0        230  0.90552  227  1.4   91    0.1   139   0     984.0    NA       0.0000   9999     2360  0     0    
2019/03/09  16:02:00  BASE  0        224  0.90552  227  1.5   91    0.2   141   0     984.0    NA       0.0000   9999     2300  0     0    
2019/03/09  16:03:00  BASE  0        224  0.90552  227  1.5   91    0.2   142   0     984.0    NA       0.0000   9999     3310  0     0    
2019/03/09  16:04:00  BASE  0        224  0.84672  221  1.5   91    0.3   144   0     984.0    NA       0.0000   9999     3250  0     0    
2019/03/09  16:05:00  BASE  0        188  0.60564  223  1.6   91    0.2   145   0     984.0    NA       0.0000   9999     3280  0     0    
2019/03/09  16:06:00  BASE  0        127  0        M    1.6   91    0.3   147   0     984.1    NA       0.0000   9999     3250  0     0    
2019/03/09  16:07:00  BASE  0        80   0        M    1.7   90    0.2   148   0     984.1    NA       0.0000   9999     3410  0     0    
2019/03/09  16:08:00  BASE  0        45   0        M    1.8   90    0.3   147   0     984.1    NA       0.0000   9999     3380  0     0    
2019/03/09  16:09:00  BASE  0        35   0        M    1.8   89    0.3   145   0     984.1    NA       0.0000   9999     3150  0     0    
2019/03/09  16:10:00  BASE  0        36   0        M    1.9   89    0.3   142   0     984.1    NA       0.0000   9999     3220  21920 0    
2019/03/09  16:11:00  BASE  0        44   0        M    2.0   89    0.3   140   0     984.1    NA       0.0000   9999     2950  0     0    
2019/03/09  16:12:00  BASE  0        55   0        M    2.0   89    0.4   138   0     984.1    NA       0.0000   9999     3020  0     0    
2019/03/09  16:13:00  BASE  0        60   0        M    2.1   89    0.4   137   0     984.1    NA       0.0000   9999     2990  0     0    
2019/03/09  16:14:00  BASE  0        63   0        M    2.1   89    0.5   138   0     984.1    NA       0.0000   9999     2920  20010 0    
2019/03/09  16:15:00  BASE  0        66   0        M    2.1   89    0.5   140   0     984.2    NA       0.0000   9999     2890  0     0    
2019/03/09  16:16:00  BASE  0        65   0        M    2.1   89    0.5   142   0     984.1    NA       0.0000   9999     1080  0     0    
2019/03/09  16:17:00  BASE  0        42   0        M    2.2   89    0.5   144   0     984.2    NA       0.0000   9999     2760  0     0    
2019/03/09  16:18:00  BASE  0        17   0        M    2.2   89    0.5   145   0     984.2    NA       0.0000   9999     2820  0     0    
2019/03/09  16:19:00  BASE  0.42924  360  1.32888  337  2.2   89    0.5   146   0     984.2    NA       0.0000   9999     2850  0     0    
2019/03/09  16:20:00  BASE  1.03488  344  1.42296  348  2.1   89    0.5   146   0     984.2    NA       0.0000   9999     2850  0     0    
2019/03/09  16:21:00  BASE  1.176    347  1.42296  348  1.9   90    0.5   146   0     984.2    NA       0.0000   9999     2820  0     0    
2019/03/09  16:22:00  BASE  1.04076  0    1.42296  348  1.7   91    0.4   145   0     984.2    NA       0.0000   9999     3310  0     0    
2019/03/09  16:23:00  BASE  0.84084  2    1.42296  348  1.5   92    0.4   144   0     984.2    NA       0.0000   9999     1250  0     0    
2019/03/09  16:24:00  BASE  0.65268  355  1.42296  348  1.4   94    0.4   143   0     984.2    NA       0.0000   9999     3280  0     0    
2019/03/09  16:25:00  BASE  0.54684  4    1.42296  348  1.3   94    0.5   142   0     984.3    NA       0.0000   9999     3220  0     0    
2019/03/09  16:26:00  BASE  0.40572  12   1.42296  348  1.3   95    0.6   141   0     984.3    NA       0.0000   9999     3080  0     0    
2019/03/09  16:27:00  BASE  0.50568  11   1.42296  348  1.4   94    0.5   142   0     984.3    NA       0.0000   9999     3020  0     0    
2019/03/09  16:28:00  BASE  0.71736  16   1.42296  348  1.4   94    0.5   143   0     984.3    NA       0.0000   9999     3050  0     0    
2019/03/09  16:29:00  BASE  0.74088  19   1.42296  348  1.5   93    0.6   143   0     984.3    NA       0.0000   9999     1020  0     0    
2019/03/09  16:30:00  BASE  0.89964  27   1.24068  344  1.6   93    0.6   145   0     984.3    NA       0.0000   9999     950   0     0    
2019/03/09  16:31:00  BASE  1.08192  31   1.18188  12   1.7   92    0.6   147   0     984.3    NA       0.0000   9999     950   0     0    
2019/03/09  16:32:00  BASE  1.09368  25   1.1466   21   1.7   92    0.6   148   0     984.4    NA       0.0000   9999     720   0     0    
2019/03/09  16:33:00  BASE  1.00548  19   1.1466   21   1.8   92    0.7   150   0     984.4    NA       0.0000   9999     690   0     0    
2019/03/09  16:34:00  BASE  0.90552  18   1.1466   21   1.8   92    0.6   151   0     984.5    NA       0.0000   9999     3150  0     0    
2019/03/09  16:35:00  BASE  0.86436  21   1.1466   21   1.8   92    0.7   152   0     984.5    NA       0.0000   9999     3150  0     0    
2019/03/09  16:36:00  BASE  0.8232   24   1.1466   21   1.9   92    0.7   153   0     984.5    NA       0.0000   9999     3120  0     0    
2019/03/09  16:37:00  BASE  0.6762   25   1.1466   21   1.9   92    0.7   153   0     984.5    NA       0.0000   9999     3150  0     0    
2019/03/09  16:38:00  BASE  0.60564  23   1.1466   21   1.9   92    0.7   154   0     984.5    NA       0.0000   9999     3150  0     0    
2019/03/09  16:39:00  BASE  0.4704   26   1.1466   21   1.9   92    0.7   154   0     984.6    NA       0.0000   9999     3220  0     0    
2019/03/09  16:40:00  BASE  0.32928  29   1.1466   21   2.0   92    0.7   153   0     984.6    NA       0.0000   9999     3220  0     0    
2019/03/09  16:41:00  BASE  0.42336  24   1.1466   21   2.0   92    0.8   153   0     984.6    NA       0.0000   9999     3180  0     0    
2019/03/09  16:42:00  BASE  0.66444  27   1.029    18   2.0   91    0.8   153   0     984.6    NA       0.0000   9999     3180  0     0    
2019/03/09  16:43:00  BASE  0.84084  36   0.9702   33   2.1   91    0.8   154   0     984.6    NA       0.0000   9999     3150  0     0    
2019/03/09  16:44:00  BASE  0.81732  35   1.029    43   2.1   91    0.8   155   0     984.7    NA       0.0000   9999     3180  0     0    
2019/03/09  16:45:00  BASE  0.84084  33   1.029    43   2.1   91    0.8   157   0     984.7    NA       0.0000   9999     3180  0     0    
2019/03/09  16:46:00  BASE  0.79968  39   1.029    43   2.1   91    0.7   159   0     984.7    NA       0.0000   9999     3280  0     0    
2019/03/09  16:47:00  BASE  0.75852  42   1.029    43   2.1   91    0.7   160   0     984.7    NA       0.0000   9999     3250  0     0    
2019/03/09  16:48:00  BASE  0.78204  41   1.029    43   2.1   91    0.7   161   0     984.7    NA       0.0000   9999     3280  0     0    
2019/03/09  16:49:00  BASE  0.81732  39   1.029    43   2.1   91    0.7   162   0     984.8    NA       0.0000   9999     2890  3480  0    
2019/03/09  16:50:00  BASE  0.81732  41   1.029    43   2.0   91    0.8   162   0     984.8    NA       0.0000   9999     2820  3410  0    
2019/03/09  16:51:00  BASE  0.62328  38   1.029    43   2.1   92    0.8   161   0     984.8    NA       0.0000   9999     3280  0     0    
2019/03/09  16:52:00  BASE  0.50568  32   1.029    43   2.1   92    0.9   160   0     984.8    NA       0.0000   9999     3280  0     0    
2019/03/09  16:53:00  BASE  0.65856  32   1.029    43   2.1   92    1.0   159   0     984.8    NA       0.0000   9999     3280  0     0    
2019/03/09  16:54:00  BASE  0.65268  33   0.9996   33   2.1   92    1.0   158   0     984.8    NA       0.0000   9999     3280  0     0    
2019/03/09  16:55:00  BASE  0.57036  31   0.9702   42   2.2   92    1.0   157   0     984.8    NA       0.0000   9999     2720  3280  0    
2019/03/09  16:56:00  BASE  0.4998   29   0.9702   42   2.2   92    1.0   156   0     984.8    NA       0.0000   9999     2620  3280  0    
2019/03/09  16:57:00  BASE  0.441    28   0.9702   42   2.2   92    1.0   156   0     984.9    NA       0.0000   9999     3310  0     0    
2019/03/09  16:58:00  BASE  0.4116   30   0.9702   42   2.2   92    1.1   155   0     984.9    NA       0.0000   9999     3150  0     0    
2019/03/09  16:59:00  BASE  0.3528   31   0.84672  39   2.3   92    1.1   154   0     984.9    NA       0.0000   9999     3080  0     0    
2019/03/09  17:00:00  BASE  0.2646   31   0.81732  27   2.3   92    1.0   154   0     984.9    NA       0.0000   9999     2890  0     0    
2019/03/09  17:01:00  BASE  0.30576  32   0.81732  27   2.3   91    1.0   154   0     984.9    NA       0.0000   9999     3020  0     0    
2019/03/09  17:02:00  BASE  0.45864  27   0.81732  27   2.3   91    0.9   155   0     984.9    NA       0.0000   9999     3020  0     0    
2019/03/09  17:03:00  BASE  0.39396  26   0.78792  34   2.2   91    0.9   156   0     984.9    NA       0.0000   9999     2720  0     0    
2019/03/09  17:04:00  BASE  0.45864  33   0.78792  43   2.3   91    0.9   158   0     984.9    NA       0.0000   9999     2720  0     0    
2019/03/09  17:05:00  BASE  0.5586   40   0.81732  40   2.3   91    0.9   158   0     984.9    NA       0.0000   9999     2890  0     0    
2019/03/09  17:06:00  BASE  0.61152  42   0.90552  35   2.4   91    1.0   158   0     984.9    NA       0.0000   9999     2760  0     0    
2019/03/09  17:07:00  BASE  0.6762   38   0.90552  35   2.4   90    1.0   158   0     985.0    NA       0.0000   9999     2760  0     0    
2019/03/09  17:08:00  BASE  0.80556  39   1.21128  52   2.4   91    1.0   157   0     985.1    NA       0.0000   9999     2850  0     0    
2019/03/09  17:09:00  BASE  0.87612  39   1.21128  52   2.5   90    1.0   156   0     985.1    NA       0.0000   9999     2790  0     0    
2019/03/09  17:10:00  BASE  0.69972  36   1.21128  52   2.5   90    1.0   156   0     985.1    NA       0.0000   9999     2820  0     0    
2019/03/09  17:11:00  BASE  0.65268  37   1.21128  52   2.5   90    1.0   155   0     985.1    NA       0.0000   9999     2890  0     0    
2019/03/09  17:12:00  BASE  0.65268  29   1.21128  52   2.4   90    0.9   153   0     985.1    NA       0.0000   9999     2790  0     0    
2019/03/09  17:13:00  BASE  0.68796  23   1.21128  52   2.4   89    0.9   151   0     985.1    NA       0.0000   9999     2760  0     0    
2019/03/09  17:14:00  BASE  0.7938   27   1.21128  52   2.4   89    0.9   148   0     985.2    NA       0.0000   9999     2760  0     0    
2019/03/09  17:15:00  BASE  0.69384  29   1.21128  52   2.4   89    0.9   146   0     985.2    NA       0.0000   9999     2760  0     0    
2019/03/09  17:16:00  BASE  0.50568  30   1.21128  52   2.4   90    0.9   144   0     985.2    NA       0.0000   9999     2720  0     0    
2019/03/09  17:17:00  BASE  0.29988  24   1.21128  52   2.5   90    0.9   142   0     985.3    NA       0.0000   9999     2720  0     0    
2019/03/09  17:18:00  BASE  0.08232  15   1.0878   41   2.4   90    1.0   141   0     985.3    NA       0.0000   9999     2720  0     0    
2019/03/09  17:19:00  BASE  0.02352  356  1.0878   41   2.4   90    0.9   140   0     985.3    NA       0.0000   9999     2660  0     0    
2019/03/09  17:20:00  BASE  0.02352  332  1.0878   41   2.4   90    1.0   139   0     985.3    NA       0.0000   9999     2660  0     0    
2019/03/09  17:21:00  BASE  0.48216  320  1.54056  307  2.4   90    1.0   137   0     985.4    NA       0.0000   9999     2660  0     0    
2019/03/09  17:22:00  BASE  1.2936   303  1.75224  293  2.4   90    0.9   135   0     985.4    NA       0.0000   9999     2590  0     0    
2019/03/09  17:23:00  BASE  1.50528  296  1.75224  293  2.3   91    1.0   134   0     985.4    NA       0.0000   9999     2460  0     0    
2019/03/09  17:24:00  BASE  1.55232  296  1.96392  290  2.2   92    1.0   133   0     985.4    NA       0.0000   9999     2530  0     0    
2019/03/09  17:25:00  BASE  1.71696  294  1.96392  290  2.0   93    1.0   132   0     985.4    NA       0.0000   9999     2530  22610 0    
2019/03/09  17:26:00  BASE  1.50528  294  1.96392  290  1.9   95    1.1   131   0     985.4    NA       0.0000   9999     2590  0     0    
2019/03/09  17:27:00  BASE  1.04076  298  1.96392  290  1.8   96    1.2   130   0     985.4    NA       0.0000   9999     2790  0     0    
2019/03/09  17:28:00  BASE  0.82908  306  1.96392  290  1.7   97    1.3   130   0     985.4    NA       0.0000   9000     2560  0     0    
2019/03/09  17:29:00  BASE  0.97608  307  1.96392  290  1.6   98    1.3   130   0     985.4    NA       0.0000   9999     2660  0     0    
2019/03/09  17:30:00  BASE  1.3524   305  1.96392  290  1.6   99    1.4   131   0     985.4    NA       0.0000   9999     2460  0     0    
2019/03/09  17:31:00  BASE  1.72284  306  1.96392  290  1.6   99    1.4   133   0     985.4    NA       0.0000   9999     2560  0     0    
2019/03/09  17:32:00  BASE  1.7934   307  1.96392  290  1.5   99    1.4   135   0     985.5    NA       0.0000   9999     2590  0     0    
2019/03/09  17:33:00  BASE  1.59348  307  1.96392  290  1.5   99    1.4   137   0     985.6    NA       0.0000   9999     2530  0     0    
2019/03/09  17:34:00  BASE  1.35828  308  1.90512  305  1.6   99    1.5   139   0     985.6    NA       0.0000   9999     2490  3050  0    
2019/03/09  17:35:00  BASE  1.22304  310  1.90512  305  1.6   100   1.5   140   0     985.6    NA       0.0000   9999     2850  0     0    
2019/03/09  17:36:00  BASE  1.16424  312  1.90512  305  1.6   100   1.5   140   0     985.6    NA       0.0000   9999     2490  0     0    
2019/03/09  17:37:00  BASE  1.17012  317  1.90512  305  1.6   100   1.6   139   0     985.7    NA       0.0000   9999     2660  0     0    
2019/03/09  17:38:00  BASE  1.2348   324  1.90512  305  1.6   100   1.6   138   0     985.7    NA       0.0000   9999     2460  0     0    
2019/03/09  17:39:00  BASE  1.2642   326  1.90512  305  1.6   100   1.6   137   0     985.7    NA       0.0000   9999     2590  24250 0    
2019/03/09  17:40:00  BASE  1.15248  325  1.90512  305  1.6   100   1.6   136   0     985.7    NA       0.0000   9999     2490  0     0    
2019/03/09  17:41:00  BASE  1.09956  323  1.87572  305  1.6   100   1.6   136   0     985.8    NA       0.0000   9999     2460  0     0    
2019/03/09  17:42:00  BASE  1.08192  321  1.72284  307  1.7   100   1.7   135   0     985.8    NA       0.0000   9999     2660  0     0    
2019/03/09  17:43:00  BASE  0.94668  324  1.54056  303  1.7   100   1.7   134   0     985.8    NA       0.0000   9999     2590  0     0    
2019/03/09  17:44:00  BASE  0.92316  335  1.42296  327  1.7   100   1.7   133   0     985.8    NA       0.0000   9999     2660  0     0    
2019/03/09  17:45:00  BASE  0.92316  342  1.42296  327  1.6   100   1.6   132   0     985.8    NA       0.0000   9999     2620  0     0    
2019/03/09  17:46:00  BASE  0.86436  337  1.42296  327  1.6   100   1.6   131   0     985.8    NA       0.0000   9999     2790  0     0    
2019/03/09  17:47:00  BASE  0.93492  331  1.42296  327  1.5   100   1.5   131   0     985.8    NA       0.0000   9999     2530  0     0    
2019/03/09  17:48:00  BASE  0.9996   328  1.35828  323  1.5   100   1.5   130   0     985.8    NA       0.0000   9999     2560  0     0    
2019/03/09  17:49:00  BASE  1.04076  329  1.35828  323  1.5   100   1.4   129   0     985.8    NA       0.0000   9999     2790  0     0    
2019/03/09  17:50:00  BASE  1.0584   331  1.35828  323  1.5   100   1.5   128   0     985.8    NA       0.0000   9999     2890  0     0    
2019/03/09  17:51:00  BASE  1.07604  337  1.32888  320  1.5   100   1.5   127   0     985.9    NA       0.0000   9999     2560  0     0    
2019/03/09  17:52:00  BASE  1.0584   345  1.29948  345  1.5   100   1.5   125   0     985.9    NA       0.0000   9999     2850  0     0    
2019/03/09  17:53:00  BASE  1.09956  349  1.39356  343  1.5   100   1.5   123   0     985.9    NA       0.0000   9999     2820  0     0    
2019/03/09  17:54:00  BASE  1.2054   347  1.48176  341  1.4   100   1.4   121   0     985.9    NA       0.0000   9999     2760  0     0    
2019/03/09  17:55:00  BASE  1.27008  343  1.54056  341  1.4   100   1.4   120   0     986.0    NA       0.0000   9999     2760  22900 0    
2019/03/09  17:56:00  BASE  1.28772  340  1.54056  335  1.3   100   1.3   119   0     986.0    NA       0.0000   9999     2720  0     0    
2019/03/09  17:57:00  BASE  1.19952  338  1.54056  335  1.3   100   1.3   119   0     986.0    NA       0.0000   9999     2790  0     0    
2019/03/09  17:58:00  BASE  1.22892  333  1.54056  335  1.4   100   1.4   119   0     986.0    NA       0.0000   9999     2620  20870 0    
2019/03/09  17:59:00  BASE  1.323    334  1.60524  329  1.4   100   1.4   120   0     986.0    NA       0.0000   9999     2560  0     0    
2019/03/09  18:00:00  BASE  1.3524   335  1.60524  329  1.4   100   1.4   122   0     986.0    NA       0.0000   9999     2460  0     0    
2019/03/09  18:01:00  BASE  1.32888  334  1.60524  329  1.4   100   1.4   124   0     986.0    NA       0.0000   9999     2360  0     0    
2019/03/09  18:02:00  BASE  1.25244  333  1.60524  329  1.4   100   1.4   126   0     986.0    NA       0.0000   9999     2690  0     0    
2019/03/09  18:03:00  BASE  1.17012  334  1.60524  329  1.4   100   1.4   128   0     986.0    NA       0.0000   9999     2720  0     0    
2019/03/09  18:04:00  BASE  1.16424  337  1.60524  329  1.4   100   1.4   129   0     986.0    NA       0.0000   9999     2720  0     0    
2019/03/09  18:05:00  BASE  1.27008  338  1.60524  329  1.4   100   1.4   130   0     986.0    NA       0.0000   9999     2820  0     0    
2019/03/09  18:06:00  BASE  1.36416  337  1.60524  329  1.4   100   1.4   131   0     986.0    NA       0.0000   9999     2790  0     0    
2019/03/09  18:07:00  BASE  1.24656  340  1.60524  329  1.4   100   1.4   132   0     986.0    NA       0.0000   9999     2890  0     0    
2019/03/09  18:08:00  BASE  1.07604  354  1.60524  329  1.4   100   1.4   132   0     986.0    NA       0.0000   9999     2850  0     0    
2019/03/09  18:09:00  BASE  1.09368  3    1.57584  333  1.4   100   1.4   133   0     986.0    NA       0.0000   9999     2820  0     0    
2019/03/09  18:10:00  BASE  1.04664  4    1.54056  337  1.4   100   1.4   135   0     986.0    NA       0.0000   9999     2760  0     0    
2019/03/09  18:11:00  BASE  0.98784  12   1.54056  337  1.4   100   1.4   137   0     986.0    NA       0.0000   9999     2620  0     0    
2019/03/09  18:12:00  BASE  1.04664  13   1.54056  337  1.4   100   1.4   140   0     986.0    NA       0.0000   9999     2620  0     0    
2019/03/09  18:13:00  BASE  0.98784  4    1.54056  337  1.4   100   1.4   142   0     986.1    NA       0.0000   9999     2660  0     0    
2019/03/09  18:14:00  BASE  0.89964  356  1.54056  337  1.5   100   1.5   143   0     986.1    NA       0.0000   9999     2330  0     0    
2019/03/09  18:15:00  BASE  0.82908  347  1.54056  337  1.5   100   1.5   142   0     986.2    NA       0.0000   9999     2720  0     0    
2019/03/09  18:16:00  BASE  0.83496  341  1.29948  9    1.5   100   1.5   141   0     986.2    NA       0.0000   9999     2200  2760  0    
2019/03/09  18:17:00  BASE  0.89964  338  1.29948  9    1.5   100   1.5   139   0     986.2    NA       0.0000   9999     2200  2720  0    
2019/03/09  18:18:00  BASE  0.9702   335  1.29948  9    1.5   100   1.5   137   0     986.2    NA       0.0000   9999     2300  0     0    
2019/03/09  18:19:00  BASE  1.0584   337  1.24068  28   1.5   100   1.5   136   0     986.2    NA       0.0000   9999     2360  0     0    
2019/03/09  18:20:00  BASE  0.98784  340  1.24068  28   1.6   100   1.6   134   0     986.3    NA       0.0000   9999     2260  0     0    
2019/03/09  18:21:00  BASE  0.81144  342  1.21128  9    1.7   100   1.6   134   0     986.3    NA       0.0000   9999     2260  0     0    
2019/03/09  18:22:00  BASE  0.58212  340  1.1466   340  1.7   99    1.6   132   0     986.3    NA       0.0000   9999     2300  0     0    
2019/03/09  18:23:00  BASE  0.25872  329  1.1466   340  1.7   99    1.6   131   0     986.4    NA       0.0000   9999     2230  0     0    
2019/03/09  18:24:00  BASE  0.05292  322  1.1466   340  1.8   99    1.6   130   0     986.4    NA       0.0000   9999     2200  0     0    
2019/03/09  18:25:00  BASE  0        327  1.1466   340  1.8   99    1.6   129   0     986.4    NA       0.0000   9999     2260  0     0    
2019/03/09  18:26:00  BASE  0        346  1.1466   340  1.8   99    1.6   128   0     986.4    NA       0.0000   9999     2260  0     0    
2019/03/09  18:27:00  BASE  0        9    1.1466   340  1.7   98    1.5   127   0     986.4    NA       0.0000   9999     2260  0     0    
2019/03/09  18:28:00  BASE  0        16   1.1466   340  1.7   98    1.4   127   0     986.4    NA       0.0000   9999     2230  2820  0    
2019/03/09  18:29:00  BASE  0        10   0.9996   342  1.7   97    1.4   127   0     986.4    NA       0.0000   9999     2230  0     0    
2019/03/09  18:30:00  BASE  0        311  0.90552  345  1.7   97    1.3   126   0     986.5    NA       0.0000   9999     2200  0     0    
2019/03/09  18:31:00  BASE  0        259  0.81732  351  1.7   97    1.3   126   0     986.5    NA       0.0000   9999     2400  0     0    
2019/03/09  18:32:00  BASE  0        240  0.63504  331  1.8   97    1.4   125   0     986.5    NA       0.0000   9999     2300  0     0    
2019/03/09  18:33:00  BASE  0        229  0        M    1.8   97    1.4   125   0     986.5    NA       0.0000   9999     2170  0     0    
2019/03/09  18:34:00  BASE  0        234  0        M    1.8   98    1.4   126   0     986.5    NA       0.0000   9999     2200  0     0    
2019/03/09  18:35:00  BASE  0        233  0        M    1.8   98    1.5   127   0     986.5    NA       0.0000   9999     2130  0     0    
2019/03/09  18:36:00  BASE  0        227  0        M    1.8   98    1.5   128   0     986.5    NA       0.0000   9999     2330  0     0    
2019/03/09  18:37:00  BASE  0        221  0        M    1.8   98    1.5   129   0     986.5    NA       0.0000   9999     2300  0     0    
2019/03/09  18:38:00  BASE  0        219  0        M    1.7   98    1.5   131   0     986.5    NA       0.0000   9999     2300  0     0    
2019/03/09  18:39:00  BASE  0        219  0        M    1.7   98    1.5   133   0     986.4    NA       0.0000   9999     2300  0     0    
2019/03/09  18:40:00  BASE  0        216  0        M    1.7   99    1.5   134   0     986.4    NA       0.0000   9999     2330  0     0    
2019/03/09  18:41:00  BASE  0        199  0        M    1.7   99    1.6   135   0     986.4    NA       0.0000   9999     2400  0     0    
2019/03/09  18:42:00  BASE  0        168  0        M    1.8   99    1.6   133   0     986.4    NA       0.0000   9999     2300  0     0    
2019/03/09  18:43:00  BASE  0        154  0        M    1.8   99    1.7   131   0     986.5    NA       0.0000   9999     2360  3020  0    
2019/03/09  18:44:00  BASE  0        167  0        M    1.9   99    1.7   127   0     986.5    NA       0.0000   9999     2360  0     0    
2019/03/09  18:45:00  BASE  0        178  0        M    1.9   99    1.7   124   0     986.5    NA       0.0000   9999     2260  2990  0    
2019/03/09  18:46:00  BASE  0        178  0        M    1.9   99    1.7   122   0     986.5    NA       0.0000   9999     2200  2890  0    
2019/03/09  18:47:00  BASE  0        180  0        M    1.9   99    1.7   122   0     986.5    NA       0.0000   9999     2170  2950  0    
2019/03/09  18:48:00  BASE  0        184  0        M    1.9   99    1.8   123   0     986.5    NA       0.0000   9999     2100  2950  0    
2019/03/09  18:49:00  BASE  0        196  0        M    1.9   100   1.8   125   0     986.5    NA       0.0000   9999     2170  2990  0    
2019/03/09  18:50:00  BASE  0        215  0        M    1.9   100   1.8   128   0     986.6    NA       0.0000   9999     2130  2950  0    
2019/03/09  18:51:00  BASE  0        228  0        M    1.9   100   1.8   130   0     986.5    NA       0.0000   9999     2230  2820  0    
2019/03/09  18:52:00  BASE  0        218  0        M    1.9   100   1.8   131   0     986.6    NA       0.0000   9999     2200  0     0    
2019/03/09  18:53:00  BASE  0        199  0        M    1.8   100   1.8   130   0     986.6    NA       0.0000   9999     2170  2790  0    
2019/03/09  18:54:00  BASE  0.15876  194  0.90552  191  1.8   100   1.8   129   0     986.6    NA       0.0000   9999     2230  2820  0    
2019/03/09  18:55:00  BASE  0.59388  179  1.029    150  1.8   100   1.8   129   0     986.6    NA       0.0000   9999     2200  2850  0    
2019/03/09  18:56:00  BASE  1.01136  169  1.54056  178  1.8   100   1.8   129   0     986.6    NA       0.0000   9999     2130  2790  0    
2019/03/09  18:57:00  BASE  1.47     169  2.29908  162  1.8   100   1.8   132   0     986.6    NA       0.0000   9999     2100  2790  0    
2019/03/09  18:58:00  BASE  1.95216  163  2.38728  156  1.8   100   1.8   135   0     986.6    NA       0.0000   9999     2100  2820  0    
2019/03/09  18:59:00  BASE  2.058    157  2.38728  148  1.8   100   1.8   137   0     986.6    NA       0.0000   9999     2100  2790  0    
2019/03/09  19:00:00  BASE  1.9698   154  2.38728  148  1.8   100   1.8   137   0     986.6    NA       0.0000   9999     2130  2820  0    
2019/03/09  19:01:00  BASE  1.98156  152  2.38728  148  1.8   100   1.8   134   0     986.6    NA       0.0000   9999     2130  2850  0    
2019/03/09  19:02:00  BASE  1.89336  146  2.38728  148  1.8   100   1.8   128   0     986.6    NA       0.0000   9999     2100  2890  0    
2019/03/09  19:03:00  BASE  1.80516  140  2.38728  148  1.7   100   1.7   122   0     986.6    NA       0.0000   9999     2070  2850  0    
2019/03/09  19:04:00  BASE  1.90512  140  2.38728  148  1.7   100   1.7   115   0     986.6    NA       0.0000   9999     2070  2890  0    
2019/03/09  19:05:00  BASE  2.06388  142  2.38728  148  1.7   100   1.7   110   0     986.6    NA       0.0000   9999     2000  0     0    
2019/03/09  19:06:00  BASE  2.24028  142  2.56956  139  1.7   100   1.7   106   0     986.6    NA       0.0000   9999     2030  2890  0    
2019/03/09  19:07:00  BASE  2.42844  139  2.66364  138  1.7   100   1.7   103   0     986.6    NA       0.0000   9999     2030  2850  0    
2019/03/09  19:08:00  BASE  2.44608  137  2.66364  138  1.6   100   1.6   101   0     986.6    NA       0.0000   9999     2070  2850  0    
2019/03/09  19:09:00  BASE  2.33436  135  2.66364  138  1.6   100   1.6   98    0     986.6    NA       0.0000   9999     2070  2790  0    
2019/03/09  19:10:00  BASE  2.19912  133  2.66364  138  1.6   100   1.6   96    0     986.6    NA       0.0000   9999     2070  2850  0    
2019/03/09  19:11:00  BASE  1.98156  127  2.66364  138  1.6   100   1.6   94    0     986.6    NA       0.0000   9999     2070  2920  0    
2019/03/09  19:12:00  BASE  1.84044  126  2.66364  138  1.6   100   1.6   92    0     986.6    NA       0.0000   9999     2070  2920  0    
2019/03/09  19:13:00  BASE  1.74636  128  2.66364  138  1.6   100   1.6   91    0     986.6    NA       0.0000   9999     2100  0     0    
2019/03/09  19:14:00  BASE  1.54644  126  2.66364  138  1.7   100   1.7   89    0     986.6    NA       0.0000   9999     2100  2990  0    
2019/03/09  19:15:00  BASE  1.4406   126  2.66364  138  1.7   100   1.7   89    0     986.6    NA       0.0000   9999     2100  20900 0    
2019/03/09  19:16:00  BASE  1.43472  124  2.66364  138  1.8   100   1.8   88    0     986.6    NA       0.0000   9999     2100  0     0    
2019/03/09  19:17:00  BASE  1.2642   123  2.54016  136  1.8   100   1.8   89    0     986.6    NA       0.0000   9999     2100  0     0    
2019/03/09  19:18:00  BASE  0.97608  124  2.42256  132  1.8   100   1.8   89    0     986.6    NA       0.0000   9999     2070  0     0    
2019/03/09  19:19:00  BASE  0.81144  127  2.38728  137  1.9   100   1.8   90    0     986.6    NA       0.0000   9999     2070  0     0    
2019/03/09  19:20:00  BASE  0.78792  129  2.1462   136  1.9   99    1.7   91    0     986.6    NA       0.0000   9999     2070  0     0    
2019/03/09  19:21:00  BASE  0.77028  127  2.1462   136  1.9   99    1.7   91    0     986.6    NA       0.0000   9999     2070  0     0    
2019/03/09  19:22:00  BASE  0.78792  124  1.87572  128  1.9   98    1.6   92    0     986.6    NA       0.0000   9999     2100  0     0    
2019/03/09  19:23:00  BASE  0.79968  122  1.75224  130  1.9   98    1.6   93    0     986.6    NA       0.0000   9999     2070  0     0    
2019/03/09  19:24:00  BASE  0.54684  123  1.75224  130  1.9   97    1.5   95    0     986.6    NA       0.0000   9999     2070  0     0    
2019/03/09  19:25:00  BASE  0.22932  121  1.63464  121  1.9   97    1.5   97    0     986.6    NA       0.0000   9999     2070  0     0    
2019/03/09  19:26:00  BASE  0.16464  122  1.35828  127  1.9   97    1.4   98    0     986.6    NA       0.0000   9999     2070  0     0    
2019/03/09  19:27:00  BASE  0.294    128  1.0878   135  1.9   96    1.4   98    0     986.6    NA       0.0000   9999     2100  2920  0    
2019/03/09  19:28:00  BASE  0.25872  122  1.0878   135  2.0   96    1.4   98    0     986.6    NA       0.0000   9999     2170  2990  0    
2019/03/09  19:29:00  BASE  0.05292  115  1.0878   135  2.0   96    1.4   98    0     986.6    NA       0.0000   9999     2130  2990  0    
2019/03/09  19:30:00  BASE  0        137  0.9702   113  2.0   96    1.4   97    0     986.6    NA       0.0000   9999     2170  3050  0    
2019/03/09  19:31:00  BASE  0        140  0.9702   113  2.0   96    1.4   97    0     986.6    NA       0.0000   9999     2170  3050  0    
2019/03/09  19:32:00  BASE  0        87   0.9702   113  2.0   96    1.4   97    0     986.6    NA       0.0000   9999     2200  0     0    
2019/03/09  19:33:00  BASE  0.15876  55   0.93492  120  1.9   97    1.5   97    0     986.6    NA       0.0000   9999     2130  0     0    
2019/03/09  19:34:00  BASE  0.42924  42   0.90552  36   1.9   97    1.5   97    0     986.6    NA       0.0000   9999     2130  0     0    
2019/03/09  19:35:00  BASE  0.59388  33   0.93492  28   1.9   98    1.5   97    0     986.6    NA       0.0000   9999     2130  0     0    
2019/03/09  19:36:00  BASE  0.74088  39   0.9996   41   1.8   98    1.5   97    0     986.6    NA       0.0000   9999     2130  0     0    
2019/03/09  19:37:00  BASE  0.79968  42   0.9996   41   1.7   99    1.5   97    0     986.6    NA       0.0000   9999     2100  0     0    
2019/03/09  19:38:00  BASE  0.441    40   0.9996   41   1.6   99    1.5   97    0     986.6    NA       0.0000   9999     2100  0     0    
2019/03/09  19:39:00  BASE  0.08232  39   0.9996   41   1.5   100   1.5   96    0     986.6    NA       0.0000   9999     2070  0     0    
2019/03/09  19:40:00  BASE  0.05292  41   0.9996   41   1.5   100   1.5   95    0     986.6    NA       0.0000   9999     2100  0     0    
2019/03/09  19:41:00  BASE  0.02352  44   0.9996   41   1.5   100   1.5   94    0     986.6    NA       0.0000   9999     2130  0     0    
2019/03/09  19:42:00  BASE  0.11172  47   0.9996   41   1.5   100   1.5   93    0     986.6    NA       0.0000   9999     2170  0     0    
2019/03/09  19:43:00  BASE  0.18816  54   0.9996   41   1.6   100   1.6   91    0     986.6    NA       0.0000   9999     2100  0     0    
2019/03/09  19:44:00  BASE  0.07644  60   0.9996   41   1.6   100   1.6   90    0     986.7    NA       0.0000   9999     2130  0     0    
2019/03/09  19:45:00  BASE  0        48   0.9996   41   1.7   100   1.7   88    0     986.7    NA       0.0000   9999     2130  0     0    
2019/03/09  19:46:00  BASE  0.07644  30   0.9996   41   1.7   100   1.7   87    0     986.7    NA       0.0000   9999     2170  0     0    
2019/03/09  19:47:00  BASE  0.13524  25   0.78792  21   1.8   100   1.8   86    0     986.7    NA       0.0000   9999     2170  0     0    
2019/03/09  19:48:00  BASE  0.0588   29   0.78792  21   1.8   100   1.8   85    0     986.7    NA       0.0000   9999     2130  0     0    
2019/03/09  19:49:00  BASE  0.21756  21   0.84672  22   1.7   100   1.7   86    0     986.7    NA       0.0000   9999     2100  0     0    
2019/03/09  19:50:00  BASE  0.33516  13   0.84672  22   1.7   100   1.7   87    0     986.7    NA       0.0000   9999     2070  0     0    
2019/03/09  19:51:00  BASE  0.2058   8    0.84672  22   1.6   100   1.6   88    0     986.7    NA       0.0000   9999     2100  0     0    
2019/03/09  19:52:00  BASE  0.2352   1    0.84672  22   1.6   100   1.6   88    0     986.6    NA       0.0000   9999     2030  0     0    
2019/03/09  19:53:00  BASE  0.147    7    0.84672  22   1.6   100   1.6   88    0     986.6    NA       0.0000   9999     1940  0     0    
2019/03/09  19:54:00  BASE  0.07644  19   0.84672  22   1.5   100   1.5   87    0     986.6    NA       0.0000   9999     1900  0     0    
2019/03/09  19:55:00  BASE  0.10584  7    0.84672  22   1.5   100   1.5   87    0     986.6    NA       0.0000   9999     1840  0     0    
2019/03/09  19:56:00  BASE  0.0294   0    0.84672  22   1.5   100   1.5   87    0     986.6    NA       0.0000   9999     1800  0     0    
2019/03/09  19:57:00  BASE  0.0294   11   0.84672  22   1.5   100   1.5   87    0     986.7    NA       0.0000   9999     1800  0     0    
2019/03/09  19:58:00  BASE  0.13524  12   0.84672  22   1.5   100   1.5   87    0     986.7    NA       0.0000   9999     2130  0     0    
2019/03/09  19:59:00  BASE  0.22344  17   0.81732  350  1.5   100   1.5   88    0     986.7    NA       0.0000   9999     2100  0     0    
2019/03/09  20:00:00  BASE  0.16464  25   0.75852  16   1.6   100   1.6   89    0     986.7    NA       0.0000   9999     2130  0     0    
2019/03/09  20:01:00  BASE  0.05292  27   0.75852  16   1.6   100   1.6   89    0     986.7    NA       0.0000   9999     2100  0     0    
2019/03/09  20:02:00  BASE  0        27   0.75852  16   1.6   100   1.6   90    0     986.7    NA       0.0000   9999     2030  0     0    
2019/03/09  20:03:00  BASE  0.07644  26   0.75852  16   1.6   100   1.6   91    0     986.7    NA       0.0000   9999     2030  0     0    
2019/03/09  20:04:00  BASE  0.09996  21   0.75852  16   1.7   100   1.7   92    0     986.7    NA       0.0000   9999     1970  0     0    
2019/03/09  20:05:00  BASE  0.10584  18   0.75852  16   1.7   100   1.7   93    0     986.7    NA       0.0000   9999     1900  0     0    
2019/03/09  20:06:00  BASE  0.294    11   0.75852  16   1.6   100   1.6   94    0     986.7    NA       0.0000   9999     1840  0     0    
2019/03/09  20:07:00  BASE  0.51744  5    0.75852  5    1.6   100   1.6   94    0     986.6    NA       0.0000   9999     1900  0     0    
2019/03/09  20:08:00  BASE  0.59976  1    0.78792  345  1.6   100   1.6   94    0     986.6    NA       0.0000   9999     1870  0     0    
2019/03/09  20:09:00  BASE  0.68796  350  0.90552  340  1.6   100   1.6   93    0     986.6    NA       0.0000   9999     1840  2820  0    
2019/03/09  20:10:00  BASE  0.84672  340  0.9702   334  1.5   100   1.5   92    0     986.6    NA       0.0000   9999     1840  0     0    
2019/03/09  20:11:00  BASE  0.89376  332  0.9702   326  1.5   100   1.5   91    0     986.6    NA       0.0000   9999     2030  0     0    
2019/03/09  20:12:00  BASE  0.93492  325  1.0878   318  1.5   100   1.5   90    0     986.6    NA       0.0000   9999     2000  2690  0    
2019/03/09  20:13:00  BASE  1.04076  319  1.21128  313  1.4   100   1.4   90    0     986.6    NA       0.0000   9999     1940  2690  0    
2019/03/09  20:14:00  BASE  1.06428  316  1.21128  313  1.4   100   1.4   91    0     986.6    NA       0.0000   9999     1900  0     0    
2019/03/09  20:15:00  BASE  0.98784  315  1.21128  313  1.4   100   1.4   92    0     986.6    NA       0.0000   9999     1900  0     0    
2019/03/09  20:16:00  BASE  0.98196  314  1.21128  313  1.4   100   1.4   93    0     986.6    NA       0.0000   9999     1870  0     0    
2019/03/09  20:17:00  BASE  1.07016  314  1.24068  313  1.4   100   1.4   93    0     986.6    NA       0.0000   9999     1900  0     0    
2019/03/09  20:18:00  BASE  1.1466   315  1.29948  315  1.4   100   1.4   94    0     986.6    NA       0.0000   9999     1900  2760  0    
2019/03/09  20:19:00  BASE  1.22304  315  1.32888  317  1.4   100   1.4   94    0     986.7    NA       0.0000   9999     1840  0     0    
2019/03/09  20:20:00  BASE  1.21716  314  1.32888  317  1.5   100   1.5   96    0     986.7    NA       0.0000   9999     1870  0     0    
2019/03/09  20:21:00  BASE  1.1466   313  1.32888  317  1.5   100   1.5   96    0     986.7    NA       0.0000   9999     1800  2790  0    
2019/03/09  20:22:00  BASE  1.10544  317  1.32888  317  1.5   100   1.5   96    0     986.7    NA       0.0000   9999     1770  2660  0    
2019/03/09  20:23:00  BASE  1.07604  327  1.32888  317  1.5   100   1.5   93    0     986.7    NA       0.0000   9999     1870  2690  0    
2019/03/09  20:24:00  BASE  1.029    337  1.32888  317  1.5   100   1.5   91    0     986.7    NA       0.0000   9999     2070  2790  0    
2019/03/09  20:25:00  BASE  0.95844  343  1.32888  317  1.5   100   1.5   88    0     986.7    NA       0.0000   9999     2030  0     0    
2019/03/09  20:26:00  BASE  0.85848  340  1.32888  317  1.5   100   1.5   87    0     986.7    NA       0.0000   9999     2000  0     0    
2019/03/09  20:27:00  BASE  0.85848  337  1.32888  317  1.5   100   1.5   87    0     986.7    NA       0.0000   9999     1900  0     0    
2019/03/09  20:28:00  BASE  0.9702   340  1.32888  317  1.4   100   1.4   87    0     986.7    NA       0.0000   9999     1940  0     0    
2019/03/09  20:29:00  BASE  0.89964  347  1.29948  315  1.4   100   1.4   87    0     986.7    NA       0.0000   9999     2070  2820  0    
2019/03/09  20:30:00  BASE  0.59976  354  1.21128  346  1.4   100   1.4   86    0     986.7    NA       0.0000   9999     2030  2890  0    
2019/03/09  20:31:00  BASE  0.48216  359  1.21128  346  1.4   100   1.4   83    0     986.8    NA       0.0000   9999     2000  2850  0    
2019/03/09  20:32:00  BASE  0.33516  354  1.21128  346  1.4   100   1.4   80    0     986.8    NA       0.0000   9999     2030  2820  0    
2019/03/09  20:33:00  BASE  0.37044  350  1.21128  346  1.3   100   1.3   76    0     986.9    NA       0.0000   9999     2030  2790  0    
2019/03/09  20:34:00  BASE  0.57624  348  1.21128  346  1.3   100   1.3   73    0     987.0    NA       0.0000   9999     2100  2760  0    
2019/03/09  20:35:00  BASE  0.64092  345  1.21128  346  1.4   100   1.4   71    0     987.0    NA       0.0000   9999     2690  0     0    
2019/03/09  20:36:00  BASE  0.75852  346  1.21128  346  1.4   100   1.4   69    0     987.0    NA       0.0000   9999     2720  0     0    
2019/03/09  20:37:00  BASE  0.81732  342  1.21128  346  1.3   100   1.3   69    0     987.1    NA       0.0000   9999     2620  0     0    
2019/03/09  20:38:00  BASE  0.80556  342  1.029    335  1.4   100   1.4   68    0     987.1    NA       0.0000   9999     2720  0     0    
2019/03/09  20:39:00  BASE  0.79968  336  1.029    316  1.4   100   1.4   67    0     987.1    NA       0.0000   9999     2360  0     0    
2019/03/09  20:40:00  BASE  0.92316  323  1.39356  312  1.3   100   1.3   66    0     987.1    NA       0.0000   9999     2460  0     0    
2019/03/09  20:41:00  BASE  1.176    313  1.78752  302  1.3   100   1.3   66    0     987.2    NA       0.0000   9999     2230  2760  0    
2019/03/09  20:42:00  BASE  1.47588  311  2.29908  305  1.4   100   1.4   67    0     987.2    NA       0.0000   9999     2200  2660  0    
2019/03/09  20:43:00  BASE  1.7346   311  2.56956  302  1.3   100   1.3   68    0     987.2    NA       0.0000   9999     2170  2760  0    
2019/03/09  20:44:00  BASE  2.05212  309  2.96352  307  1.4   100   1.4   69    0     987.2    NA       0.0000   9999     2230  3020  0    
2019/03/09  20:45:00  BASE  2.4696   308  2.96352  307  1.3   100   1.3   69    0     987.2    NA       0.0000   9999     2200  2950  0    
2019/03/09  20:46:00  BASE  2.69892  310  2.96352  307  1.4   100   1.4   67    0     987.2    NA       0.0000   9999     2230  2920  0    
2019/03/09  20:47:00  BASE  2.65776  314  2.96352  307  1.4   100   1.4   64    0     987.2    NA       0.0000   9999     2490  0     0    
2019/03/09  20:48:00  BASE  2.5872   316  2.96352  307  1.3   100   1.3   61    0     987.3    NA       0.0000   9999     2230  2890  0    
2019/03/09  20:49:00  BASE  2.56956  318  2.96352  307  1.3   100   1.3   59    0     987.3    NA       0.0000   9999     2200  2920  0    
2019/03/09  20:50:00  BASE  2.4696   318  2.96352  307  1.3   100   1.3   58    0     987.3    NA       0.0000   9999     2260  2890  0    
2019/03/09  20:51:00  BASE  2.352    318  2.96352  307  1.3   100   1.3   58    0     987.3    NA       0.0000   9999     2300  2950  0    
2019/03/09  20:52:00  BASE  2.37552  320  2.96352  307  1.3   100   1.3   59    0     987.3    NA       0.0000   9999     2260  2990  0    
2019/03/09  20:53:00  BASE  2.37552  322  2.96352  307  1.3   100   1.3   60    0     987.3    NA       0.0000   9999     2230  3020  0    
2019/03/09  20:54:00  BASE  2.21088  324  2.87532  314  1.3   100   1.3   60    0     987.3    NA       0.0000   9999     2200  2990  0    
2019/03/09  20:55:00  BASE  2.18736  325  2.87532  314  1.3   100   1.3   60    0     987.3    NA       0.0000   9999     2950  0     0    
2019/03/09  20:56:00  BASE  2.29908  325  2.75184  316  1.3   100   1.3   59    0     987.3    NA       0.0000   9999     2200  2950  0    
2019/03/09  20:57:00  BASE  2.1168   328  2.75184  316  1.3   100   1.3   59    0     987.4    NA       0.0000   9999     2230  2950  0    
2019/03/09  20:58:00  BASE  2.05212  331  2.63424  325  1.4   100   1.4   59    0     987.4    NA       0.0000   9999     2200  3020  0    
2019/03/09  20:59:00  BASE  2.02272  337  2.63424  325  1.4   100   1.4   60    0     987.4    NA       0.0000   9999     2260  0     0    
2019/03/09  21:00:00  BASE  1.91688  342  2.63424  325  1.4   100   1.4   60    0     987.4    NA       0.0000   9999     2200  0     0    
2019/03/09  21:01:00  BASE  1.95216  344  2.63424  325  1.4   100   1.4   59    0     987.4    NA       0.0000   9999     2200  2690  3050 
2019/03/09  21:02:00  BASE  1.90512  345  2.54016  323  1.4   100   1.4   56    0     987.4    NA       0.0000   9999     2260  3080  0    
2019/03/09  21:03:00  BASE  1.97568  344  2.48136  327  1.4   100   1.4   54    0     987.4    NA       0.0000   9999     2200  0     0    
2019/03/09  21:04:00  BASE  2.24028  341  2.59896  338  1.4   100   1.4   52    0     987.5    NA       0.0000   9999     2200  0     0    
2019/03/09  21:05:00  BASE  2.42844  338  2.59896  334  1.4   100   1.4   50    0     987.6    NA       0.0000   9999     2200  0     0    
2019/03/09  21:06:00  BASE  2.5872   335  2.93412  327  1.4   100   1.4   48    0     987.6    NA       0.0000   9999     2200  0     0    
2019/03/09  21:07:00  BASE  2.63424  333  2.93412  327  1.4   100   1.4   47    0     987.6    NA       0.0000   9999     2200  0     0    
2019/03/09  21:08:00  BASE  2.65188  331  2.93412  329  1.4   100   1.4   46    0     987.7    NA       0.0000   9999     2230  0     0    
2019/03/09  21:09:00  BASE  2.66364  332  2.93412  329  1.4   100   1.4   44    0     987.7    NA       0.0000   9999     2230  0     0    
2019/03/09  21:10:00  BASE  2.61072  335  2.93412  329  1.4   100   1.4   42    0     987.7    NA       0.0000   9999     2230  0     0    
2019/03/09  21:11:00  BASE  2.52252  338  2.93412  329  1.4   100   1.4   41    0     987.8    NA       0.0000   9999     2200  0     0    
2019/03/09  21:12:00  BASE  2.4402   341  2.93412  329  1.5   100   1.5   40    0     987.8    NA       0.0000   9999     2200  0     0    
2019/03/09  21:13:00  BASE  2.42256  342  2.93412  329  1.5   100   1.5   39    0     987.8    NA       0.0000   9999     2230  0     0    
2019/03/09  21:14:00  BASE  2.42844  342  2.93412  329  1.5   100   1.5   38    0     987.9    NA       0.0000   9999     2260  0     0    
2019/03/09  21:15:00  BASE  2.56956  342  2.96352  343  1.5   100   1.5   37    0     987.9    NA       0.0000   9999     2300  0     0    
2019/03/09  21:16:00  BASE  2.69892  343  2.96352  343  1.5   100   1.5   36    0     987.9    NA       0.0000   9999     2360  0     0    
2019/03/09  21:17:00  BASE  2.60484  344  2.96352  343  1.5   100   1.5   36    0     987.9    NA       0.0000   9999     2330  0     0    
2019/03/09  21:18:00  BASE  2.45784  343  2.96352  343  1.5   100   1.5   35    0     987.9    NA       0.0000   9999     2260  0     0    
2019/03/09  21:19:00  BASE  2.352    342  2.96352  343  1.5   100   1.5   34    0     987.9    NA       0.0000   9999     2230  0     0    
2019/03/09  21:20:00  BASE  2.28144  340  2.96352  343  1.4   100   1.4   34    0     987.9    NA       0.0000   9999     2230  0     0    
2019/03/09  21:21:00  BASE  2.1756   338  2.96352  343  1.4   100   1.4   34    0     987.9    NA       0.0000   9999     2230  0     0    
2019/03/09  21:22:00  BASE  2.1756   335  2.96352  343  1.4   100   1.4   34    0     987.9    NA       0.0000   9999     2200  0     0    
2019/03/09  21:23:00  BASE  2.22852  336  2.96352  343  1.5   100   1.5   34    0     987.9    NA       0.0000   9999     2170  0     0    
2019/03/09  21:24:00  BASE  2.15796  337  2.96352  343  1.5   100   1.5   34    0     987.9    NA       0.0000   9999     2330  0     0    
2019/03/09  21:25:00  BASE  2.32848  336  2.93412  344  1.5   100   1.5   34    0     987.9    NA       0.0000   9999     2300  0     0    
2019/03/09  21:26:00  BASE  2.51076  334  2.78124  329  1.5   100   1.5   33    0     988.0    NA       0.0000   9999     2260  0     0    
2019/03/09  21:27:00  BASE  2.59308  334  2.81064  333  1.5   100   1.5   33    0     988.0    NA       0.0000   9999     2360  0     0    
2019/03/09  21:28:00  BASE  2.499    336  2.81064  333  1.5   100   1.5   32    0     988.0    NA       0.0000   9999     2230  0     0    
2019/03/09  21:29:00  BASE  2.47548  334  2.81064  332  1.5   100   1.5   30    0     988.0    NA       0.0000   9999     2230  0     0    
2019/03/09  21:30:00  BASE  2.72244  330  3.1164   330  1.5   100   1.5   29    0     988.0    NA       0.0000   9999     2200  0     0    
2019/03/09  21:31:00  BASE  2.7636   326  3.1164   330  1.5   100   1.5   29    0     988.0    NA       0.0000   9999     2170  0     0    
2019/03/09  21:32:00  BASE  2.58132  321  3.1164   330  1.5   100   1.5   28    0     988.1    NA       0.0000   9999     2200  0     0    
2019/03/09  21:33:00  BASE  2.4402   317  3.1164   330  1.5   100   1.5   28    0     988.2    NA       0.0000   9999     2260  0     0    
2019/03/09  21:34:00  BASE  2.499    317  3.1164   330  1.5   100   1.5   28    0     988.2    NA       0.0000   9999     2130  0     0    
2019/03/09  21:35:00  BASE  2.793    320  3.32808  319  1.5   100   1.5   28    0     988.2    NA       0.0000   9999     2100  0     0    
2019/03/09  21:36:00  BASE  2.94     319  3.32808  319  1.4   100   1.4   28    0     988.2    NA       0.0000   9999     2170  0     0    
2019/03/09  21:37:00  BASE  2.76948  319  3.32808  319  1.4   100   1.4   28    0     988.2    NA       0.0000   9999     2230  0     0    
2019/03/09  21:38:00  BASE  2.48724  319  3.32808  319  1.4   100   1.4   28    0     988.2    NA       0.0000   9999     2230  0     0    
2019/03/09  21:39:00  BASE  2.205    317  3.32808  319  1.3   100   1.3   27    0     988.2    NA       0.0000   9999     2130  0     0    
2019/03/09  21:40:00  BASE  2.00508  315  3.32808  319  1.3   100   1.3   26    0     988.2    NA       0.0000   9999     2130  0     0    
2019/03/09  21:41:00  BASE  1.94628  317  3.32808  319  1.3   100   1.3   25    0     988.2    NA       0.0000   9999     2130  0     0    
2019/03/09  21:42:00  BASE  1.93452  318  3.32808  319  1.2   100   1.2   24    0     988.2    NA       0.0000   9999     2170  0     0    
2019/03/09  21:43:00  BASE  1.81692  312  3.32808  319  1.2   100   1.2   24    0     988.2    NA       0.0000   9999     2170  0     0    
2019/03/09  21:44:00  BASE  1.64052  314  3.32808  319  1.2   100   1.2   23    0     988.2    NA       0.0000   9999     2200  0     0    
2019/03/09  21:45:00  BASE  1.43472  319  3.087    316  1.2   100   1.2   22    0     988.2    NA       0.0000   9999     2170  0     0    
2019/03/09  21:46:00  BASE  1.25832  326  2.93412  322  1.2   100   1.2   22    0     988.2    NA       0.0000   9999     2070  0     0    
2019/03/09  21:47:00  BASE  1.17012  332  2.42256  321  1.2   100   1.2   22    0     988.2    NA       0.0000   9999     2030  0     0    
2019/03/09  21:48:00  BASE  0.98784  331  2.35788  321  1.3   100   1.3   21    0     988.2    NA       0.0000   9999     2000  0     0    
2019/03/09  21:49:00  BASE  0.57036  332  2.24028  321  1.3   100   1.3   20    0     988.2    NA       0.0000   9999     2000  0     0    
2019/03/09  21:50:00  BASE  0.24696  333  2.24028  321  1.3   100   1.3   19    0     988.2    NA       0.0000   9999     2070  0     0    
2019/03/09  21:51:00  BASE  0.13524  327  1.96392  312  1.3   100   1.3   19    0     988.2    NA       0.0000   9999     1970  0     0    
2019/03/09  21:52:00  BASE  0.05292  315  1.81692  302  1.3   100   1.3   18    0     988.2    NA       0.0000   9999     1940  0     0    
2019/03/09  21:53:00  BASE  0        299  1.63464  321  1.3   100   1.3   18    0     988.2    NA       0.0000   9999     2000  0     0    
2019/03/09  21:54:00  BASE  0        295  1.57584  320  1.3   100   1.3   18    0     988.2    NA       0.0000   9999     2070  0     0    
2019/03/09  21:55:00  BASE  0        297  1.35828  338  1.3   100   1.3   17    0     988.2    NA       0.0000   9999     2130  0     0    
2019/03/09  21:56:00  BASE  0        303  1.35828  338  1.3   100   1.3   17    0     988.2    NA       0.0000   9999     2100  0     0    
2019/03/09  21:57:00  BASE  0        307  1.0878   327  1.3   100   1.3   16    0     988.2    NA       0.0000   9999     2100  0     0    
2019/03/09  21:58:00  BASE  0        293  0.69384  339  1.3   100   1.3   16    0     988.3    NA       0.0000   9999     2100  0     0    
2019/03/09  21:59:00  BASE  0        253  0.66444  315  1.3   100   1.3   15    0     988.3    NA       0.0000   UP       9000  2030  0    
2019/03/09  22:00:00  BASE  0        219  0.66444  315  1.3   100   1.3   16    0     988.3    NA       0.0000   UP       9000  2130  0    
2019/03/09  22:01:00  BASE  0.27048  216  0.90552  220  1.3   100   1.3   16    0     988.3    NA       0.0000   UP       9999  2100  0    
2019/03/09  22:02:00  BASE  0.441    239  0.90552  220  1.3   100   1.3   16    0     988.3    NA       0.0000   UP       9999  2100  0    
2019/03/09  22:03:00  BASE  0.17052  261  0.90552  220  1.3   100   1.3   16    0     988.2    NA       0.0000   UP       9999  2170  0    
2019/03/09  22:04:00  BASE  0        249  0.90552  220  1.3   100   1.3   16    0     988.2    NA       0.0000   UP       9999  2100  0    
2019/03/09  22:05:00  BASE  0        258  0.90552  220  1.3   100   1.3   15    0     988.2    NA       0.0000   UP       9999  2100  0    
2019/03/09  22:06:00  BASE  0        288  0.90552  220  1.3   100   1.3   15    0     988.3    NA       0.0000   UP       9999  2130  0    
2019/03/09  22:07:00  BASE  0        292  0.90552  220  1.3   100   1.3   14    0     988.3    NA       0.0000   UP       9999  2170  0    
2019/03/09  22:08:00  BASE  0.4116   282  1.21128  290  1.3   100   1.3   14    0     988.3    NA       0.0000   UP       9999  2300  0    
2019/03/09  22:09:00  BASE  0.7056   260  1.21128  290  1.3   100   1.3   14    0     988.3    NA       0.0000   9999     2200  0     0    
2019/03/09  22:10:00  BASE  0.28812  232  1.21128  290  1.3   100   1.3   14    0     988.3    NA       0.0000   9999     2130  0     0    
2019/03/09  22:11:00  BASE  0.1176   230  1.21128  290  1.2   100   1.2   14    0     988.3    NA       0.0000   9999     2230  0     0    
2019/03/09  22:12:00  BASE  0.28812  243  1.21128  290  1.2   100   1.2   15    0     988.3    NA       0.0000   9999     2200  0     0    
2019/03/09  22:13:00  BASE  0.1764   231  1.21128  290  1.2   100   1.2   15    0     988.3    NA       0.0000   9999     2300  0     0    
2019/03/09  22:14:00  BASE  0        212  1.21128  290  1.2   100   1.2   15    0     988.2    NA       0.0000   9999     2300  0     0    
2019/03/09  22:15:00  BASE  0        200  1.21128  290  1.2   100   1.2   15    0     988.2    NA       0.0000   9999     2260  0     0    
2019/03/09  22:16:00  BASE  0        185  1.21128  290  1.2   100   1.2   15    0     988.2    NA       0.0000   9999     2400  0     0    
2019/03/09  22:17:00  BASE  0        187  1.21128  290  1.3   100   1.3   14    0     988.2    NA       0.0000   9999     2590  0     0    
2019/03/09  22:18:00  BASE  0.14112  223  1.1466   243  1.3   100   1.3   14    0     988.2    NA       0.0000   9999     2720  0     0    
2019/03/09  22:19:00  BASE  0.36456  234  1.029    246  1.3   100   1.3   13    0     988.3    NA       0.0000   9999     2690  0     0    
2019/03/09  22:20:00  BASE  0.81144  233  1.51116  254  1.3   100   1.3   12    0     988.3    NA       0.0000   9999     2790  0     0    
2019/03/09  22:21:00  BASE  1.31124  235  2.0286   219  1.2   100   1.2   12    0     988.3    NA       0.0000   9999     2620  0     0    
2019/03/09  22:22:00  BASE  1.37004  235  2.058    239  1.2   100   1.2   11    0     988.3    NA       0.0000   9999     2690  0     0    
2019/03/09  22:23:00  BASE  1.09956  245  2.058    239  1.2   100   1.2   11    0     988.3    NA       0.0000   9999     2720  0     0    
2019/03/09  22:24:00  BASE  0.87612  252  2.058    239  1.2   100   1.2   10    0     988.3    NA       0.0000   9999     2760  0     0    
2019/03/09  22:25:00  BASE  1.0584   248  2.058    239  1.2   100   1.2   10    0     988.3    NA       0.0000   9999     2760  0     0    
2019/03/09  22:26:00  BASE  0.89964  248  2.058    239  1.2   100   1.2   10    0     988.3    NA       0.0000   9999     2790  0     0    
2019/03/09  22:27:00  BASE  0.33516  284  2.058    239  1.2   100   1.2   9     0     988.3    NA       0.0000   9999     2760  0     0    
2019/03/09  22:28:00  BASE  0.25872  290  2.058    239  1.3   100   1.3   9     0     988.3    NA       0.0000   9999     2720  0     0    
2019/03/09  22:29:00  BASE  0.31752  252  2.058    239  1.3   100   1.3   9     0     988.3    NA       0.0000   9999     2720  0     0    
2019/03/09  22:30:00  BASE  0.42924  230  2.058    239  1.3   100   1.3   9     0     988.3    NA       0.0000   9999     2760  0     0    
2019/03/09  22:31:00  BASE  0.5586   241  2.058    239  1.3   100   1.3   9     0     988.3    NA       0.0000   9999     2820  4000  0    
2019/03/09  22:32:00  BASE  0.51156  245  1.72284  251  1.3   100   1.3   9     0     988.3    NA       0.0000   9999     2820  0     0    
2019/03/09  22:33:00  BASE  0.62916  234  1.57584  261  1.3   100   1.3   8     0     988.3    NA       0.0000   9999     2890  0     0    
2019/03/09  22:34:00  BASE  0.58212  230  1.57584  261  1.3   100   1.3   7     0     988.3    NA       0.0000   9999     2920  0     0    
2019/03/09  22:35:00  BASE  0.21756  229  1.57584  261  1.3   100   1.3   7     0     988.3    NA       0.0000   9999     2790  0     0    
2019/03/09  22:36:00  BASE  0        261  1.57584  261  1.3   100   1.3   6     0     988.3    NA       0.0000   9999     2790  0     0    
2019/03/09  22:37:00  BASE  0.0294   278  1.57584  261  1.3   100   1.3   6     0     988.4    NA       0.0000   9999     2790  0     0    
2019/03/09  22:38:00  BASE  0.0294   270  1.57584  261  1.3   100   1.3   6     0     988.4    NA       0.0000   9999     2920  0     0    
2019/03/09  22:39:00  BASE  0        301  1.57584  261  1.4   100   1.3   5     0     988.3    NA       0.0000   9999     2890  0     0    
2019/03/09  22:40:00  BASE  0        331  1.029    247  1.4   100   1.4   5     0     988.3    NA       0.0000   9999     2790  0     0    
2019/03/09  22:41:00  BASE  0        291  1.029    247  1.4   100   1.4   5     0     988.3    NA       0.0000   9999     2620  0     0    
2019/03/09  22:42:00  BASE  0.0588   235  1.029    247  1.3   100   1.3   4     0     988.3    NA       0.0000   9999     2850  0     0    
2019/03/09  22:43:00  BASE  0.29988  196  1.0878   163  1.3   100   1.3   4     0     988.3    NA       0.0000   9999     2850  0     0    
2019/03/09  22:44:00  BASE  0.2646   183  1.0878   163  1.3   100   1.3   4     0     988.4    NA       0.0000   9999     2890  0     0    
2019/03/09  22:45:00  BASE  0.0294   233  1.0878   163  1.3   100   1.3   4     0     988.4    NA       0.0000   9999     2790  0     0    
2019/03/09  22:46:00  BASE  0.294    301  1.60524  318  1.4   100   1.4   4     0     988.4    NA       0.0000   9999     2760  0     0    
2019/03/09  22:47:00  BASE  0.43512  303  1.60524  318  1.4   100   1.4   3     0     988.3    NA       0.0000   9999     2760  0     0    
2019/03/09  22:48:00  BASE  0.27048  253  1.60524  318  1.4   100   1.4   3     0     988.4    NA       0.0000   9999     2760  0     0    
2019/03/09  22:49:00  BASE  0.19404  192  1.60524  318  1.4   100   1.4   3     0     988.3    NA       0.0000   9999     2760  0     0    
2019/03/09  22:50:00  BASE  0.06468  182  1.60524  318  1.4   100   1.4   3     0     988.4    NA       0.0000   9999     2820  0     0    
2019/03/09  22:51:00  BASE  0        214  1.60524  318  1.4   100   1.4   3     0     988.4    NA       0.0000   9999     2760  0     0    
2019/03/09  22:52:00  BASE  0.09996  245  1.60524  318  1.4   100   1.4   3     0     988.3    NA       0.0000   9999     2790  0     0    
2019/03/09  22:53:00  BASE  0.7056   36   1.60524  318  1.5   100   1.5   3     0     988.4    NA       0.0000   9999     2690  0     0    
2019/03/09  22:54:00  BASE  1.02312  32   1.60524  318  1.4   100   1.4   3     0     988.4    NA       0.0000   9999     2620  0     0    
2019/03/09  22:55:00  BASE  0.92904  32   1.60524  318  1.4   100   1.4   2     0     988.4    NA       0.0000   9999     2430  0     0    
2019/03/09  22:56:00  BASE  0.89964  40   1.54056  45   1.4   100   1.4   2     0     988.3    NA       0.0000   9999     2460  0     0    
2019/03/09  22:57:00  BASE  0.87024  49   1.54056  45   1.3   100   1.3   2     0     988.3    NA       0.0000   9999     2530  0     0    
2019/03/09  22:58:00  BASE  0.54684  56   1.54056  45   1.3   100   1.3   2     0     988.3    NA       0.0000   9999     2460  0     0    
2019/03/09  22:59:00  BASE  0.24696  56   1.54056  45   1.3   100   1.3   2     0     988.3    NA       0.0000   9999     2360  0     0    
2019/03/09  23:00:00  BASE  0.62916  51   1.54056  45   1.3   100   1.3   2     0     988.3    NA       0.0000   9999     2430  0     0    
2019/03/09  23:01:00  BASE  0.94668  46   1.54056  45   1.3   100   1.3   2     0     988.3    NA       0.0000   9999     2400  0     0    
2019/03/09  23:02:00  BASE  0.75264  57   1.54056  45   1.4   100   1.4   1     0     988.3    NA       0.0000   9999     2530  0     0    
2019/03/09  23:03:00  BASE  0.27636  61   1.24068  44   1.4   100   1.4   1     0     988.3    NA       0.0000   9999     2530  0     0    
2019/03/09  23:04:00  BASE  0.43512  52   1.24068  44   1.4   100   1.4   1     0     988.3    NA       0.0000   9999     2590  0     0    
2019/03/09  23:05:00  BASE  0.69972  43   1.21128  47   1.4   100   1.4   1     0     988.3    NA       0.0000   9999     2330  0     0    
2019/03/09  23:06:00  BASE  0.294    49   1.21128  47   1.4   100   1.4   1     0     988.3    NA       0.0000   9999     2330  0     0    
2019/03/09  23:07:00  BASE  0.28812  58   1.42296  59   1.4   100   1.4   1     0     988.3    NA       0.0000   9999     2260  0     0    
2019/03/09  23:08:00  BASE  0.94668  54   1.57584  64   1.4   100   1.4   1     0     988.3    NA       0.0000   9999     2200  0     0    
2019/03/09  23:09:00  BASE  1.31124  54   1.57584  64   1.4   100   1.4   1     0     988.3    NA       0.0000   9999     2130  0     0    
2019/03/09  23:10:00  BASE  1.2936   57   1.57584  64   1.4   100   1.4   1     0     988.3    NA       0.0000   9999     2460  0     0    
2019/03/09  23:11:00  BASE  1.44648  58   1.69344  58   1.5   100   1.5   1     0     988.3    NA       0.0000   9999     2300  0     0    
2019/03/09  23:12:00  BASE  1.48764  59   1.69344  58   1.4   100   1.4   1     0     988.3    NA       0.0000   9999     2430  0     0    
2019/03/09  23:13:00  BASE  1.39944  59   1.69344  58   1.4   100   1.4   1     0     988.2    NA       0.0000   9999     2460  0     0    
2019/03/09  23:14:00  BASE  1.44648  62   1.69344  58   1.5   100   1.5   1     0     988.2    NA       0.0000   9999     2330  0     0    
2019/03/09  23:15:00  BASE  1.39356  63   1.69344  58   1.5   100   1.5   1     0     988.2    NA       0.0000   9999     2360  0     0    
2019/03/09  23:16:00  BASE  1.16424  63   1.69344  58   1.4   100   1.4   1     0     988.2    NA       0.0000   9999     2330  0     0    
2019/03/09  23:17:00  BASE  0.94668  68   1.69344  58   1.4   100   1.4   1     0     988.2    NA       0.0000   9999     2260  0     0    
2019/03/09  23:18:00  BASE  0.9114   69   1.69344  58   1.4   100   1.4   1     0     988.1    NA       0.0000   9999     2260  0     0    
2019/03/09  23:19:00  BASE  1.01136  70   1.69344  58   1.4   100   1.4   1     0     988.0    NA       0.0000   9999     2260  0     0    
2019/03/09  23:20:00  BASE  1.18776  71   1.69344  58   1.5   100   1.5   1     0     988.0    NA       0.0000   9999     660   0     0    
2019/03/09  23:21:00  BASE  1.22304  67   1.60524  58   1.5   100   1.5   1     0     988.0    NA       0.0000   9999     2230  0     0    
2019/03/09  23:22:00  BASE  1.19364  61   1.57584  56   1.5   100   1.5   1     0     988.0    NA       0.0000   9999     2200  0     0    
2019/03/09  23:23:00  BASE  1.15836  63   1.54056  66   1.5   100   1.5   1     0     987.9    NA       0.0000   9999     2230  0     0    
2019/03/09  23:24:00  BASE  1.05252  74   1.45236  76   1.5   100   1.5   1     0     987.9    NA       0.0000   9999     2330  0     0    
2019/03/09  23:25:00  BASE  0.98196  89   1.45236  76   1.5   100   1.5   1     0     987.9    NA       0.0000   9999     2330  0     0    
2019/03/09  23:26:00  BASE  1.03488  104  1.45236  76   1.5   100   1.5   1     0     987.9    NA       0.0000   9999     2300  0     0    
2019/03/09  23:27:00  BASE  1.16424  109  1.45236  76   1.5   100   1.5   0     0     988.0    NA       0.0000   9999     2130  0     0    
2019/03/09  23:28:00  BASE  1.06428  119  1.45236  76   1.5   100   1.5   0     0     988.0    NA       0.0000   9999     2100  0     0    
2019/03/09  23:29:00  BASE  0.7056   132  1.45236  76   1.5   100   1.5   0     0     988.0    NA       0.0000   9999     2230  0     0    
2019/03/09  23:30:00  BASE  0.25872  121  1.42296  60   1.5   100   1.5   0     0     987.9    NA       0.0000   9999     2070  0     0    
2019/03/09  23:31:00  BASE  0.02352  101  1.42296  60   1.4   100   1.4   0     0     987.9    NA       0.0000   9999     2230  0     0    
2019/03/09  23:32:00  BASE  0        70   1.35828  110  1.4   100   1.4   0     0     987.9    NA       0.0000   9999     2260  0     0    
2019/03/09  23:33:00  BASE  0.10584  44   1.35828  110  1.5   100   1.5   0     0     987.9    NA       0.0000   9999     2300  0     0    
2019/03/09  23:34:00  BASE  0.42924  40   1.35828  110  1.5   100   1.5   0     0     987.9    NA       0.0000   9999     2330  0     0    
2019/03/09  23:35:00  BASE  0.74088  37   1.35828  110  1.6   100   1.6   0     0     987.9    NA       0.0000   9999     2260  0     0    
2019/03/09  23:36:00  BASE  0.78792  45   1.24068  114  1.6   100   1.6   0     0     987.9    NA       0.0000   9999     2200  0     0    
2019/03/09  23:37:00  BASE  0.48216  57   1.0584   135  1.6   100   1.6   0     0     987.9    NA       0.0000   9999     2130  0     0    
2019/03/09  23:38:00  BASE  0.31164  65   1.0878   72   1.6   100   1.6   0     0     987.9    NA       0.0000   9999     2200  0     0    
2019/03/09  23:39:00  BASE  0.6174   67   1.0878   72   1.6   100   1.6   0     0     987.9    NA       0.0000   9999     2200  0     0    
2019/03/09  23:40:00  BASE  0.55272  56   1.0878   72   1.6   100   1.6   0     0     988.0    NA       0.0000   9999     2230  0     0    
2019/03/09  23:41:00  BASE  0.12936  34   1.0878   72   1.6   100   1.6   0     0     988.0    NA       0.0000   9999     2300  0     0    
2019/03/09  23:42:00  BASE  0        4    1.0878   72   1.6   100   1.6   0     0     988.0    NA       0.0000   9999     2360  0     0    
2019/03/09  23:43:00  BASE  0        341  1.0878   72   1.6   100   1.6   0     0     988.0    NA       0.0000   9999     2330  0     0    
2019/03/09  23:44:00  BASE  0.05292  341  1.0878   72   1.6   100   1.6   0     0     988.0    NA       0.0000   9999     2230  0     0    
2019/03/09  23:45:00  BASE  0.2352   353  1.0878   72   1.6   100   1.6   0     0     988.0    NA       0.0000   9999     2260  0     0    
2019/03/09  23:46:00  BASE  0.18228  4    1.0878   72   1.6   100   1.6   0     0     988.0    NA       0.0000   9999     2230  0     0    
2019/03/09  23:47:00  BASE  0        7    1.0878   72   1.5   100   1.5   0     0     987.9    NA       0.0000   9999     2330  0     0    
2019/03/09  23:48:00  BASE  0        10   0.93492  76   1.4   100   1.4   0     0     987.9    NA       0.0000   9999     2360  0     0    
2019/03/09  23:49:00  BASE  0.02352  16   0.81732  57   1.4   100   1.4   0     0     987.9    NA       0.0000   9999     2330  0     0    
2019/03/09  23:50:00  BASE  0.02352  31   0.66444  6    1.4   100   1.4   0     0     987.9    NA       0.0000   9999     2300  0     0    
2019/03/09  23:51:00  BASE  0        57   0.66444  6    1.4   100   1.4   0     0     987.9    NA       0.0000   9999     2260  0     0    
2019/03/09  23:52:00  BASE  0        86   0.66444  6    1.5   100   1.5   0     0     987.9    NA       0.0000   9999     2260  0     0    
2019/03/09  23:53:00  BASE  0        105  0.66444  6    1.5   100   1.5   0     0     987.9    NA       0.0000   9999     2260  0     0    
2019/03/09  23:54:00  BASE  0        113  0.66444  6    1.5   100   1.5   0     0     987.9    NA       0.0000   9999     750   0     0    
2019/03/09  23:55:00  BASE  0        119  0.60564  15   1.5   100   1.5   0     0     987.9    NA       0.0000   9999     620   0     0    
2019/03/09  23:56:00  BASE  0        124  0.60564  15   1.5   100   1.5   0     0     987.9    NA       0.0000   9999     560   0     0    
2019/03/09  23:57:00  BASE  0        126  0.60564  15   1.5   100   1.5   0     0     987.9    NA       0.0000   9999     520   0     0    
2019/03/09  23:58:00  BASE  0        132  0.60564  15   1.5   100   1.5   0     0     987.9    NA       0.0000   9999     520   0     0    
2019/03/09  23:59:00  BASE  0.02352  152  0.60564  174  1.5   100   1.5   0     0     987.9    NA       0.0000   9999     490   0     0